<?xml version='1.0' encoding='UTF-8'?>
<gpx version="1.1" creator="https://www.komoot.de" xmlns="http://www.topografix.com/GPX/1/1" xmlns:xsi="http://www.w3.org/2001/XMLSchema-instance" xsi:schemaLocation="http://www.topografix.com/GPX/1/1 http://www.topografix.com/GPX/1/1/gpx.xsd">
  <metadata>
    <name>260903 Groningen Ride: Onlanden</name>
    <author>
      <link href="https://www.komoot.de">
        <text>komoot</text>
        <type>text/html</type>
      </link>
    </author>
  </metadata>
  <trk>
    <name>260903 Groningen Ride: Onlanden</name>
    <type>touring_bicycle</type>
    <trkseg>
      <trkpt lat="53.240444" lon="6.536642">
        <ele>1.789305</ele>
        <time>2026-09-03T15:52:49.597Z</time>
      </trkpt>
      <trkpt lat="53.240304" lon="6.536739">
        <ele>1.789305</ele>
        <time>2026-09-03T15:53:01.038Z</time>
      </trkpt>
      <trkpt lat="53.240224" lon="6.536812">
        <ele>1.789305</ele>
        <time>2026-09-03T15:53:05.045Z</time>
      </trkpt>
      <trkpt lat="53.240124" lon="6.536877">
        <ele>1.789305</ele>
        <time>2026-09-03T15:53:10.034Z</time>
      </trkpt>
      <trkpt lat="53.240056" lon="6.536769">
        <ele>1.789305</ele>
        <time>2026-09-03T15:53:14.061Z</time>
      </trkpt>
      <trkpt lat="53.239941" lon="6.536797">
        <ele>1.789305</ele>
        <time>2026-09-03T15:53:18.036Z</time>
      </trkpt>
      <trkpt lat="53.239832" lon="6.536866">
        <ele>1.789305</ele>
        <time>2026-09-03T15:53:22.038Z</time>
      </trkpt>
      <trkpt lat="53.239750" lon="6.536938">
        <ele>1.789305</ele>
        <time>2026-09-03T15:53:25.040Z</time>
      </trkpt>
      <trkpt lat="53.239660" lon="6.536984">
        <ele>1.789305</ele>
        <time>2026-09-03T15:53:28.038Z</time>
      </trkpt>
      <trkpt lat="53.239599" lon="6.536866">
        <ele>1.816436</ele>
        <time>2026-09-03T15:53:31.039Z</time>
      </trkpt>
      <trkpt lat="53.239564" lon="6.536697">
        <ele>1.867072</ele>
        <time>2026-09-03T15:53:34.040Z</time>
      </trkpt>
      <trkpt lat="53.239499" lon="6.536538">
        <ele>1.921594</ele>
        <time>2026-09-03T15:53:38.038Z</time>
      </trkpt>
      <trkpt lat="53.239385" lon="6.536585">
        <ele>1.977147</ele>
        <time>2026-09-03T15:53:41.039Z</time>
      </trkpt>
      <trkpt lat="53.239300" lon="6.536653">
        <ele>2.021734</ele>
        <time>2026-09-03T15:53:43.039Z</time>
      </trkpt>
      <trkpt lat="53.239207" lon="6.536717">
        <ele>2.069320</ele>
        <time>2026-09-03T15:53:45.037Z</time>
      </trkpt>
      <trkpt lat="53.239110" lon="6.536784">
        <ele>2.118980</ele>
        <time>2026-09-03T15:53:47.036Z</time>
      </trkpt>
      <trkpt lat="53.239009" lon="6.536854">
        <ele>2.170713</ele>
        <time>2026-09-03T15:53:49.039Z</time>
      </trkpt>
      <trkpt lat="53.238900" lon="6.536923">
        <ele>2.225860</ele>
        <time>2026-09-03T15:53:51.038Z</time>
      </trkpt>
      <trkpt lat="53.238794" lon="6.536999">
        <ele>2.280433</ele>
        <time>2026-09-03T15:53:53.040Z</time>
      </trkpt>
      <trkpt lat="53.238691" lon="6.537079">
        <ele>2.334172</ele>
        <time>2026-09-03T15:53:55.033Z</time>
      </trkpt>
      <trkpt lat="53.238590" lon="6.537154">
        <ele>2.386464</ele>
        <time>2026-09-03T15:53:57.039Z</time>
      </trkpt>
      <trkpt lat="53.238488" lon="6.537219">
        <ele>2.438113</ele>
        <time>2026-09-03T15:53:59.037Z</time>
      </trkpt>
      <trkpt lat="53.238390" lon="6.537284">
        <ele>2.487998</ele>
        <time>2026-09-03T15:54:01.039Z</time>
      </trkpt>
      <trkpt lat="53.238301" lon="6.537341">
        <ele>2.533094</ele>
        <time>2026-09-03T15:54:03.038Z</time>
      </trkpt>
      <trkpt lat="53.238195" lon="6.537402">
        <ele>2.586136</ele>
        <time>2026-09-03T15:54:06.039Z</time>
      </trkpt>
      <trkpt lat="53.238163" lon="6.537239">
        <ele>2.634710</ele>
        <time>2026-09-03T15:54:09.038Z</time>
      </trkpt>
      <trkpt lat="53.238120" lon="6.537040">
        <ele>2.505263</ele>
        <time>2026-09-03T15:54:12.038Z</time>
      </trkpt>
      <trkpt lat="53.238067" lon="6.536897">
        <ele>2.386914</ele>
        <time>2026-09-03T15:54:14.039Z</time>
      </trkpt>
      <trkpt lat="53.238016" lon="6.536750">
        <ele>2.267360</ele>
        <time>2026-09-03T15:54:16.038Z</time>
      </trkpt>
      <trkpt lat="53.237966" lon="6.536593">
        <ele>2.142226</ele>
        <time>2026-09-03T15:54:18.037Z</time>
      </trkpt>
      <trkpt lat="53.237927" lon="6.536445">
        <ele>2.028443</ele>
        <time>2026-09-03T15:54:20.038Z</time>
      </trkpt>
      <trkpt lat="53.237886" lon="6.536285">
        <ele>1.905978</ele>
        <time>2026-09-03T15:54:22.040Z</time>
      </trkpt>
      <trkpt lat="53.237842" lon="6.536115">
        <ele>1.775656</ele>
        <time>2026-09-03T15:54:24.040Z</time>
      </trkpt>
      <trkpt lat="53.237808" lon="6.535965">
        <ele>1.662797</ele>
        <time>2026-09-03T15:54:26.039Z</time>
      </trkpt>
      <trkpt lat="53.237797" lon="6.535804">
        <ele>1.548778</ele>
        <time>2026-09-03T15:54:29.039Z</time>
      </trkpt>
      <trkpt lat="53.237896" lon="6.535714">
        <ele>1.416276</ele>
        <time>2026-09-03T15:54:34.038Z</time>
      </trkpt>
      <trkpt lat="53.238000" lon="6.535652">
        <ele>1.286459</ele>
        <time>2026-09-03T15:54:38.039Z</time>
      </trkpt>
      <trkpt lat="53.238048" lon="6.535497">
        <ele>1.163663</ele>
        <time>2026-09-03T15:54:43.037Z</time>
      </trkpt>
      <trkpt lat="53.237997" lon="6.535334">
        <ele>1.034246</ele>
        <time>2026-09-03T15:54:48.038Z</time>
      </trkpt>
      <trkpt lat="53.237907" lon="6.535260">
        <ele>0.916319</ele>
        <time>2026-09-03T15:54:54.039Z</time>
      </trkpt>
      <trkpt lat="53.237821" lon="6.535334">
        <ele>0.802593</ele>
        <time>2026-09-03T15:55:05.038Z</time>
      </trkpt>
      <trkpt lat="53.237736" lon="6.535390">
        <ele>0.695175</ele>
        <time>2026-09-03T15:55:08.040Z</time>
      </trkpt>
      <trkpt lat="53.237653" lon="6.535303">
        <ele>0.579984</ele>
        <time>2026-09-03T15:55:12.040Z</time>
      </trkpt>
      <trkpt lat="53.237633" lon="6.535121">
        <ele>0.504222</ele>
        <time>2026-09-03T15:55:15.038Z</time>
      </trkpt>
      <trkpt lat="53.237606" lon="6.534973">
        <ele>0.473421</ele>
        <time>2026-09-03T15:55:17.038Z</time>
      </trkpt>
      <trkpt lat="53.237568" lon="6.534827">
        <ele>0.441727</ele>
        <time>2026-09-03T15:55:19.037Z</time>
      </trkpt>
      <trkpt lat="53.237500" lon="6.534644">
        <ele>0.398847</ele>
        <time>2026-09-03T15:55:22.053Z</time>
      </trkpt>
      <trkpt lat="53.237438" lon="6.534443">
        <ele>0.353833</ele>
        <time>2026-09-03T15:55:25.037Z</time>
      </trkpt>
      <trkpt lat="53.237389" lon="6.534287">
        <ele>0.318761</ele>
        <time>2026-09-03T15:55:27.038Z</time>
      </trkpt>
      <trkpt lat="53.237347" lon="6.534139">
        <ele>0.286154</ele>
        <time>2026-09-03T15:55:29.037Z</time>
      </trkpt>
      <trkpt lat="53.237309" lon="6.533996">
        <ele>0.255007</ele>
        <time>2026-09-03T15:55:31.039Z</time>
      </trkpt>
      <trkpt lat="53.237265" lon="6.533836">
        <ele>0.219954</ele>
        <time>2026-09-03T15:55:33.039Z</time>
      </trkpt>
      <trkpt lat="53.237231" lon="6.533674">
        <ele>0.185780</ele>
        <time>2026-09-03T15:55:35.039Z</time>
      </trkpt>
      <trkpt lat="53.237179" lon="6.533516">
        <ele>0.149884</ele>
        <time>2026-09-03T15:55:37.039Z</time>
      </trkpt>
      <trkpt lat="53.237139" lon="6.533357">
        <ele>0.115550</ele>
        <time>2026-09-03T15:55:39.037Z</time>
      </trkpt>
      <trkpt lat="53.237097" lon="6.533194">
        <ele>0.080221</ele>
        <time>2026-09-03T15:55:41.041Z</time>
      </trkpt>
      <trkpt lat="53.237068" lon="6.533032">
        <ele>0.046560</ele>
        <time>2026-09-03T15:55:43.040Z</time>
      </trkpt>
      <trkpt lat="53.237026" lon="6.532858">
        <ele>0.009211</ele>
        <time>2026-09-03T15:55:45.040Z</time>
      </trkpt>
      <trkpt lat="53.236987" lon="6.532714">
        <ele>-0.022254</ele>
        <time>2026-09-03T15:55:47.040Z</time>
      </trkpt>
      <trkpt lat="53.236949" lon="6.532557">
        <ele>-0.055968</ele>
        <time>2026-09-03T15:55:49.040Z</time>
      </trkpt>
      <trkpt lat="53.236974" lon="6.532369">
        <ele>-0.006185</ele>
        <time>2026-09-03T15:55:52.039Z</time>
      </trkpt>
      <trkpt lat="53.236943" lon="6.532197">
        <ele>0.102939</ele>
        <time>2026-09-03T15:55:55.037Z</time>
      </trkpt>
      <trkpt lat="53.236886" lon="6.532065">
        <ele>0.201820</ele>
        <time>2026-09-03T15:55:58.038Z</time>
      </trkpt>
      <trkpt lat="53.236771" lon="6.532098">
        <ele>0.320256</ele>
        <time>2026-09-03T15:56:01.048Z</time>
      </trkpt>
      <trkpt lat="53.236694" lon="6.532177">
        <ele>0.411970</ele>
        <time>2026-09-03T15:56:03.047Z</time>
      </trkpt>
      <trkpt lat="53.236580" lon="6.532172">
        <ele>0.527722</ele>
        <time>2026-09-03T15:56:06.038Z</time>
      </trkpt>
      <trkpt lat="53.236546" lon="6.531990">
        <ele>0.643547</ele>
        <time>2026-09-03T15:56:09.039Z</time>
      </trkpt>
      <trkpt lat="53.236503" lon="6.531813">
        <ele>0.759595</ele>
        <time>2026-09-03T15:56:12.039Z</time>
      </trkpt>
      <trkpt lat="53.236462" lon="6.531607">
        <ele>0.891477</ele>
        <time>2026-09-03T15:56:15.039Z</time>
      </trkpt>
      <trkpt lat="53.236427" lon="6.531463">
        <ele>0.985895</ele>
        <time>2026-09-03T15:56:17.053Z</time>
      </trkpt>
      <trkpt lat="53.236390" lon="6.531306">
        <ele>1.088401</ele>
        <time>2026-09-03T15:56:19.039Z</time>
      </trkpt>
      <trkpt lat="53.236339" lon="6.531108">
        <ele>1.219352</ele>
        <time>2026-09-03T15:56:22.052Z</time>
      </trkpt>
      <trkpt lat="53.236293" lon="6.530919">
        <ele>1.343300</ele>
        <time>2026-09-03T15:56:25.034Z</time>
      </trkpt>
      <trkpt lat="53.236241" lon="6.530717">
        <ele>1.476884</ele>
        <time>2026-09-03T15:56:28.037Z</time>
      </trkpt>
      <trkpt lat="53.236149" lon="6.530666">
        <ele>1.575271</ele>
        <time>2026-09-03T15:56:31.030Z</time>
      </trkpt>
      <trkpt lat="53.236018" lon="6.530737">
        <ele>1.715059</ele>
        <time>2026-09-03T15:56:34.040Z</time>
      </trkpt>
      <trkpt lat="53.235923" lon="6.530793">
        <ele>1.686922</ele>
        <time>2026-09-03T15:56:36.032Z</time>
      </trkpt>
      <trkpt lat="53.235818" lon="6.530868">
        <ele>1.567503</ele>
        <time>2026-09-03T15:56:38.040Z</time>
      </trkpt>
      <trkpt lat="53.235715" lon="6.530924">
        <ele>1.454230</ele>
        <time>2026-09-03T15:56:40.038Z</time>
      </trkpt>
      <trkpt lat="53.235613" lon="6.530993">
        <ele>1.339151</ele>
        <time>2026-09-03T15:56:42.038Z</time>
      </trkpt>
      <trkpt lat="53.235512" lon="6.531065">
        <ele>1.224316</ele>
        <time>2026-09-03T15:56:44.037Z</time>
      </trkpt>
      <trkpt lat="53.235415" lon="6.531140">
        <ele>1.112542</ele>
        <time>2026-09-03T15:56:46.045Z</time>
      </trkpt>
      <trkpt lat="53.235319" lon="6.531174">
        <ele>1.009917</ele>
        <time>2026-09-03T15:56:48.041Z</time>
      </trkpt>
      <trkpt lat="53.235213" lon="6.531057">
        <ele>0.877060</ele>
        <time>2026-09-03T15:56:51.040Z</time>
      </trkpt>
      <trkpt lat="53.235169" lon="6.530907">
        <ele>0.772503</ele>
        <time>2026-09-03T15:56:53.039Z</time>
      </trkpt>
      <trkpt lat="53.235133" lon="6.530750">
        <ele>0.667268</ele>
        <time>2026-09-03T15:56:55.039Z</time>
      </trkpt>
      <trkpt lat="53.235102" lon="6.530595">
        <ele>0.564977</ele>
        <time>2026-09-03T15:56:57.039Z</time>
      </trkpt>
      <trkpt lat="53.235055" lon="6.530461">
        <ele>0.467763</ele>
        <time>2026-09-03T15:56:59.039Z</time>
      </trkpt>
      <trkpt lat="53.235005" lon="6.530334">
        <ele>0.372615</ele>
        <time>2026-09-03T15:57:01.034Z</time>
      </trkpt>
      <trkpt lat="53.234954" lon="6.530198">
        <ele>0.272161</ele>
        <time>2026-09-03T15:57:04.038Z</time>
      </trkpt>
      <trkpt lat="53.234850" lon="6.530223">
        <ele>0.162282</ele>
        <time>2026-09-03T15:57:07.034Z</time>
      </trkpt>
      <trkpt lat="53.234732" lon="6.530302">
        <ele>0.029343</ele>
        <time>2026-09-03T15:57:10.037Z</time>
      </trkpt>
      <trkpt lat="53.234642" lon="6.530349">
        <ele>-0.069266</ele>
        <time>2026-09-03T15:57:12.045Z</time>
      </trkpt>
      <trkpt lat="53.234550" lon="6.530388">
        <ele>-0.070765</ele>
        <time>2026-09-03T15:57:14.045Z</time>
      </trkpt>
      <trkpt lat="53.234450" lon="6.530445">
        <ele>0.084414</ele>
        <time>2026-09-03T15:57:16.035Z</time>
      </trkpt>
      <trkpt lat="53.234338" lon="6.530499">
        <ele>0.255617</ele>
        <time>2026-09-03T15:57:18.035Z</time>
      </trkpt>
      <trkpt lat="53.234230" lon="6.530558">
        <ele>0.422498</ele>
        <time>2026-09-03T15:57:20.033Z</time>
      </trkpt>
      <trkpt lat="53.234123" lon="6.530615">
        <ele>0.587441</ele>
        <time>2026-09-03T15:57:22.033Z</time>
      </trkpt>
      <trkpt lat="53.234022" lon="6.530669">
        <ele>0.743187</ele>
        <time>2026-09-03T15:57:24.031Z</time>
      </trkpt>
      <trkpt lat="53.233913" lon="6.530737">
        <ele>0.914068</ele>
        <time>2026-09-03T15:57:26.035Z</time>
      </trkpt>
      <trkpt lat="53.233809" lon="6.530804">
        <ele>1.077772</ele>
        <time>2026-09-03T15:57:28.033Z</time>
      </trkpt>
      <trkpt lat="53.233710" lon="6.530865">
        <ele>1.232744</ele>
        <time>2026-09-03T15:57:30.045Z</time>
      </trkpt>
      <trkpt lat="53.233602" lon="6.530928">
        <ele>1.400751</ele>
        <time>2026-09-03T15:57:32.044Z</time>
      </trkpt>
      <trkpt lat="53.233496" lon="6.531010">
        <ele>1.572309</ele>
        <time>2026-09-03T15:57:34.045Z</time>
      </trkpt>
      <trkpt lat="53.233402" lon="6.531099">
        <ele>1.730992</ele>
        <time>2026-09-03T15:57:36.033Z</time>
      </trkpt>
      <trkpt lat="53.233308" lon="6.531198">
        <ele>1.894189</ele>
        <time>2026-09-03T15:57:38.045Z</time>
      </trkpt>
      <trkpt lat="53.233218" lon="6.531299">
        <ele>2.053421</ele>
        <time>2026-09-03T15:57:40.045Z</time>
      </trkpt>
      <trkpt lat="53.233132" lon="6.531424">
        <ele>2.220837</ele>
        <time>2026-09-03T15:57:42.038Z</time>
      </trkpt>
      <trkpt lat="53.233050" lon="6.531538">
        <ele>2.377512</ele>
        <time>2026-09-03T15:57:44.045Z</time>
      </trkpt>
      <trkpt lat="53.232967" lon="6.531661">
        <ele>2.502051</ele>
        <time>2026-09-03T15:57:46.032Z</time>
      </trkpt>
      <trkpt lat="53.232889" lon="6.531781">
        <ele>2.433856</ele>
        <time>2026-09-03T15:57:48.034Z</time>
      </trkpt>
      <trkpt lat="53.232813" lon="6.531906">
        <ele>2.365264</ele>
        <time>2026-09-03T15:57:50.037Z</time>
      </trkpt>
      <trkpt lat="53.232735" lon="6.532043">
        <ele>2.292475</ele>
        <time>2026-09-03T15:57:52.031Z</time>
      </trkpt>
      <trkpt lat="53.232660" lon="6.532173">
        <ele>2.222968</ele>
        <time>2026-09-03T15:57:54.036Z</time>
      </trkpt>
      <trkpt lat="53.232588" lon="6.532299">
        <ele>2.155907</ele>
        <time>2026-09-03T15:57:56.033Z</time>
      </trkpt>
      <trkpt lat="53.232513" lon="6.532442">
        <ele>2.082713</ele>
        <time>2026-09-03T15:57:58.035Z</time>
      </trkpt>
      <trkpt lat="53.232432" lon="6.532578">
        <ele>2.008855</ele>
        <time>2026-09-03T15:58:00.032Z</time>
      </trkpt>
      <trkpt lat="53.232347" lon="6.532703">
        <ele>1.936024</ele>
        <time>2026-09-03T15:58:02.037Z</time>
      </trkpt>
      <trkpt lat="53.232256" lon="6.532813">
        <ele>1.863784</ele>
        <time>2026-09-03T15:58:04.036Z</time>
      </trkpt>
      <trkpt lat="53.232161" lon="6.532893">
        <ele>1.795362</ele>
        <time>2026-09-03T15:58:06.033Z</time>
      </trkpt>
      <trkpt lat="53.232071" lon="6.532967">
        <ele>1.730848</ele>
        <time>2026-09-03T15:58:08.034Z</time>
      </trkpt>
      <trkpt lat="53.231974" lon="6.533023">
        <ele>1.664842</ele>
        <time>2026-09-03T15:58:10.044Z</time>
      </trkpt>
      <trkpt lat="53.231878" lon="6.533060">
        <ele>1.601478</ele>
        <time>2026-09-03T15:58:12.036Z</time>
      </trkpt>
      <trkpt lat="53.231771" lon="6.533055">
        <ele>1.532634</ele>
        <time>2026-09-03T15:58:14.037Z</time>
      </trkpt>
      <trkpt lat="53.231668" lon="6.533043">
        <ele>1.466229</ele>
        <time>2026-09-03T15:58:16.045Z</time>
      </trkpt>
      <trkpt lat="53.231560" lon="6.533034">
        <ele>1.396682</ele>
        <time>2026-09-03T15:58:18.045Z</time>
      </trkpt>
      <trkpt lat="53.231444" lon="6.533044">
        <ele>1.335958</ele>
        <time>2026-09-03T15:58:20.032Z</time>
      </trkpt>
      <trkpt lat="53.231335" lon="6.533058">
        <ele>1.293754</ele>
        <time>2026-09-03T15:58:22.046Z</time>
      </trkpt>
      <trkpt lat="53.231226" lon="6.533074">
        <ele>1.251513</ele>
        <time>2026-09-03T15:58:24.044Z</time>
      </trkpt>
      <trkpt lat="53.231119" lon="6.533107">
        <ele>1.209508</ele>
        <time>2026-09-03T15:58:26.037Z</time>
      </trkpt>
      <trkpt lat="53.231011" lon="6.533137">
        <ele>1.167243</ele>
        <time>2026-09-03T15:58:28.042Z</time>
      </trkpt>
      <trkpt lat="53.230895" lon="6.533159">
        <ele>1.122174</ele>
        <time>2026-09-03T15:58:30.045Z</time>
      </trkpt>
      <trkpt lat="53.230785" lon="6.533212">
        <ele>1.077978</ele>
        <time>2026-09-03T15:58:32.040Z</time>
      </trkpt>
      <trkpt lat="53.230674" lon="6.533255">
        <ele>1.033990</ele>
        <time>2026-09-03T15:58:34.036Z</time>
      </trkpt>
      <trkpt lat="53.230559" lon="6.533311">
        <ele>0.987747</ele>
        <time>2026-09-03T15:58:36.039Z</time>
      </trkpt>
      <trkpt lat="53.230452" lon="6.533364">
        <ele>0.944662</ele>
        <time>2026-09-03T15:58:38.045Z</time>
      </trkpt>
      <trkpt lat="53.230558" lon="6.533424">
        <ele>0.901456</ele>
        <time>2026-09-03T15:58:51.039Z</time>
      </trkpt>
      <trkpt lat="53.230660" lon="6.533406">
        <ele>0.861860</ele>
        <time>2026-09-03T15:58:54.039Z</time>
      </trkpt>
      <trkpt lat="53.230761" lon="6.533436">
        <ele>0.822258</ele>
        <time>2026-09-03T15:58:58.040Z</time>
      </trkpt>
      <trkpt lat="53.230703" lon="6.533554">
        <ele>0.786975</ele>
        <time>2026-09-03T15:59:05.038Z</time>
      </trkpt>
      <trkpt lat="53.230615" lon="6.533586">
        <ele>0.752207</ele>
        <time>2026-09-03T15:59:08.041Z</time>
      </trkpt>
      <trkpt lat="53.230517" lon="6.533621">
        <ele>0.713520</ele>
        <time>2026-09-03T15:59:11.034Z</time>
      </trkpt>
      <trkpt lat="53.230416" lon="6.533665">
        <ele>0.673225</ele>
        <time>2026-09-03T15:59:14.038Z</time>
      </trkpt>
      <trkpt lat="53.230308" lon="6.533720">
        <ele>0.676495</ele>
        <time>2026-09-03T15:59:18.039Z</time>
      </trkpt>
      <trkpt lat="53.230199" lon="6.533777">
        <ele>0.695101</ele>
        <time>2026-09-03T15:59:22.038Z</time>
      </trkpt>
      <trkpt lat="53.230095" lon="6.533818">
        <ele>0.712509</ele>
        <time>2026-09-03T15:59:26.039Z</time>
      </trkpt>
      <trkpt lat="53.230014" lon="6.533917">
        <ele>0.728858</ele>
        <time>2026-09-03T15:59:34.038Z</time>
      </trkpt>
      <trkpt lat="53.229921" lon="6.533958">
        <ele>0.744527</ele>
        <time>2026-09-03T15:59:40.038Z</time>
      </trkpt>
      <trkpt lat="53.229818" lon="6.534012">
        <ele>0.762114</ele>
        <time>2026-09-03T15:59:45.039Z</time>
      </trkpt>
      <trkpt lat="53.229771" lon="6.534257">
        <ele>0.787202</ele>
        <time>2026-09-03T16:00:07.039Z</time>
      </trkpt>
      <trkpt lat="53.229689" lon="6.534352">
        <ele>0.803458</ele>
        <time>2026-09-03T16:00:15.039Z</time>
      </trkpt>
      <trkpt lat="53.229617" lon="6.534459">
        <ele>0.819157</ele>
        <time>2026-09-03T16:00:19.037Z</time>
      </trkpt>
      <trkpt lat="53.229548" lon="6.534570">
        <ele>0.834762</ele>
        <time>2026-09-03T16:00:22.039Z</time>
      </trkpt>
      <trkpt lat="53.229458" lon="6.534644">
        <ele>0.851103</ele>
        <time>2026-09-03T16:00:25.039Z</time>
      </trkpt>
      <trkpt lat="53.229369" lon="6.534708">
        <ele>0.866888</ele>
        <time>2026-09-03T16:00:28.039Z</time>
      </trkpt>
      <trkpt lat="53.229262" lon="6.534765">
        <ele>0.885184</ele>
        <time>2026-09-03T16:00:32.033Z</time>
      </trkpt>
      <trkpt lat="53.229168" lon="6.534784">
        <ele>0.900609</ele>
        <time>2026-09-03T16:00:35.040Z</time>
      </trkpt>
      <trkpt lat="53.229070" lon="6.534831">
        <ele>0.917219</ele>
        <time>2026-09-03T16:00:38.038Z</time>
      </trkpt>
      <trkpt lat="53.228990" lon="6.534915">
        <ele>0.932612</ele>
        <time>2026-09-03T16:00:41.041Z</time>
      </trkpt>
      <trkpt lat="53.228904" lon="6.535041">
        <ele>0.951247</ele>
        <time>2026-09-03T16:00:45.038Z</time>
      </trkpt>
      <trkpt lat="53.228814" lon="6.535121">
        <ele>1.009256</ele>
        <time>2026-09-03T16:00:48.034Z</time>
      </trkpt>
      <trkpt lat="53.228711" lon="6.535146">
        <ele>1.083491</ele>
        <time>2026-09-03T16:00:51.044Z</time>
      </trkpt>
      <trkpt lat="53.228613" lon="6.535248">
        <ele>1.165847</ele>
        <time>2026-09-03T16:00:55.035Z</time>
      </trkpt>
      <trkpt lat="53.228507" lon="6.535337">
        <ele>1.250463</ele>
        <time>2026-09-03T16:00:59.037Z</time>
      </trkpt>
      <trkpt lat="53.228413" lon="6.535377">
        <ele>1.319650</ele>
        <time>2026-09-03T16:01:02.031Z</time>
      </trkpt>
      <trkpt lat="53.228321" lon="6.535428">
        <ele>1.388787</ele>
        <time>2026-09-03T16:01:05.031Z</time>
      </trkpt>
      <trkpt lat="53.228225" lon="6.535484">
        <ele>1.461313</ele>
        <time>2026-09-03T16:01:08.035Z</time>
      </trkpt>
      <trkpt lat="53.228125" lon="6.535539">
        <ele>1.536405</ele>
        <time>2026-09-03T16:01:11.033Z</time>
      </trkpt>
      <trkpt lat="53.228020" lon="6.535583">
        <ele>1.613616</ele>
        <time>2026-09-03T16:01:14.045Z</time>
      </trkpt>
      <trkpt lat="53.227922" lon="6.535632">
        <ele>1.686578</ele>
        <time>2026-09-03T16:01:17.045Z</time>
      </trkpt>
      <trkpt lat="53.227826" lon="6.535681">
        <ele>1.758175</ele>
        <time>2026-09-03T16:01:20.034Z</time>
      </trkpt>
      <trkpt lat="53.227725" lon="6.535737">
        <ele>1.834077</ele>
        <time>2026-09-03T16:01:23.038Z</time>
      </trkpt>
      <trkpt lat="53.227636" lon="6.535786">
        <ele>1.900915</ele>
        <time>2026-09-03T16:01:29.031Z</time>
      </trkpt>
      <trkpt lat="53.227647" lon="6.535961">
        <ele>1.976047</ele>
        <time>2026-09-03T16:01:35.045Z</time>
      </trkpt>
      <trkpt lat="53.227592" lon="6.536092">
        <ele>2.044366</ele>
        <time>2026-09-03T16:01:41.031Z</time>
      </trkpt>
      <trkpt lat="53.227504" lon="6.536147">
        <ele>2.111381</ele>
        <time>2026-09-03T16:01:55.034Z</time>
      </trkpt>
      <trkpt lat="53.227333" lon="6.536231">
        <ele>2.238492</ele>
        <time>2026-09-03T16:02:12.039Z</time>
      </trkpt>
      <trkpt lat="53.227254" lon="6.536090">
        <ele>2.278651</ele>
        <time>2026-09-03T16:02:15.034Z</time>
      </trkpt>
      <trkpt lat="53.227173" lon="6.535934">
        <ele>2.321592</ele>
        <time>2026-09-03T16:02:18.034Z</time>
      </trkpt>
      <trkpt lat="53.227064" lon="6.535927">
        <ele>2.359483</ele>
        <time>2026-09-03T16:02:21.033Z</time>
      </trkpt>
      <trkpt lat="53.226980" lon="6.535983">
        <ele>2.390899</ele>
        <time>2026-09-03T16:02:23.037Z</time>
      </trkpt>
      <trkpt lat="53.226887" lon="6.536043">
        <ele>2.425529</ele>
        <time>2026-09-03T16:02:25.038Z</time>
      </trkpt>
      <trkpt lat="53.226798" lon="6.536115">
        <ele>2.459879</ele>
        <time>2026-09-03T16:02:27.045Z</time>
      </trkpt>
      <trkpt lat="53.226706" lon="6.536193">
        <ele>2.495717</ele>
        <time>2026-09-03T16:02:29.037Z</time>
      </trkpt>
      <trkpt lat="53.226603" lon="6.536263">
        <ele>2.534342</ele>
        <time>2026-09-03T16:02:31.045Z</time>
      </trkpt>
      <trkpt lat="53.226504" lon="6.536333">
        <ele>2.571685</ele>
        <time>2026-09-03T16:02:33.035Z</time>
      </trkpt>
      <trkpt lat="53.226408" lon="6.536401">
        <ele>2.607906</ele>
        <time>2026-09-03T16:02:35.045Z</time>
      </trkpt>
      <trkpt lat="53.226315" lon="6.536482">
        <ele>2.644338</ele>
        <time>2026-09-03T16:02:37.031Z</time>
      </trkpt>
      <trkpt lat="53.226215" lon="6.536551">
        <ele>2.681921</ele>
        <time>2026-09-03T16:02:39.038Z</time>
      </trkpt>
      <trkpt lat="53.226122" lon="6.536635">
        <ele>2.718646</ele>
        <time>2026-09-03T16:02:41.045Z</time>
      </trkpt>
      <trkpt lat="53.226020" lon="6.536709">
        <ele>2.757274</ele>
        <time>2026-09-03T16:02:43.035Z</time>
      </trkpt>
      <trkpt lat="53.225919" lon="6.536786">
        <ele>2.795839</ele>
        <time>2026-09-03T16:02:45.036Z</time>
      </trkpt>
      <trkpt lat="53.225811" lon="6.536852">
        <ele>2.835785</ele>
        <time>2026-09-03T16:02:47.046Z</time>
      </trkpt>
      <trkpt lat="53.225697" lon="6.536930">
        <ele>2.845216</ele>
        <time>2026-09-03T16:02:49.045Z</time>
      </trkpt>
      <trkpt lat="53.225588" lon="6.537008">
        <ele>2.796733</ele>
        <time>2026-09-03T16:02:51.035Z</time>
      </trkpt>
      <trkpt lat="53.225483" lon="6.537088">
        <ele>2.749548</ele>
        <time>2026-09-03T16:02:53.045Z</time>
      </trkpt>
      <trkpt lat="53.225396" lon="6.537168">
        <ele>2.708944</ele>
        <time>2026-09-03T16:02:55.045Z</time>
      </trkpt>
      <trkpt lat="53.225314" lon="6.537251">
        <ele>2.669742</ele>
        <time>2026-09-03T16:02:57.039Z</time>
      </trkpt>
      <trkpt lat="53.225222" lon="6.537329">
        <ele>2.627560</ele>
        <time>2026-09-03T16:02:59.040Z</time>
      </trkpt>
      <trkpt lat="53.225133" lon="6.537419">
        <ele>2.585022</ele>
        <time>2026-09-03T16:03:01.038Z</time>
      </trkpt>
      <trkpt lat="53.225031" lon="6.537506">
        <ele>2.538197</ele>
        <time>2026-09-03T16:03:03.040Z</time>
      </trkpt>
      <trkpt lat="53.224931" lon="6.537604">
        <ele>2.490794</ele>
        <time>2026-09-03T16:03:05.038Z</time>
      </trkpt>
      <trkpt lat="53.224833" lon="6.537699">
        <ele>2.444467</ele>
        <time>2026-09-03T16:03:07.037Z</time>
      </trkpt>
      <trkpt lat="53.224741" lon="6.537808">
        <ele>2.398350</ele>
        <time>2026-09-03T16:03:09.038Z</time>
      </trkpt>
      <trkpt lat="53.224654" lon="6.537936">
        <ele>2.350949</ele>
        <time>2026-09-03T16:03:11.032Z</time>
      </trkpt>
      <trkpt lat="53.224578" lon="6.538068">
        <ele>2.306122</ele>
        <time>2026-09-03T16:03:13.038Z</time>
      </trkpt>
      <trkpt lat="53.224512" lon="6.538186">
        <ele>2.266594</ele>
        <time>2026-09-03T16:03:15.036Z</time>
      </trkpt>
      <trkpt lat="53.224453" lon="6.538307">
        <ele>2.228396</ele>
        <time>2026-09-03T16:03:17.040Z</time>
      </trkpt>
      <trkpt lat="53.224363" lon="6.538408">
        <ele>2.184065</ele>
        <time>2026-09-03T16:03:19.054Z</time>
      </trkpt>
      <trkpt lat="53.224263" lon="6.538466">
        <ele>2.140784</ele>
        <time>2026-09-03T16:03:21.039Z</time>
      </trkpt>
      <trkpt lat="53.224167" lon="6.538512">
        <ele>2.109517</ele>
        <time>2026-09-03T16:03:23.040Z</time>
      </trkpt>
      <trkpt lat="53.224036" lon="6.538593">
        <ele>2.071976</ele>
        <time>2026-09-03T16:03:26.054Z</time>
      </trkpt>
      <trkpt lat="53.223940" lon="6.538665">
        <ele>2.043695</ele>
        <time>2026-09-03T16:03:28.056Z</time>
      </trkpt>
      <trkpt lat="53.223839" lon="6.538749">
        <ele>2.013372</ele>
        <time>2026-09-03T16:03:30.054Z</time>
      </trkpt>
      <trkpt lat="53.223745" lon="6.538872">
        <ele>1.981281</ele>
        <time>2026-09-03T16:03:32.040Z</time>
      </trkpt>
      <trkpt lat="53.223669" lon="6.539036">
        <ele>1.947913</ele>
        <time>2026-09-03T16:03:34.040Z</time>
      </trkpt>
      <trkpt lat="53.223608" lon="6.539202">
        <ele>1.916574</ele>
        <time>2026-09-03T16:03:36.040Z</time>
      </trkpt>
      <trkpt lat="53.223542" lon="6.539339">
        <ele>1.888281</ele>
        <time>2026-09-03T16:03:38.035Z</time>
      </trkpt>
      <trkpt lat="53.223458" lon="6.539474">
        <ele>1.856953</ele>
        <time>2026-09-03T16:03:40.039Z</time>
      </trkpt>
      <trkpt lat="53.223366" lon="6.539595">
        <ele>1.825483</ele>
        <time>2026-09-03T16:03:42.040Z</time>
      </trkpt>
      <trkpt lat="53.223284" lon="6.539705">
        <ele>1.797218</ele>
        <time>2026-09-03T16:03:44.037Z</time>
      </trkpt>
      <trkpt lat="53.223204" lon="6.539804">
        <ele>1.770461</ele>
        <time>2026-09-03T16:03:46.038Z</time>
      </trkpt>
      <trkpt lat="53.223116" lon="6.539906">
        <ele>1.741674</ele>
        <time>2026-09-03T16:03:48.038Z</time>
      </trkpt>
      <trkpt lat="53.223035" lon="6.540019">
        <ele>1.713311</ele>
        <time>2026-09-03T16:03:50.037Z</time>
      </trkpt>
      <trkpt lat="53.222942" lon="6.540134">
        <ele>1.682214</ele>
        <time>2026-09-03T16:03:52.033Z</time>
      </trkpt>
      <trkpt lat="53.222853" lon="6.540247">
        <ele>1.652169</ele>
        <time>2026-09-03T16:03:54.039Z</time>
      </trkpt>
      <trkpt lat="53.222767" lon="6.540369">
        <ele>1.733579</ele>
        <time>2026-09-03T16:03:56.040Z</time>
      </trkpt>
      <trkpt lat="53.222686" lon="6.540460">
        <ele>1.836835</ele>
        <time>2026-09-03T16:03:58.041Z</time>
      </trkpt>
      <trkpt lat="53.222594" lon="6.540552">
        <ele>1.950256</ele>
        <time>2026-09-03T16:04:00.035Z</time>
      </trkpt>
      <trkpt lat="53.222500" lon="6.540638">
        <ele>2.063623</ele>
        <time>2026-09-03T16:04:02.039Z</time>
      </trkpt>
      <trkpt lat="53.222396" lon="6.540718">
        <ele>2.184735</ele>
        <time>2026-09-03T16:04:04.039Z</time>
      </trkpt>
      <trkpt lat="53.222289" lon="6.540784">
        <ele>2.305385</ele>
        <time>2026-09-03T16:04:06.038Z</time>
      </trkpt>
      <trkpt lat="53.222184" lon="6.540852">
        <ele>2.424505</ele>
        <time>2026-09-03T16:04:08.039Z</time>
      </trkpt>
      <trkpt lat="53.222090" lon="6.540934">
        <ele>2.536678</ele>
        <time>2026-09-03T16:04:10.038Z</time>
      </trkpt>
      <trkpt lat="53.222000" lon="6.541026">
        <ele>2.648289</ele>
        <time>2026-09-03T16:04:12.037Z</time>
      </trkpt>
      <trkpt lat="53.221916" lon="6.541138">
        <ele>2.761979</ele>
        <time>2026-09-03T16:04:14.037Z</time>
      </trkpt>
      <trkpt lat="53.221833" lon="6.541261">
        <ele>2.879347</ele>
        <time>2026-09-03T16:04:16.046Z</time>
      </trkpt>
      <trkpt lat="53.221766" lon="6.541398">
        <ele>2.991374</ele>
        <time>2026-09-03T16:04:18.039Z</time>
      </trkpt>
      <trkpt lat="53.221704" lon="6.541519">
        <ele>3.092234</ele>
        <time>2026-09-03T16:04:20.048Z</time>
      </trkpt>
      <trkpt lat="53.221613" lon="6.541601">
        <ele>3.201604</ele>
        <time>2026-09-03T16:04:23.039Z</time>
      </trkpt>
      <trkpt lat="53.221547" lon="6.541472">
        <ele>3.309065</ele>
        <time>2026-09-03T16:04:27.033Z</time>
      </trkpt>
      <trkpt lat="53.221468" lon="6.541324">
        <ele>3.434634</ele>
        <time>2026-09-03T16:04:31.036Z</time>
      </trkpt>
      <trkpt lat="53.221387" lon="6.541191">
        <ele>3.536477</ele>
        <time>2026-09-03T16:04:35.039Z</time>
      </trkpt>
      <trkpt lat="53.221418" lon="6.541014">
        <ele>3.378642</ele>
        <time>2026-09-03T16:04:40.040Z</time>
      </trkpt>
      <trkpt lat="53.221494" lon="6.540909">
        <ele>3.237652</ele>
        <time>2026-09-03T16:04:43.038Z</time>
      </trkpt>
      <trkpt lat="53.221566" lon="6.540793">
        <ele>3.094652</ele>
        <time>2026-09-03T16:04:46.038Z</time>
      </trkpt>
      <trkpt lat="53.221631" lon="6.540669">
        <ele>2.953599</ele>
        <time>2026-09-03T16:04:49.038Z</time>
      </trkpt>
      <trkpt lat="53.221615" lon="6.540512">
        <ele>2.817298</ele>
        <time>2026-09-03T16:04:52.033Z</time>
      </trkpt>
      <trkpt lat="53.221597" lon="6.540353">
        <ele>2.678806</ele>
        <time>2026-09-03T16:04:55.039Z</time>
      </trkpt>
      <trkpt lat="53.221551" lon="6.540214">
        <ele>2.542879</ele>
        <time>2026-09-03T16:04:58.039Z</time>
      </trkpt>
      <trkpt lat="53.221492" lon="6.540067">
        <ele>2.391415</ele>
        <time>2026-09-03T16:05:01.038Z</time>
      </trkpt>
      <trkpt lat="53.221439" lon="6.539909">
        <ele>2.236413</ele>
        <time>2026-09-03T16:05:04.038Z</time>
      </trkpt>
      <trkpt lat="53.221384" lon="6.539780">
        <ele>2.100875</ele>
        <time>2026-09-03T16:05:08.038Z</time>
      </trkpt>
      <trkpt lat="53.221280" lon="6.539786">
        <ele>1.952122</ele>
        <time>2026-09-03T16:05:12.053Z</time>
      </trkpt>
      <trkpt lat="53.221186" lon="6.539880">
        <ele>1.795509</ele>
        <time>2026-09-03T16:05:15.038Z</time>
      </trkpt>
      <trkpt lat="53.221113" lon="6.539973">
        <ele>1.664267</ele>
        <time>2026-09-03T16:05:17.040Z</time>
      </trkpt>
      <trkpt lat="53.221009" lon="6.540070">
        <ele>1.493993</ele>
        <time>2026-09-03T16:05:19.039Z</time>
      </trkpt>
      <trkpt lat="53.220922" lon="6.540154">
        <ele>1.350345</ele>
        <time>2026-09-03T16:05:21.039Z</time>
      </trkpt>
      <trkpt lat="53.220841" lon="6.540281">
        <ele>1.191533</ele>
        <time>2026-09-03T16:05:24.038Z</time>
      </trkpt>
      <trkpt lat="53.220778" lon="6.540405">
        <ele>1.052346</ele>
        <time>2026-09-03T16:05:27.039Z</time>
      </trkpt>
      <trkpt lat="53.220681" lon="6.540553">
        <ele>0.994050</ele>
        <time>2026-09-03T16:05:30.038Z</time>
      </trkpt>
      <trkpt lat="53.220555" lon="6.540632">
        <ele>1.025411</ele>
        <time>2026-09-03T16:05:33.041Z</time>
      </trkpt>
      <trkpt lat="53.220460" lon="6.540648">
        <ele>1.047660</ele>
        <time>2026-09-03T16:05:35.039Z</time>
      </trkpt>
      <trkpt lat="53.220363" lon="6.540616">
        <ele>1.070700</ele>
        <time>2026-09-03T16:05:37.039Z</time>
      </trkpt>
      <trkpt lat="53.220236" lon="6.540614">
        <ele>1.100294</ele>
        <time>2026-09-03T16:05:40.040Z</time>
      </trkpt>
      <trkpt lat="53.220172" lon="6.540800">
        <ele>1.130225</ele>
        <time>2026-09-03T16:05:43.036Z</time>
      </trkpt>
      <trkpt lat="53.220109" lon="6.540927">
        <ele>1.153235</ele>
        <time>2026-09-03T16:05:45.038Z</time>
      </trkpt>
      <trkpt lat="53.220040" lon="6.541033">
        <ele>1.175080</ele>
        <time>2026-09-03T16:05:47.038Z</time>
      </trkpt>
      <trkpt lat="53.219972" lon="6.541149">
        <ele>1.197729</ele>
        <time>2026-09-03T16:05:49.038Z</time>
      </trkpt>
      <trkpt lat="53.219909" lon="6.541261">
        <ele>1.219170</ele>
        <time>2026-09-03T16:05:51.033Z</time>
      </trkpt>
      <trkpt lat="53.219831" lon="6.541392">
        <ele>1.244945</ele>
        <time>2026-09-03T16:05:53.054Z</time>
      </trkpt>
      <trkpt lat="53.219745" lon="6.541499">
        <ele>1.269934</ele>
        <time>2026-09-03T16:05:55.039Z</time>
      </trkpt>
      <trkpt lat="53.219656" lon="6.541627">
        <ele>1.297302</ele>
        <time>2026-09-03T16:05:57.040Z</time>
      </trkpt>
      <trkpt lat="53.219557" lon="6.541768">
        <ele>1.327620</ele>
        <time>2026-09-03T16:05:59.038Z</time>
      </trkpt>
      <trkpt lat="53.219469" lon="6.541902">
        <ele>1.355369</ele>
        <time>2026-09-03T16:06:01.039Z</time>
      </trkpt>
      <trkpt lat="53.219381" lon="6.542029">
        <ele>1.382470</ele>
        <time>2026-09-03T16:06:03.039Z</time>
      </trkpt>
      <trkpt lat="53.219290" lon="6.542162">
        <ele>1.477153</ele>
        <time>2026-09-03T16:06:05.038Z</time>
      </trkpt>
      <trkpt lat="53.219206" lon="6.542298">
        <ele>1.620388</ele>
        <time>2026-09-03T16:06:07.041Z</time>
      </trkpt>
      <trkpt lat="53.219117" lon="6.542437">
        <ele>1.769573</ele>
        <time>2026-09-03T16:06:09.038Z</time>
      </trkpt>
      <trkpt lat="53.219029" lon="6.542579">
        <ele>1.919386</ele>
        <time>2026-09-03T16:06:11.039Z</time>
      </trkpt>
      <trkpt lat="53.218949" lon="6.542735">
        <ele>2.069956</ele>
        <time>2026-09-03T16:06:13.038Z</time>
      </trkpt>
      <trkpt lat="53.218880" lon="6.542841">
        <ele>2.184737</ele>
        <time>2026-09-03T16:06:15.038Z</time>
      </trkpt>
      <trkpt lat="53.218846" lon="6.542989">
        <ele>2.300944</ele>
        <time>2026-09-03T16:06:20.037Z</time>
      </trkpt>
      <trkpt lat="53.218900" lon="6.543127">
        <ele>2.421795</ele>
        <time>2026-09-03T16:06:24.037Z</time>
      </trkpt>
      <trkpt lat="53.218990" lon="6.543251">
        <ele>2.564640</ele>
        <time>2026-09-03T16:06:28.031Z</time>
      </trkpt>
      <trkpt lat="53.219059" lon="6.543376">
        <ele>2.689273</ele>
        <time>2026-09-03T16:06:32.045Z</time>
      </trkpt>
      <trkpt lat="53.219132" lon="6.543493">
        <ele>2.813145</ele>
        <time>2026-09-03T16:06:37.045Z</time>
      </trkpt>
      <trkpt lat="53.219201" lon="6.543603">
        <ele>2.929931</ele>
        <time>2026-09-03T16:06:40.032Z</time>
      </trkpt>
      <trkpt lat="53.219274" lon="6.543713">
        <ele>3.050307</ele>
        <time>2026-09-03T16:06:43.031Z</time>
      </trkpt>
      <trkpt lat="53.219287" lon="6.543891">
        <ele>3.181760</ele>
        <time>2026-09-03T16:06:47.045Z</time>
      </trkpt>
      <trkpt lat="53.219206" lon="6.544020">
        <ele>3.318790</ele>
        <time>2026-09-03T16:06:50.034Z</time>
      </trkpt>
      <trkpt lat="53.219117" lon="6.544160">
        <ele>3.468477</ele>
        <time>2026-09-03T16:06:53.045Z</time>
      </trkpt>
      <trkpt lat="53.219029" lon="6.544306">
        <ele>3.580384</ele>
        <time>2026-09-03T16:06:56.044Z</time>
      </trkpt>
      <trkpt lat="53.218945" lon="6.544436">
        <ele>3.479233</ele>
        <time>2026-09-03T16:06:59.045Z</time>
      </trkpt>
      <trkpt lat="53.218870" lon="6.544572">
        <ele>3.381450</ele>
        <time>2026-09-03T16:07:02.044Z</time>
      </trkpt>
      <trkpt lat="53.218793" lon="6.544690">
        <ele>3.289147</ele>
        <time>2026-09-03T16:07:05.033Z</time>
      </trkpt>
      <trkpt lat="53.218712" lon="6.544821">
        <ele>3.189555</ele>
        <time>2026-09-03T16:07:08.044Z</time>
      </trkpt>
      <trkpt lat="53.218624" lon="6.544952">
        <ele>3.085434</ele>
        <time>2026-09-03T16:07:11.035Z</time>
      </trkpt>
      <trkpt lat="53.218537" lon="6.545099">
        <ele>2.976123</ele>
        <time>2026-09-03T16:07:14.045Z</time>
      </trkpt>
      <trkpt lat="53.218458" lon="6.545234">
        <ele>2.876291</ele>
        <time>2026-09-03T16:07:17.038Z</time>
      </trkpt>
      <trkpt lat="53.218353" lon="6.545163">
        <ele>2.776236</ele>
        <time>2026-09-03T16:07:21.039Z</time>
      </trkpt>
      <trkpt lat="53.218312" lon="6.545007">
        <ele>2.686134</ele>
        <time>2026-09-03T16:07:24.036Z</time>
      </trkpt>
      <trkpt lat="53.218257" lon="6.544877">
        <ele>2.601951</ele>
        <time>2026-09-03T16:07:27.037Z</time>
      </trkpt>
      <trkpt lat="53.218205" lon="6.544741">
        <ele>2.516611</ele>
        <time>2026-09-03T16:07:32.038Z</time>
      </trkpt>
      <trkpt lat="53.218138" lon="6.544629">
        <ele>2.432881</ele>
        <time>2026-09-03T16:07:36.037Z</time>
      </trkpt>
      <trkpt lat="53.218048" lon="6.544657">
        <ele>2.352020</ele>
        <time>2026-09-03T16:07:42.038Z</time>
      </trkpt>
      <trkpt lat="53.217955" lon="6.544748">
        <ele>2.256817</ele>
        <time>2026-09-03T16:07:46.040Z</time>
      </trkpt>
      <trkpt lat="53.217873" lon="6.544875">
        <ele>2.158039</ele>
        <time>2026-09-03T16:07:49.031Z</time>
      </trkpt>
      <trkpt lat="53.217795" lon="6.544993">
        <ele>2.065082</ele>
        <time>2026-09-03T16:07:52.039Z</time>
      </trkpt>
      <trkpt lat="53.217695" lon="6.544987">
        <ele>2.012871</ele>
        <time>2026-09-03T16:08:09.031Z</time>
      </trkpt>
      <trkpt lat="53.217622" lon="6.544850">
        <ele>2.026337</ele>
        <time>2026-09-03T16:08:13.037Z</time>
      </trkpt>
      <trkpt lat="53.217549" lon="6.544724">
        <ele>2.039211</ele>
        <time>2026-09-03T16:08:16.036Z</time>
      </trkpt>
      <trkpt lat="53.217479" lon="6.544573">
        <ele>2.053233</ele>
        <time>2026-09-03T16:08:19.037Z</time>
      </trkpt>
      <trkpt lat="53.217411" lon="6.544425">
        <ele>2.066931</ele>
        <time>2026-09-03T16:08:22.036Z</time>
      </trkpt>
      <trkpt lat="53.217356" lon="6.544279">
        <ele>2.079596</ele>
        <time>2026-09-03T16:08:25.036Z</time>
      </trkpt>
      <trkpt lat="53.217341" lon="6.544094">
        <ele>2.093304</ele>
        <time>2026-09-03T16:08:29.032Z</time>
      </trkpt>
      <trkpt lat="53.217302" lon="6.543934">
        <ele>2.105989</ele>
        <time>2026-09-03T16:08:34.036Z</time>
      </trkpt>
      <trkpt lat="53.217205" lon="6.543952">
        <ele>2.117957</ele>
        <time>2026-09-03T16:08:37.035Z</time>
      </trkpt>
      <trkpt lat="53.217096" lon="6.544030">
        <ele>2.132499</ele>
        <time>2026-09-03T16:08:40.036Z</time>
      </trkpt>
      <trkpt lat="53.216996" lon="6.544109">
        <ele>2.146065</ele>
        <time>2026-09-03T16:08:43.038Z</time>
      </trkpt>
      <trkpt lat="53.216889" lon="6.544180">
        <ele>2.160184</ele>
        <time>2026-09-03T16:08:46.039Z</time>
      </trkpt>
      <trkpt lat="53.216768" lon="6.544259">
        <ele>2.176115</ele>
        <time>2026-09-03T16:08:49.045Z</time>
      </trkpt>
      <trkpt lat="53.216652" lon="6.544348">
        <ele>2.191769</ele>
        <time>2026-09-03T16:08:52.034Z</time>
      </trkpt>
      <trkpt lat="53.216534" lon="6.544441">
        <ele>2.207770</ele>
        <time>2026-09-03T16:08:55.030Z</time>
      </trkpt>
      <trkpt lat="53.216417" lon="6.544544">
        <ele>2.223989</ele>
        <time>2026-09-03T16:08:58.034Z</time>
      </trkpt>
      <trkpt lat="53.216304" lon="6.544624">
        <ele>2.226949</ele>
        <time>2026-09-03T16:09:01.044Z</time>
      </trkpt>
      <trkpt lat="53.216201" lon="6.544673">
        <ele>2.224225</ele>
        <time>2026-09-03T16:09:05.045Z</time>
      </trkpt>
      <trkpt lat="53.216107" lon="6.544709">
        <ele>2.221772</ele>
        <time>2026-09-03T16:09:12.045Z</time>
      </trkpt>
      <trkpt lat="53.216002" lon="6.544772">
        <ele>2.218934</ele>
        <time>2026-09-03T16:09:17.033Z</time>
      </trkpt>
      <trkpt lat="53.215941" lon="6.544605">
        <ele>2.215955</ele>
        <time>2026-09-03T16:09:22.045Z</time>
      </trkpt>
      <trkpt lat="53.215912" lon="6.544460">
        <ele>2.213626</ele>
        <time>2026-09-03T16:09:25.030Z</time>
      </trkpt>
      <trkpt lat="53.215871" lon="6.544279">
        <ele>2.210679</ele>
        <time>2026-09-03T16:09:29.032Z</time>
      </trkpt>
      <trkpt lat="53.215817" lon="6.544106">
        <ele>2.207707</ele>
        <time>2026-09-03T16:09:33.033Z</time>
      </trkpt>
      <trkpt lat="53.215771" lon="6.543967">
        <ele>2.205288</ele>
        <time>2026-09-03T16:09:37.034Z</time>
      </trkpt>
      <trkpt lat="53.215666" lon="6.544015">
        <ele>2.202519</ele>
        <time>2026-09-03T16:09:42.033Z</time>
      </trkpt>
      <trkpt lat="53.215584" lon="6.544136">
        <ele>2.199736</ele>
        <time>2026-09-03T16:09:46.031Z</time>
      </trkpt>
      <trkpt lat="53.215492" lon="6.544263">
        <ele>2.196700</ele>
        <time>2026-09-03T16:09:50.032Z</time>
      </trkpt>
      <trkpt lat="53.215404" lon="6.544310">
        <ele>2.194350</ele>
        <time>2026-09-03T16:09:53.032Z</time>
      </trkpt>
      <trkpt lat="53.215323" lon="6.544227">
        <ele>2.191933</ele>
        <time>2026-09-03T16:09:57.045Z</time>
      </trkpt>
      <trkpt lat="53.215280" lon="6.544061">
        <ele>2.189178</ele>
        <time>2026-09-03T16:10:01.032Z</time>
      </trkpt>
      <trkpt lat="53.215193" lon="6.544107">
        <ele>2.186857</ele>
        <time>2026-09-03T16:10:12.046Z</time>
      </trkpt>
      <trkpt lat="53.215097" lon="6.544057">
        <ele>2.184299</ele>
        <time>2026-09-03T16:10:20.032Z</time>
      </trkpt>
      <trkpt lat="53.215034" lon="6.544170">
        <ele>2.218513</ele>
        <time>2026-09-03T16:10:30.033Z</time>
      </trkpt>
      <trkpt lat="53.214965" lon="6.544279">
        <ele>2.282566</ele>
        <time>2026-09-03T16:10:37.033Z</time>
      </trkpt>
      <trkpt lat="53.214869" lon="6.544274">
        <ele>2.347338</ele>
        <time>2026-09-03T16:10:43.033Z</time>
      </trkpt>
      <trkpt lat="53.214782" lon="6.544311">
        <ele>2.407882</ele>
        <time>2026-09-03T16:10:49.046Z</time>
      </trkpt>
      <trkpt lat="53.214694" lon="6.544350">
        <ele>2.469281</ele>
        <time>2026-09-03T16:10:55.045Z</time>
      </trkpt>
      <trkpt lat="53.214662" lon="6.544533">
        <ele>2.546269</ele>
        <time>2026-09-03T16:10:59.031Z</time>
      </trkpt>
      <trkpt lat="53.214678" lon="6.544683">
        <ele>2.607797</ele>
        <time>2026-09-03T16:11:02.033Z</time>
      </trkpt>
      <trkpt lat="53.214715" lon="6.544838">
        <ele>2.675181</ele>
        <time>2026-09-03T16:11:05.035Z</time>
      </trkpt>
      <trkpt lat="53.214745" lon="6.545010">
        <ele>2.747526</ele>
        <time>2026-09-03T16:11:08.044Z</time>
      </trkpt>
      <trkpt lat="53.214791" lon="6.545195">
        <ele>2.828419</ele>
        <time>2026-09-03T16:11:11.045Z</time>
      </trkpt>
      <trkpt lat="53.214836" lon="6.545365">
        <ele>2.903478</ele>
        <time>2026-09-03T16:11:14.045Z</time>
      </trkpt>
      <trkpt lat="53.214881" lon="6.545544">
        <ele>2.981876</ele>
        <time>2026-09-03T16:11:17.037Z</time>
      </trkpt>
      <trkpt lat="53.214911" lon="6.545723">
        <ele>3.056939</ele>
        <time>2026-09-03T16:11:20.032Z</time>
      </trkpt>
      <trkpt lat="53.214867" lon="6.545859">
        <ele>3.119363</ele>
        <time>2026-09-03T16:11:23.037Z</time>
      </trkpt>
      <trkpt lat="53.214758" lon="6.545926">
        <ele>3.197692</ele>
        <time>2026-09-03T16:11:26.032Z</time>
      </trkpt>
      <trkpt lat="53.214660" lon="6.546004">
        <ele>3.270903</ele>
        <time>2026-09-03T16:11:29.031Z</time>
      </trkpt>
      <trkpt lat="53.214555" lon="6.546087">
        <ele>3.349246</ele>
        <time>2026-09-03T16:11:32.033Z</time>
      </trkpt>
      <trkpt lat="53.214454" lon="6.546158">
        <ele>3.381723</ele>
        <time>2026-09-03T16:11:35.045Z</time>
      </trkpt>
      <trkpt lat="53.214365" lon="6.546232">
        <ele>3.345529</ele>
        <time>2026-09-03T16:11:38.035Z</time>
      </trkpt>
      <trkpt lat="53.214281" lon="6.546301">
        <ele>3.311450</ele>
        <time>2026-09-03T16:11:41.030Z</time>
      </trkpt>
      <trkpt lat="53.214246" lon="6.546444">
        <ele>3.277773</ele>
        <time>2026-09-03T16:11:45.045Z</time>
      </trkpt>
      <trkpt lat="53.214156" lon="6.546507">
        <ele>3.242248</ele>
        <time>2026-09-03T16:12:06.045Z</time>
      </trkpt>
      <trkpt lat="53.214072" lon="6.546576">
        <ele>3.208169</ele>
        <time>2026-09-03T16:12:09.048Z</time>
      </trkpt>
      <trkpt lat="53.213967" lon="6.546640">
        <ele>3.167478</ele>
        <time>2026-09-03T16:12:12.033Z</time>
      </trkpt>
      <trkpt lat="53.213855" lon="6.546711">
        <ele>3.123866</ele>
        <time>2026-09-03T16:12:15.034Z</time>
      </trkpt>
      <trkpt lat="53.213772" lon="6.546774">
        <ele>3.090676</ele>
        <time>2026-09-03T16:12:17.032Z</time>
      </trkpt>
      <trkpt lat="53.213672" lon="6.546781">
        <ele>3.054240</ele>
        <time>2026-09-03T16:12:19.031Z</time>
      </trkpt>
      <trkpt lat="53.213555" lon="6.546779">
        <ele>3.011645</ele>
        <time>2026-09-03T16:12:22.041Z</time>
      </trkpt>
      <trkpt lat="53.213453" lon="6.546845">
        <ele>2.971823</ele>
        <time>2026-09-03T16:12:25.045Z</time>
      </trkpt>
      <trkpt lat="53.213366" lon="6.546909">
        <ele>2.937214</ele>
        <time>2026-09-03T16:12:27.031Z</time>
      </trkpt>
      <trkpt lat="53.213276" lon="6.546983">
        <ele>2.900694</ele>
        <time>2026-09-03T16:12:29.037Z</time>
      </trkpt>
      <trkpt lat="53.213186" lon="6.547050">
        <ele>2.864822</ele>
        <time>2026-09-03T16:12:31.053Z</time>
      </trkpt>
      <trkpt lat="53.213100" lon="6.547111">
        <ele>2.830807</ele>
        <time>2026-09-03T16:12:33.038Z</time>
      </trkpt>
      <trkpt lat="53.213016" lon="6.547175">
        <ele>2.797195</ele>
        <time>2026-09-03T16:12:35.038Z</time>
      </trkpt>
      <trkpt lat="53.212894" lon="6.547261">
        <ele>2.748987</ele>
        <time>2026-09-03T16:12:38.037Z</time>
      </trkpt>
      <trkpt lat="53.212782" lon="6.547342">
        <ele>2.738357</ele>
        <time>2026-09-03T16:12:41.032Z</time>
      </trkpt>
      <trkpt lat="53.212666" lon="6.547421">
        <ele>2.734517</ele>
        <time>2026-09-03T16:12:44.031Z</time>
      </trkpt>
      <trkpt lat="53.212550" lon="6.547509">
        <ele>2.730612</ele>
        <time>2026-09-03T16:12:47.037Z</time>
      </trkpt>
      <trkpt lat="53.212461" lon="6.547563">
        <ele>2.727710</ele>
        <time>2026-09-03T16:12:49.037Z</time>
      </trkpt>
      <trkpt lat="53.212343" lon="6.547636">
        <ele>2.723853</ele>
        <time>2026-09-03T16:12:52.033Z</time>
      </trkpt>
      <trkpt lat="53.212228" lon="6.547719">
        <ele>2.720013</ele>
        <time>2026-09-03T16:12:55.031Z</time>
      </trkpt>
      <trkpt lat="53.212100" lon="6.547769">
        <ele>2.715984</ele>
        <time>2026-09-03T16:12:58.036Z</time>
      </trkpt>
      <trkpt lat="53.211975" lon="6.547808">
        <ele>2.712086</ele>
        <time>2026-09-03T16:13:01.036Z</time>
      </trkpt>
      <trkpt lat="53.211884" lon="6.547834">
        <ele>2.709257</ele>
        <time>2026-09-03T16:13:03.033Z</time>
      </trkpt>
      <trkpt lat="53.211795" lon="6.547867">
        <ele>2.706462</ele>
        <time>2026-09-03T16:13:05.036Z</time>
      </trkpt>
      <trkpt lat="53.211671" lon="6.547917">
        <ele>2.702553</ele>
        <time>2026-09-03T16:13:08.032Z</time>
      </trkpt>
      <trkpt lat="53.211557" lon="6.547918">
        <ele>2.699058</ele>
        <time>2026-09-03T16:13:11.031Z</time>
      </trkpt>
      <trkpt lat="53.211505" lon="6.547785">
        <ele>2.696143</ele>
        <time>2026-09-03T16:13:14.032Z</time>
      </trkpt>
      <trkpt lat="53.211476" lon="6.547621">
        <ele>2.693004</ele>
        <time>2026-09-03T16:13:17.033Z</time>
      </trkpt>
      <trkpt lat="53.211441" lon="6.547461">
        <ele>2.689878</ele>
        <time>2026-09-03T16:13:20.045Z</time>
      </trkpt>
      <trkpt lat="53.211401" lon="6.547282">
        <ele>2.686371</ele>
        <time>2026-09-03T16:13:24.033Z</time>
      </trkpt>
      <trkpt lat="53.211377" lon="6.547115">
        <ele>2.646447</ele>
        <time>2026-09-03T16:13:28.034Z</time>
      </trkpt>
      <trkpt lat="53.211337" lon="6.546932">
        <ele>2.600697</ele>
        <time>2026-09-03T16:13:32.032Z</time>
      </trkpt>
      <trkpt lat="53.211300" lon="6.546793">
        <ele>2.564973</ele>
        <time>2026-09-03T16:13:35.032Z</time>
      </trkpt>
      <trkpt lat="53.211264" lon="6.546638">
        <ele>2.525930</ele>
        <time>2026-09-03T16:13:38.046Z</time>
      </trkpt>
      <trkpt lat="53.211235" lon="6.546492">
        <ele>2.489806</ele>
        <time>2026-09-03T16:13:41.036Z</time>
      </trkpt>
      <trkpt lat="53.211200" lon="6.546347">
        <ele>2.453091</ele>
        <time>2026-09-03T16:13:45.046Z</time>
      </trkpt>
      <trkpt lat="53.211241" lon="6.546519">
        <ele>2.409614</ele>
        <time>2026-09-03T16:13:54.045Z</time>
      </trkpt>
      <trkpt lat="53.211284" lon="6.546687">
        <ele>2.366708</ele>
        <time>2026-09-03T16:13:58.032Z</time>
      </trkpt>
      <trkpt lat="53.211332" lon="6.546863">
        <ele>2.321290</ele>
        <time>2026-09-03T16:14:02.031Z</time>
      </trkpt>
      <trkpt lat="53.211366" lon="6.547038">
        <ele>2.278083</ele>
        <time>2026-09-03T16:14:06.032Z</time>
      </trkpt>
      <trkpt lat="53.211391" lon="6.547212">
        <ele>2.236060</ele>
        <time>2026-09-03T16:14:10.032Z</time>
      </trkpt>
      <trkpt lat="53.211421" lon="6.547379">
        <ele>2.195114</ele>
        <time>2026-09-03T16:14:14.030Z</time>
      </trkpt>
      <trkpt lat="53.211460" lon="6.547569">
        <ele>2.147945</ele>
        <time>2026-09-03T16:14:18.035Z</time>
      </trkpt>
      <trkpt lat="53.211490" lon="6.547713">
        <ele>2.112139</ele>
        <time>2026-09-03T16:14:21.046Z</time>
      </trkpt>
      <trkpt lat="53.211514" lon="6.547859">
        <ele>2.076583</ele>
        <time>2026-09-03T16:14:24.035Z</time>
      </trkpt>
      <trkpt lat="53.211505" lon="6.548040">
        <ele>2.033930</ele>
        <time>2026-09-03T16:14:28.045Z</time>
      </trkpt>
      <trkpt lat="53.211411" lon="6.548059">
        <ele>1.996798</ele>
        <time>2026-09-03T16:14:31.033Z</time>
      </trkpt>
      <trkpt lat="53.211320" lon="6.548075">
        <ele>1.949596</ele>
        <time>2026-09-03T16:14:34.032Z</time>
      </trkpt>
      <trkpt lat="53.211226" lon="6.548123">
        <ele>1.889317</ele>
        <time>2026-09-03T16:14:38.044Z</time>
      </trkpt>
      <trkpt lat="53.211115" lon="6.548189">
        <ele>1.817060</ele>
        <time>2026-09-03T16:14:42.033Z</time>
      </trkpt>
      <trkpt lat="53.211018" lon="6.548245">
        <ele>1.754121</ele>
        <time>2026-09-03T16:14:45.038Z</time>
      </trkpt>
      <trkpt lat="53.210907" lon="6.548278">
        <ele>1.684981</ele>
        <time>2026-09-03T16:14:48.037Z</time>
      </trkpt>
      <trkpt lat="53.210817" lon="6.548199">
        <ele>1.622628</ele>
        <time>2026-09-03T16:14:51.033Z</time>
      </trkpt>
      <trkpt lat="53.210712" lon="6.548185">
        <ele>1.558033</ele>
        <time>2026-09-03T16:14:55.045Z</time>
      </trkpt>
      <trkpt lat="53.210675" lon="6.548340">
        <ele>1.496754</ele>
        <time>2026-09-03T16:15:00.047Z</time>
      </trkpt>
      <trkpt lat="53.210677" lon="6.548505">
        <ele>1.436144</ele>
        <time>2026-09-03T16:15:03.033Z</time>
      </trkpt>
      <trkpt lat="53.210702" lon="6.548689">
        <ele>1.366852</ele>
        <time>2026-09-03T16:15:06.034Z</time>
      </trkpt>
      <trkpt lat="53.210732" lon="6.548860">
        <ele>1.301413</ele>
        <time>2026-09-03T16:15:09.046Z</time>
      </trkpt>
      <trkpt lat="53.210745" lon="6.549029">
        <ele>1.238837</ele>
        <time>2026-09-03T16:15:12.035Z</time>
      </trkpt>
      <trkpt lat="53.210692" lon="6.549156">
        <ele>1.181989</ele>
        <time>2026-09-03T16:15:15.034Z</time>
      </trkpt>
      <trkpt lat="53.210590" lon="6.549188">
        <ele>1.118344</ele>
        <time>2026-09-03T16:15:18.032Z</time>
      </trkpt>
      <trkpt lat="53.210477" lon="6.549181">
        <ele>1.049000</ele>
        <time>2026-09-03T16:15:21.032Z</time>
      </trkpt>
      <trkpt lat="53.210360" lon="6.549184">
        <ele>0.977242</ele>
        <time>2026-09-03T16:15:24.045Z</time>
      </trkpt>
      <trkpt lat="53.210260" lon="6.549169">
        <ele>0.915671</ele>
        <time>2026-09-03T16:15:27.033Z</time>
      </trkpt>
      <trkpt lat="53.210159" lon="6.549143">
        <ele>0.862329</ele>
        <time>2026-09-03T16:15:30.031Z</time>
      </trkpt>
      <trkpt lat="53.210088" lon="6.548996">
        <ele>0.818858</ele>
        <time>2026-09-03T16:15:33.037Z</time>
      </trkpt>
      <trkpt lat="53.210112" lon="6.548772">
        <ele>0.766477</ele>
        <time>2026-09-03T16:15:36.054Z</time>
      </trkpt>
      <trkpt lat="53.210107" lon="6.548612">
        <ele>0.729597</ele>
        <time>2026-09-03T16:15:38.037Z</time>
      </trkpt>
      <trkpt lat="53.210099" lon="6.548441">
        <ele>0.690114</ele>
        <time>2026-09-03T16:15:40.040Z</time>
      </trkpt>
      <trkpt lat="53.210089" lon="6.548266">
        <ele>0.649648</ele>
        <time>2026-09-03T16:15:42.038Z</time>
      </trkpt>
      <trkpt lat="53.210089" lon="6.548104">
        <ele>0.612358</ele>
        <time>2026-09-03T16:15:44.037Z</time>
      </trkpt>
      <trkpt lat="53.210083" lon="6.547939">
        <ele>0.574307</ele>
        <time>2026-09-03T16:15:46.040Z</time>
      </trkpt>
      <trkpt lat="53.210085" lon="6.547764">
        <ele>0.534016</ele>
        <time>2026-09-03T16:15:48.040Z</time>
      </trkpt>
      <trkpt lat="53.210085" lon="6.547598">
        <ele>0.495805</ele>
        <time>2026-09-03T16:15:50.040Z</time>
      </trkpt>
      <trkpt lat="53.210078" lon="6.547421">
        <ele>0.454973</ele>
        <time>2026-09-03T16:15:52.041Z</time>
      </trkpt>
      <trkpt lat="53.210081" lon="6.547236">
        <ele>0.412372</ele>
        <time>2026-09-03T16:15:54.037Z</time>
      </trkpt>
      <trkpt lat="53.210068" lon="6.547071">
        <ele>0.374064</ele>
        <time>2026-09-03T16:15:56.035Z</time>
      </trkpt>
      <trkpt lat="53.210049" lon="6.546908">
        <ele>0.335839</ele>
        <time>2026-09-03T16:15:58.037Z</time>
      </trkpt>
      <trkpt lat="53.210035" lon="6.546748">
        <ele>0.298617</ele>
        <time>2026-09-03T16:16:00.036Z</time>
      </trkpt>
      <trkpt lat="53.210010" lon="6.546568">
        <ele>0.256084</ele>
        <time>2026-09-03T16:16:02.038Z</time>
      </trkpt>
      <trkpt lat="53.209980" lon="6.546407">
        <ele>0.217271</ele>
        <time>2026-09-03T16:16:04.037Z</time>
      </trkpt>
      <trkpt lat="53.209950" lon="6.546249">
        <ele>0.216754</ele>
        <time>2026-09-03T16:16:06.045Z</time>
      </trkpt>
      <trkpt lat="53.209928" lon="6.546093">
        <ele>0.363995</ele>
        <time>2026-09-03T16:16:08.048Z</time>
      </trkpt>
      <trkpt lat="53.209902" lon="6.545926">
        <ele>0.522521</ele>
        <time>2026-09-03T16:16:10.045Z</time>
      </trkpt>
      <trkpt lat="53.209871" lon="6.545750">
        <ele>0.691064</ele>
        <time>2026-09-03T16:16:13.036Z</time>
      </trkpt>
      <trkpt lat="53.209834" lon="6.545558">
        <ele>0.876367</ele>
        <time>2026-09-03T16:16:15.038Z</time>
      </trkpt>
      <trkpt lat="53.209792" lon="6.545378">
        <ele>1.053845</ele>
        <time>2026-09-03T16:16:17.045Z</time>
      </trkpt>
      <trkpt lat="53.209760" lon="6.545143">
        <ele>1.275256</ele>
        <time>2026-09-03T16:16:20.049Z</time>
      </trkpt>
      <trkpt lat="53.209717" lon="6.544987">
        <ele>1.433029</ele>
        <time>2026-09-03T16:16:22.045Z</time>
      </trkpt>
      <trkpt lat="53.209667" lon="6.544838">
        <ele>1.589944</ele>
        <time>2026-09-03T16:16:24.031Z</time>
      </trkpt>
      <trkpt lat="53.209629" lon="6.544688">
        <ele>1.739576</ele>
        <time>2026-09-03T16:16:26.037Z</time>
      </trkpt>
      <trkpt lat="53.209591" lon="6.544542">
        <ele>1.885830</ele>
        <time>2026-09-03T16:16:28.034Z</time>
      </trkpt>
      <trkpt lat="53.209554" lon="6.544402">
        <ele>2.026419</ele>
        <time>2026-09-03T16:16:30.045Z</time>
      </trkpt>
      <trkpt lat="53.209516" lon="6.544222">
        <ele>2.201764</ele>
        <time>2026-09-03T16:16:33.034Z</time>
      </trkpt>
      <trkpt lat="53.209580" lon="6.544069">
        <ele>2.373222</ele>
        <time>2026-09-03T16:16:37.045Z</time>
      </trkpt>
      <trkpt lat="53.209582" lon="6.543890">
        <ele>2.537704</ele>
        <time>2026-09-03T16:16:41.037Z</time>
      </trkpt>
      <trkpt lat="53.209528" lon="6.543732">
        <ele>2.704837</ele>
        <time>2026-09-03T16:16:44.045Z</time>
      </trkpt>
      <trkpt lat="53.209475" lon="6.543583">
        <ele>2.864053</ele>
        <time>2026-09-03T16:16:47.045Z</time>
      </trkpt>
      <trkpt lat="53.209445" lon="6.543429">
        <ele>2.935633</ele>
        <time>2026-09-03T16:16:50.034Z</time>
      </trkpt>
      <trkpt lat="53.209448" lon="6.543271">
        <ele>2.913418</ele>
        <time>2026-09-03T16:16:52.033Z</time>
      </trkpt>
      <trkpt lat="53.209431" lon="6.543118">
        <ele>2.891550</ele>
        <time>2026-09-03T16:16:54.045Z</time>
      </trkpt>
      <trkpt lat="53.209402" lon="6.542974">
        <ele>2.870200</ele>
        <time>2026-09-03T16:16:56.045Z</time>
      </trkpt>
      <trkpt lat="53.209368" lon="6.542780">
        <ele>2.841794</ele>
        <time>2026-09-03T16:16:59.034Z</time>
      </trkpt>
      <trkpt lat="53.209319" lon="6.542586">
        <ele>2.812206</ele>
        <time>2026-09-03T16:17:02.035Z</time>
      </trkpt>
      <trkpt lat="53.209263" lon="6.542399">
        <ele>2.782825</ele>
        <time>2026-09-03T16:17:05.033Z</time>
      </trkpt>
      <trkpt lat="53.209211" lon="6.542191">
        <ele>2.751150</ele>
        <time>2026-09-03T16:17:08.036Z</time>
      </trkpt>
      <trkpt lat="53.209170" lon="6.542047">
        <ele>2.728743</ele>
        <time>2026-09-03T16:17:10.035Z</time>
      </trkpt>
      <trkpt lat="53.209113" lon="6.541855">
        <ele>2.698629</ele>
        <time>2026-09-03T16:17:13.037Z</time>
      </trkpt>
      <trkpt lat="53.209066" lon="6.541661">
        <ele>2.669219</ele>
        <time>2026-09-03T16:17:16.036Z</time>
      </trkpt>
      <trkpt lat="53.209028" lon="6.541482">
        <ele>2.642531</ele>
        <time>2026-09-03T16:17:19.037Z</time>
      </trkpt>
      <trkpt lat="53.208986" lon="6.541295">
        <ele>2.614464</ele>
        <time>2026-09-03T16:17:22.045Z</time>
      </trkpt>
      <trkpt lat="53.208942" lon="6.541104">
        <ele>2.585706</ele>
        <time>2026-09-03T16:17:25.036Z</time>
      </trkpt>
      <trkpt lat="53.208900" lon="6.540925">
        <ele>2.558689</ele>
        <time>2026-09-03T16:17:28.037Z</time>
      </trkpt>
      <trkpt lat="53.208853" lon="6.540751">
        <ele>2.531865</ele>
        <time>2026-09-03T16:17:31.045Z</time>
      </trkpt>
      <trkpt lat="53.208846" lon="6.540583">
        <ele>2.551368</ele>
        <time>2026-09-03T16:17:35.040Z</time>
      </trkpt>
      <trkpt lat="53.208954" lon="6.540502">
        <ele>2.600333</ele>
        <time>2026-09-03T16:17:39.045Z</time>
      </trkpt>
      <trkpt lat="53.209036" lon="6.540434">
        <ele>2.638198</ele>
        <time>2026-09-03T16:17:42.044Z</time>
      </trkpt>
      <trkpt lat="53.209120" lon="6.540380">
        <ele>2.675424</ele>
        <time>2026-09-03T16:17:45.034Z</time>
      </trkpt>
      <trkpt lat="53.209173" lon="6.540235">
        <ele>2.717499</ele>
        <time>2026-09-03T16:17:49.034Z</time>
      </trkpt>
      <trkpt lat="53.209196" lon="6.540082">
        <ele>2.756571</ele>
        <time>2026-09-03T16:17:52.033Z</time>
      </trkpt>
      <trkpt lat="53.209205" lon="6.539909">
        <ele>2.799582</ele>
        <time>2026-09-03T16:17:55.039Z</time>
      </trkpt>
      <trkpt lat="53.209213" lon="6.539732">
        <ele>2.843548</ele>
        <time>2026-09-03T16:17:58.035Z</time>
      </trkpt>
      <trkpt lat="53.209208" lon="6.539549">
        <ele>2.888921</ele>
        <time>2026-09-03T16:18:01.036Z</time>
      </trkpt>
      <trkpt lat="53.209194" lon="6.539366">
        <ele>2.934617</ele>
        <time>2026-09-03T16:18:04.045Z</time>
      </trkpt>
      <trkpt lat="53.209138" lon="6.539206">
        <ele>2.980518</ele>
        <time>2026-09-03T16:18:07.045Z</time>
      </trkpt>
      <trkpt lat="53.209048" lon="6.539181">
        <ele>3.018251</ele>
        <time>2026-09-03T16:18:09.040Z</time>
      </trkpt>
      <trkpt lat="53.208926" lon="6.539244">
        <ele>3.071065</ele>
        <time>2026-09-03T16:18:12.033Z</time>
      </trkpt>
      <trkpt lat="53.208821" lon="6.539295">
        <ele>3.116290</ele>
        <time>2026-09-03T16:18:15.036Z</time>
      </trkpt>
      <trkpt lat="53.208728" lon="6.539360">
        <ele>3.157986</ele>
        <time>2026-09-03T16:18:18.032Z</time>
      </trkpt>
      <trkpt lat="53.208646" lon="6.539426">
        <ele>3.195634</ele>
        <time>2026-09-03T16:18:21.035Z</time>
      </trkpt>
      <trkpt lat="53.208550" lon="6.539515">
        <ele>3.241046</ele>
        <time>2026-09-03T16:18:25.045Z</time>
      </trkpt>
      <trkpt lat="53.208551" lon="6.539703">
        <ele>3.207559</ele>
        <time>2026-09-03T16:18:30.037Z</time>
      </trkpt>
      <trkpt lat="53.208599" lon="6.539888">
        <ele>3.056773</ele>
        <time>2026-09-03T16:18:33.037Z</time>
      </trkpt>
      <trkpt lat="53.208650" lon="6.540083">
        <ele>2.897636</ele>
        <time>2026-09-03T16:18:36.037Z</time>
      </trkpt>
      <trkpt lat="53.208697" lon="6.540269">
        <ele>2.746654</ele>
        <time>2026-09-03T16:18:39.041Z</time>
      </trkpt>
      <trkpt lat="53.208741" lon="6.540446">
        <ele>2.603327</ele>
        <time>2026-09-03T16:18:42.039Z</time>
      </trkpt>
      <trkpt lat="53.208778" lon="6.540612">
        <ele>2.470859</ele>
        <time>2026-09-03T16:18:45.040Z</time>
      </trkpt>
      <trkpt lat="53.208820" lon="6.540786">
        <ele>2.330555</ele>
        <time>2026-09-03T16:18:48.038Z</time>
      </trkpt>
      <trkpt lat="53.208864" lon="6.540978">
        <ele>2.176808</ele>
        <time>2026-09-03T16:18:51.033Z</time>
      </trkpt>
      <trkpt lat="53.208906" lon="6.541164">
        <ele>2.028143</ele>
        <time>2026-09-03T16:18:54.038Z</time>
      </trkpt>
      <trkpt lat="53.208946" lon="6.541343">
        <ele>1.885256</ele>
        <time>2026-09-03T16:18:57.039Z</time>
      </trkpt>
      <trkpt lat="53.208991" lon="6.541502">
        <ele>1.753734</ele>
        <time>2026-09-03T16:19:00.037Z</time>
      </trkpt>
      <trkpt lat="53.209005" lon="6.541655">
        <ele>1.637980</ele>
        <time>2026-09-03T16:19:03.039Z</time>
      </trkpt>
      <trkpt lat="53.208916" lon="6.541687">
        <ele>1.524292</ele>
        <time>2026-09-03T16:19:06.040Z</time>
      </trkpt>
      <trkpt lat="53.208860" lon="6.541535">
        <ele>1.390827</ele>
        <time>2026-09-03T16:19:09.039Z</time>
      </trkpt>
      <trkpt lat="53.208818" lon="6.541333">
        <ele>1.230909</ele>
        <time>2026-09-03T16:19:12.032Z</time>
      </trkpt>
      <trkpt lat="53.208787" lon="6.541191">
        <ele>1.117873</ele>
        <time>2026-09-03T16:19:14.039Z</time>
      </trkpt>
      <trkpt lat="53.208745" lon="6.540980">
        <ele>0.970838</ele>
        <time>2026-09-03T16:19:17.036Z</time>
      </trkpt>
      <trkpt lat="53.208705" lon="6.540790">
        <ele>0.861631</ele>
        <time>2026-09-03T16:19:20.042Z</time>
      </trkpt>
      <trkpt lat="53.208651" lon="6.540592">
        <ele>0.743658</ele>
        <time>2026-09-03T16:19:23.039Z</time>
      </trkpt>
      <trkpt lat="53.208604" lon="6.540393">
        <ele>0.627663</ele>
        <time>2026-09-03T16:19:26.039Z</time>
      </trkpt>
      <trkpt lat="53.208563" lon="6.540208">
        <ele>0.520699</ele>
        <time>2026-09-03T16:19:29.037Z</time>
      </trkpt>
      <trkpt lat="53.208516" lon="6.540018">
        <ele>0.409229</ele>
        <time>2026-09-03T16:19:32.039Z</time>
      </trkpt>
      <trkpt lat="53.208471" lon="6.539829">
        <ele>0.298942</ele>
        <time>2026-09-03T16:19:35.040Z</time>
      </trkpt>
      <trkpt lat="53.208420" lon="6.539642">
        <ele>0.187523</ele>
        <time>2026-09-03T16:19:38.039Z</time>
      </trkpt>
      <trkpt lat="53.208374" lon="6.539457">
        <ele>0.078904</ele>
        <time>2026-09-03T16:19:41.037Z</time>
      </trkpt>
      <trkpt lat="53.208324" lon="6.539265">
        <ele>-0.034625</ele>
        <time>2026-09-03T16:19:44.038Z</time>
      </trkpt>
      <trkpt lat="53.208282" lon="6.539074">
        <ele>-0.144955</ele>
        <time>2026-09-03T16:19:47.040Z</time>
      </trkpt>
      <trkpt lat="53.208248" lon="6.538913">
        <ele>-0.237526</ele>
        <time>2026-09-03T16:19:50.040Z</time>
      </trkpt>
      <trkpt lat="53.208211" lon="6.538760">
        <ele>-0.326999</ele>
        <time>2026-09-03T16:19:53.037Z</time>
      </trkpt>
      <trkpt lat="53.208169" lon="6.538575">
        <ele>-0.434282</ele>
        <time>2026-09-03T16:19:56.039Z</time>
      </trkpt>
      <trkpt lat="53.208125" lon="6.538376">
        <ele>-0.549309</ele>
        <time>2026-09-03T16:19:59.039Z</time>
      </trkpt>
      <trkpt lat="53.208082" lon="6.538178">
        <ele>-0.595402</ele>
        <time>2026-09-03T16:20:02.039Z</time>
      </trkpt>
      <trkpt lat="53.208031" lon="6.537983">
        <ele>-0.572017</ele>
        <time>2026-09-03T16:20:05.039Z</time>
      </trkpt>
      <trkpt lat="53.207987" lon="6.537796">
        <ele>-0.549936</ele>
        <time>2026-09-03T16:20:08.039Z</time>
      </trkpt>
      <trkpt lat="53.207936" lon="6.537603">
        <ele>-0.526753</ele>
        <time>2026-09-03T16:20:11.038Z</time>
      </trkpt>
      <trkpt lat="53.207888" lon="6.537386">
        <ele>-0.501329</ele>
        <time>2026-09-03T16:20:14.039Z</time>
      </trkpt>
      <trkpt lat="53.207855" lon="6.537244">
        <ele>-0.484590</ele>
        <time>2026-09-03T16:20:16.035Z</time>
      </trkpt>
      <trkpt lat="53.207815" lon="6.537048">
        <ele>-0.461833</ele>
        <time>2026-09-03T16:20:19.038Z</time>
      </trkpt>
      <trkpt lat="53.207769" lon="6.536850">
        <ele>-0.438493</ele>
        <time>2026-09-03T16:20:22.040Z</time>
      </trkpt>
      <trkpt lat="53.207715" lon="6.536655">
        <ele>-0.414882</ele>
        <time>2026-09-03T16:20:25.036Z</time>
      </trkpt>
      <trkpt lat="53.207671" lon="6.536462">
        <ele>-0.392186</ele>
        <time>2026-09-03T16:20:28.040Z</time>
      </trkpt>
      <trkpt lat="53.207624" lon="6.536271">
        <ele>-0.369492</ele>
        <time>2026-09-03T16:20:31.039Z</time>
      </trkpt>
      <trkpt lat="53.207581" lon="6.536092">
        <ele>-0.348296</ele>
        <time>2026-09-03T16:20:34.037Z</time>
      </trkpt>
      <trkpt lat="53.207538" lon="6.535898">
        <ele>-0.325562</ele>
        <time>2026-09-03T16:20:37.035Z</time>
      </trkpt>
      <trkpt lat="53.207496" lon="6.535699">
        <ele>-0.302373</ele>
        <time>2026-09-03T16:20:40.040Z</time>
      </trkpt>
      <trkpt lat="53.207443" lon="6.535495">
        <ele>-0.277934</ele>
        <time>2026-09-03T16:20:43.039Z</time>
      </trkpt>
      <trkpt lat="53.207395" lon="6.535300">
        <ele>-0.247445</ele>
        <time>2026-09-03T16:20:46.036Z</time>
      </trkpt>
      <trkpt lat="53.207350" lon="6.535104">
        <ele>-0.216724</ele>
        <time>2026-09-03T16:20:49.038Z</time>
      </trkpt>
      <trkpt lat="53.207302" lon="6.534909">
        <ele>-0.185868</ele>
        <time>2026-09-03T16:20:52.039Z</time>
      </trkpt>
      <trkpt lat="53.207260" lon="6.534719">
        <ele>-0.156226</ele>
        <time>2026-09-03T16:20:55.040Z</time>
      </trkpt>
      <trkpt lat="53.207208" lon="6.534523">
        <ele>-0.124852</ele>
        <time>2026-09-03T16:20:58.039Z</time>
      </trkpt>
      <trkpt lat="53.207160" lon="6.534323">
        <ele>-0.093317</ele>
        <time>2026-09-03T16:21:01.038Z</time>
      </trkpt>
      <trkpt lat="53.207117" lon="6.534131">
        <ele>-0.063316</ele>
        <time>2026-09-03T16:21:04.040Z</time>
      </trkpt>
      <trkpt lat="53.207070" lon="6.533942">
        <ele>-0.033365</ele>
        <time>2026-09-03T16:21:07.041Z</time>
      </trkpt>
      <trkpt lat="53.207023" lon="6.533751">
        <ele>-0.003143</ele>
        <time>2026-09-03T16:21:10.042Z</time>
      </trkpt>
      <trkpt lat="53.206972" lon="6.533559">
        <ele>0.027598</ele>
        <time>2026-09-03T16:21:13.039Z</time>
      </trkpt>
      <trkpt lat="53.206933" lon="6.533356">
        <ele>0.058799</ele>
        <time>2026-09-03T16:21:16.039Z</time>
      </trkpt>
      <trkpt lat="53.206899" lon="6.533143">
        <ele>0.091062</ele>
        <time>2026-09-03T16:21:19.040Z</time>
      </trkpt>
      <trkpt lat="53.206868" lon="6.532938">
        <ele>0.122007</ele>
        <time>2026-09-03T16:21:22.039Z</time>
      </trkpt>
      <trkpt lat="53.206838" lon="6.532734">
        <ele>0.152751</ele>
        <time>2026-09-03T16:21:25.039Z</time>
      </trkpt>
      <trkpt lat="53.206814" lon="6.532545">
        <ele>0.148823</ele>
        <time>2026-09-03T16:21:28.040Z</time>
      </trkpt>
      <trkpt lat="53.206765" lon="6.532393">
        <ele>0.129683</ele>
        <time>2026-09-03T16:21:32.049Z</time>
      </trkpt>
      <trkpt lat="53.206862" lon="6.532388">
        <ele>0.111717</ele>
        <time>2026-09-03T16:21:48.039Z</time>
      </trkpt>
      <trkpt lat="53.206963" lon="6.532350">
        <ele>0.092551</ele>
        <time>2026-09-03T16:21:51.038Z</time>
      </trkpt>
      <trkpt lat="53.207077" lon="6.532292">
        <ele>0.070488</ele>
        <time>2026-09-03T16:21:54.038Z</time>
      </trkpt>
      <trkpt lat="53.207193" lon="6.532250">
        <ele>0.048514</ele>
        <time>2026-09-03T16:21:57.039Z</time>
      </trkpt>
      <trkpt lat="53.207308" lon="6.532211">
        <ele>0.026790</ele>
        <time>2026-09-03T16:22:00.053Z</time>
      </trkpt>
      <trkpt lat="53.207426" lon="6.532176">
        <ele>0.004603</ele>
        <time>2026-09-03T16:22:03.053Z</time>
      </trkpt>
      <trkpt lat="53.207532" lon="6.532133">
        <ele>-0.015591</ele>
        <time>2026-09-03T16:22:06.036Z</time>
      </trkpt>
      <trkpt lat="53.207642" lon="6.532095">
        <ele>-0.036387</ele>
        <time>2026-09-03T16:22:09.038Z</time>
      </trkpt>
      <trkpt lat="53.207753" lon="6.532067">
        <ele>-0.057169</ele>
        <time>2026-09-03T16:22:12.039Z</time>
      </trkpt>
      <trkpt lat="53.207862" lon="6.532034">
        <ele>-0.077677</ele>
        <time>2026-09-03T16:22:15.039Z</time>
      </trkpt>
      <trkpt lat="53.207976" lon="6.531998">
        <ele>-0.099155</ele>
        <time>2026-09-03T16:22:18.037Z</time>
      </trkpt>
      <trkpt lat="53.208086" lon="6.531962">
        <ele>-0.119907</ele>
        <time>2026-09-03T16:22:21.040Z</time>
      </trkpt>
      <trkpt lat="53.208197" lon="6.531924">
        <ele>-0.140883</ele>
        <time>2026-09-03T16:22:24.039Z</time>
      </trkpt>
      <trkpt lat="53.208315" lon="6.531886">
        <ele>-0.163131</ele>
        <time>2026-09-03T16:22:27.039Z</time>
      </trkpt>
      <trkpt lat="53.208438" lon="6.531849">
        <ele>0.008938</ele>
        <time>2026-09-03T16:22:30.039Z</time>
      </trkpt>
      <trkpt lat="53.208549" lon="6.531822">
        <ele>0.241601</ele>
        <time>2026-09-03T16:22:33.038Z</time>
      </trkpt>
      <trkpt lat="53.208650" lon="6.531777">
        <ele>0.458422</ele>
        <time>2026-09-03T16:22:36.039Z</time>
      </trkpt>
      <trkpt lat="53.208759" lon="6.531735">
        <ele>0.690448</ele>
        <time>2026-09-03T16:22:39.037Z</time>
      </trkpt>
      <trkpt lat="53.208876" lon="6.531688">
        <ele>0.940050</ele>
        <time>2026-09-03T16:22:42.039Z</time>
      </trkpt>
      <trkpt lat="53.208998" lon="6.531642">
        <ele>1.199470</ele>
        <time>2026-09-03T16:22:45.038Z</time>
      </trkpt>
      <trkpt lat="53.209127" lon="6.531609">
        <ele>1.470160</ele>
        <time>2026-09-03T16:22:48.038Z</time>
      </trkpt>
      <trkpt lat="53.209249" lon="6.531546">
        <ele>1.735034</ele>
        <time>2026-09-03T16:22:51.040Z</time>
      </trkpt>
      <trkpt lat="53.209356" lon="6.531490">
        <ele>1.967617</ele>
        <time>2026-09-03T16:22:54.037Z</time>
      </trkpt>
      <trkpt lat="53.209455" lon="6.531444">
        <ele>2.180761</ele>
        <time>2026-09-03T16:22:57.033Z</time>
      </trkpt>
      <trkpt lat="53.209543" lon="6.531397">
        <ele>2.372398</ele>
        <time>2026-09-03T16:23:00.036Z</time>
      </trkpt>
      <trkpt lat="53.209642" lon="6.531361">
        <ele>2.582554</ele>
        <time>2026-09-03T16:23:05.037Z</time>
      </trkpt>
      <trkpt lat="53.209533" lon="6.531377">
        <ele>2.809510</ele>
        <time>2026-09-03T16:23:25.042Z</time>
      </trkpt>
      <trkpt lat="53.209428" lon="6.531444">
        <ele>3.042659</ele>
        <time>2026-09-03T16:23:29.041Z</time>
      </trkpt>
      <trkpt lat="53.209332" lon="6.531511">
        <ele>3.258473</ele>
        <time>2026-09-03T16:23:32.040Z</time>
      </trkpt>
      <trkpt lat="53.209236" lon="6.531539">
        <ele>3.460608</ele>
        <time>2026-09-03T16:23:35.042Z</time>
      </trkpt>
      <trkpt lat="53.209123" lon="6.531580">
        <ele>3.319878</ele>
        <time>2026-09-03T16:23:39.037Z</time>
      </trkpt>
      <trkpt lat="53.209021" lon="6.531614">
        <ele>2.949318</ele>
        <time>2026-09-03T16:23:43.039Z</time>
      </trkpt>
      <trkpt lat="53.208907" lon="6.531661">
        <ele>2.530979</ele>
        <time>2026-09-03T16:23:47.038Z</time>
      </trkpt>
      <trkpt lat="53.208801" lon="6.531691">
        <ele>2.147953</ele>
        <time>2026-09-03T16:23:51.039Z</time>
      </trkpt>
      <trkpt lat="53.208707" lon="6.531727">
        <ele>1.804369</ele>
        <time>2026-09-03T16:23:54.033Z</time>
      </trkpt>
      <trkpt lat="53.208598" lon="6.531758">
        <ele>1.410448</ele>
        <time>2026-09-03T16:23:58.040Z</time>
      </trkpt>
      <trkpt lat="53.208502" lon="6.531796">
        <ele>1.058955</ele>
        <time>2026-09-03T16:24:03.042Z</time>
      </trkpt>
      <trkpt lat="53.208592" lon="6.531751">
        <ele>0.724250</ele>
        <time>2026-09-03T16:24:10.041Z</time>
      </trkpt>
      <trkpt lat="53.208602" lon="6.531587">
        <ele>0.372518</ele>
        <time>2026-09-03T16:24:16.040Z</time>
      </trkpt>
      <trkpt lat="53.208577" lon="6.531332">
        <ele>-0.178812</ele>
        <time>2026-09-03T16:25:17.048Z</time>
      </trkpt>
      <trkpt lat="53.208574" lon="6.531145">
        <ele>-0.577953</ele>
        <time>2026-09-03T16:25:21.037Z</time>
      </trkpt>
      <trkpt lat="53.208559" lon="6.530971">
        <ele>-0.953039</ele>
        <time>2026-09-03T16:25:26.035Z</time>
      </trkpt>
      <trkpt lat="53.208547" lon="6.530803">
        <ele>-1.314038</ele>
        <time>2026-09-03T16:25:31.035Z</time>
      </trkpt>
      <trkpt lat="53.208502" lon="6.530654">
        <ele>-1.670092</ele>
        <time>2026-09-03T16:25:37.047Z</time>
      </trkpt>
      <trkpt lat="53.208452" lon="6.530488">
        <ele>-2.066555</ele>
        <time>2026-09-03T16:25:42.032Z</time>
      </trkpt>
      <trkpt lat="53.208392" lon="6.530346">
        <ele>-2.437353</ele>
        <time>2026-09-03T16:25:46.034Z</time>
      </trkpt>
      <trkpt lat="53.208339" lon="6.530210">
        <ele>-2.783559</ele>
        <time>2026-09-03T16:25:50.047Z</time>
      </trkpt>
      <trkpt lat="53.208388" lon="6.530372">
        <ele>-2.740007</ele>
        <time>2026-09-03T16:26:05.039Z</time>
      </trkpt>
      <trkpt lat="53.208440" lon="6.530513">
        <ele>-2.622530</ele>
        <time>2026-09-03T16:26:09.040Z</time>
      </trkpt>
      <trkpt lat="53.208473" lon="6.530658">
        <ele>-2.512482</ele>
        <time>2026-09-03T16:26:13.040Z</time>
      </trkpt>
      <trkpt lat="53.208527" lon="6.530809">
        <ele>-2.387710</ele>
        <time>2026-09-03T16:26:18.036Z</time>
      </trkpt>
      <trkpt lat="53.208552" lon="6.530966">
        <ele>-2.272457</ele>
        <time>2026-09-03T16:26:23.041Z</time>
      </trkpt>
      <trkpt lat="53.208570" lon="6.531146">
        <ele>-2.142988</ele>
        <time>2026-09-03T16:26:27.040Z</time>
      </trkpt>
      <trkpt lat="53.208574" lon="6.531339">
        <ele>-2.005982</ele>
        <time>2026-09-03T16:26:31.038Z</time>
      </trkpt>
      <trkpt lat="53.208578" lon="6.531531">
        <ele>-1.869686</ele>
        <time>2026-09-03T16:26:35.041Z</time>
      </trkpt>
      <trkpt lat="53.208597" lon="6.531710">
        <ele>-1.740715</ele>
        <time>2026-09-03T16:26:39.042Z</time>
      </trkpt>
      <trkpt lat="53.208510" lon="6.531808">
        <ele>-1.616398</ele>
        <time>2026-09-03T16:26:43.040Z</time>
      </trkpt>
      <trkpt lat="53.208396" lon="6.531841">
        <ele>-1.479341</ele>
        <time>2026-09-03T16:26:46.037Z</time>
      </trkpt>
      <trkpt lat="53.208281" lon="6.531879">
        <ele>-1.340472</ele>
        <time>2026-09-03T16:26:49.041Z</time>
      </trkpt>
      <trkpt lat="53.208177" lon="6.531904">
        <ele>-1.216006</ele>
        <time>2026-09-03T16:26:52.041Z</time>
      </trkpt>
      <trkpt lat="53.208063" lon="6.531927">
        <ele>-1.079981</ele>
        <time>2026-09-03T16:26:55.039Z</time>
      </trkpt>
      <trkpt lat="53.207943" lon="6.531974">
        <ele>-0.933973</ele>
        <time>2026-09-03T16:26:58.037Z</time>
      </trkpt>
      <trkpt lat="53.207825" lon="6.532020">
        <ele>-0.790434</ele>
        <time>2026-09-03T16:27:01.039Z</time>
      </trkpt>
      <trkpt lat="53.207698" lon="6.532062">
        <ele>-0.727273</ele>
        <time>2026-09-03T16:27:04.041Z</time>
      </trkpt>
      <trkpt lat="53.207575" lon="6.532111">
        <ele>-0.746808</ele>
        <time>2026-09-03T16:27:07.048Z</time>
      </trkpt>
      <trkpt lat="53.207464" lon="6.532143">
        <ele>-0.764209</ele>
        <time>2026-09-03T16:27:10.037Z</time>
      </trkpt>
      <trkpt lat="53.207353" lon="6.532174">
        <ele>-0.781596</ele>
        <time>2026-09-03T16:27:13.037Z</time>
      </trkpt>
      <trkpt lat="53.207245" lon="6.532212">
        <ele>-0.798647</ele>
        <time>2026-09-03T16:27:16.050Z</time>
      </trkpt>
      <trkpt lat="53.207137" lon="6.532255">
        <ele>-0.815799</ele>
        <time>2026-09-03T16:27:19.040Z</time>
      </trkpt>
      <trkpt lat="53.207031" lon="6.532298">
        <ele>-0.832651</ele>
        <time>2026-09-03T16:27:22.043Z</time>
      </trkpt>
      <trkpt lat="53.206917" lon="6.532330">
        <ele>-0.850509</ele>
        <time>2026-09-03T16:27:25.042Z</time>
      </trkpt>
      <trkpt lat="53.206815" lon="6.532355">
        <ele>-0.866436</ele>
        <time>2026-09-03T16:27:28.040Z</time>
      </trkpt>
      <trkpt lat="53.206698" lon="6.532421">
        <ele>-0.885515</ele>
        <time>2026-09-03T16:27:32.041Z</time>
      </trkpt>
      <trkpt lat="53.206587" lon="6.532481">
        <ele>-0.903539</ele>
        <time>2026-09-03T16:27:35.041Z</time>
      </trkpt>
      <trkpt lat="53.206495" lon="6.532517">
        <ele>-0.918137</ele>
        <time>2026-09-03T16:27:37.035Z</time>
      </trkpt>
      <trkpt lat="53.206361" lon="6.532563">
        <ele>-0.939271</ele>
        <time>2026-09-03T16:27:40.037Z</time>
      </trkpt>
      <trkpt lat="53.206273" lon="6.532598">
        <ele>-0.953246</ele>
        <time>2026-09-03T16:27:42.035Z</time>
      </trkpt>
      <trkpt lat="53.206184" lon="6.532634">
        <ele>-0.967393</ele>
        <time>2026-09-03T16:27:44.033Z</time>
      </trkpt>
      <trkpt lat="53.206094" lon="6.532656">
        <ele>-0.981445</ele>
        <time>2026-09-03T16:27:46.040Z</time>
      </trkpt>
      <trkpt lat="53.206002" lon="6.532684">
        <ele>-0.997796</ele>
        <time>2026-09-03T16:27:48.033Z</time>
      </trkpt>
      <trkpt lat="53.205905" lon="6.532706">
        <ele>-1.037731</ele>
        <time>2026-09-03T16:27:50.044Z</time>
      </trkpt>
      <trkpt lat="53.205811" lon="6.532707">
        <ele>-1.076080</ele>
        <time>2026-09-03T16:27:52.041Z</time>
      </trkpt>
      <trkpt lat="53.205720" lon="6.532711">
        <ele>-1.113217</ele>
        <time>2026-09-03T16:27:54.036Z</time>
      </trkpt>
      <trkpt lat="53.205627" lon="6.532693">
        <ele>-1.151412</ele>
        <time>2026-09-03T16:27:56.038Z</time>
      </trkpt>
      <trkpt lat="53.205534" lon="6.532667">
        <ele>-1.189880</ele>
        <time>2026-09-03T16:27:58.048Z</time>
      </trkpt>
      <trkpt lat="53.205436" lon="6.532635">
        <ele>-1.230618</ele>
        <time>2026-09-03T16:28:00.034Z</time>
      </trkpt>
      <trkpt lat="53.205346" lon="6.532589">
        <ele>-1.269016</ele>
        <time>2026-09-03T16:28:02.047Z</time>
      </trkpt>
      <trkpt lat="53.205229" lon="6.532516">
        <ele>-1.319971</ele>
        <time>2026-09-03T16:28:05.049Z</time>
      </trkpt>
      <trkpt lat="53.205118" lon="6.532479">
        <ele>-1.366148</ele>
        <time>2026-09-03T16:28:08.036Z</time>
      </trkpt>
      <trkpt lat="53.205070" lon="6.532622">
        <ele>-1.406203</ele>
        <time>2026-09-03T16:28:11.037Z</time>
      </trkpt>
      <trkpt lat="53.205043" lon="6.532797">
        <ele>-1.450360</ele>
        <time>2026-09-03T16:28:14.048Z</time>
      </trkpt>
      <trkpt lat="53.204985" lon="6.532925">
        <ele>-1.489579</ele>
        <time>2026-09-03T16:28:17.037Z</time>
      </trkpt>
      <trkpt lat="53.204899" lon="6.533037">
        <ele>-1.534075</ele>
        <time>2026-09-03T16:28:21.036Z</time>
      </trkpt>
      <trkpt lat="53.204802" lon="6.533075">
        <ele>-1.574721</ele>
        <time>2026-09-03T16:28:25.048Z</time>
      </trkpt>
      <trkpt lat="53.204747" lon="6.532929">
        <ele>-1.616866</ele>
        <time>2026-09-03T16:28:30.040Z</time>
      </trkpt>
      <trkpt lat="53.204666" lon="6.532786">
        <ele>-1.664959</ele>
        <time>2026-09-03T16:28:34.034Z</time>
      </trkpt>
      <trkpt lat="53.204608" lon="6.532660">
        <ele>-1.703789</ele>
        <time>2026-09-03T16:28:37.036Z</time>
      </trkpt>
      <trkpt lat="53.204534" lon="6.532517">
        <ele>-1.752777</ele>
        <time>2026-09-03T16:28:41.038Z</time>
      </trkpt>
      <trkpt lat="53.204464" lon="6.532404">
        <ele>-1.797704</ele>
        <time>2026-09-03T16:28:46.037Z</time>
      </trkpt>
      <trkpt lat="53.204376" lon="6.532443">
        <ele>-1.839713</ele>
        <time>2026-09-03T16:28:50.048Z</time>
      </trkpt>
      <trkpt lat="53.204267" lon="6.532490">
        <ele>-1.891656</ele>
        <time>2026-09-03T16:28:54.040Z</time>
      </trkpt>
      <trkpt lat="53.204177" lon="6.532514">
        <ele>-1.933708</ele>
        <time>2026-09-03T16:28:57.036Z</time>
      </trkpt>
      <trkpt lat="53.204073" lon="6.532549">
        <ele>-1.982658</ele>
        <time>2026-09-03T16:29:01.049Z</time>
      </trkpt>
      <trkpt lat="53.203958" lon="6.532568">
        <ele>-2.035978</ele>
        <time>2026-09-03T16:29:05.040Z</time>
      </trkpt>
      <trkpt lat="53.203863" lon="6.532593">
        <ele>-2.080352</ele>
        <time>2026-09-03T16:29:09.041Z</time>
      </trkpt>
      <trkpt lat="53.203775" lon="6.532631">
        <ele>-2.122292</ele>
        <time>2026-09-03T16:29:13.045Z</time>
      </trkpt>
      <trkpt lat="53.203668" lon="6.532660">
        <ele>-2.172307</ele>
        <time>2026-09-03T16:29:17.037Z</time>
      </trkpt>
      <trkpt lat="53.203577" lon="6.532710">
        <ele>-2.216510</ele>
        <time>2026-09-03T16:29:21.039Z</time>
      </trkpt>
      <trkpt lat="53.203481" lon="6.532759">
        <ele>-2.262828</ele>
        <time>2026-09-03T16:29:26.048Z</time>
      </trkpt>
      <trkpt lat="53.203387" lon="6.532808">
        <ele>-2.308264</ele>
        <time>2026-09-03T16:29:33.048Z</time>
      </trkpt>
      <trkpt lat="53.203284" lon="6.532788">
        <ele>-2.356109</ele>
        <time>2026-09-03T16:29:39.048Z</time>
      </trkpt>
      <trkpt lat="53.203178" lon="6.532832">
        <ele>-2.406506</ele>
        <time>2026-09-03T16:29:44.035Z</time>
      </trkpt>
      <trkpt lat="53.203281" lon="6.532797">
        <ele>-2.455004</ele>
        <time>2026-09-03T16:30:02.041Z</time>
      </trkpt>
      <trkpt lat="53.203369" lon="6.532732">
        <ele>-2.499404</ele>
        <time>2026-09-03T16:30:10.041Z</time>
      </trkpt>
      <trkpt lat="53.203480" lon="6.532742">
        <ele>-2.550694</ele>
        <time>2026-09-03T16:30:16.034Z</time>
      </trkpt>
      <trkpt lat="53.203570" lon="6.532729">
        <ele>-2.512645</ele>
        <time>2026-09-03T16:30:20.048Z</time>
      </trkpt>
      <trkpt lat="53.203663" lon="6.532697">
        <ele>-2.453655</ele>
        <time>2026-09-03T16:30:25.038Z</time>
      </trkpt>
      <trkpt lat="53.203779" lon="6.532659">
        <ele>-2.380216</ele>
        <time>2026-09-03T16:30:29.035Z</time>
      </trkpt>
      <trkpt lat="53.203893" lon="6.532616">
        <ele>-2.307609</ele>
        <time>2026-09-03T16:30:33.033Z</time>
      </trkpt>
      <trkpt lat="53.203986" lon="6.532603">
        <ele>-2.249631</ele>
        <time>2026-09-03T16:30:36.040Z</time>
      </trkpt>
      <trkpt lat="53.204081" lon="6.532578">
        <ele>-2.189884</ele>
        <time>2026-09-03T16:30:39.036Z</time>
      </trkpt>
      <trkpt lat="53.204172" lon="6.532545">
        <ele>-2.132032</ele>
        <time>2026-09-03T16:30:43.043Z</time>
      </trkpt>
      <trkpt lat="53.204265" lon="6.532506">
        <ele>-2.072462</ele>
        <time>2026-09-03T16:30:47.037Z</time>
      </trkpt>
      <trkpt lat="53.204352" lon="6.532463">
        <ele>-2.016095</ele>
        <time>2026-09-03T16:30:50.036Z</time>
      </trkpt>
      <trkpt lat="53.204446" lon="6.532462">
        <ele>-1.957696</ele>
        <time>2026-09-03T16:30:53.037Z</time>
      </trkpt>
      <trkpt lat="53.204529" lon="6.532525">
        <ele>-1.901054</ele>
        <time>2026-09-03T16:30:56.048Z</time>
      </trkpt>
      <trkpt lat="53.204587" lon="6.532689">
        <ele>-1.830185</ele>
        <time>2026-09-03T16:31:00.039Z</time>
      </trkpt>
      <trkpt lat="53.204640" lon="6.532826">
        <ele>-1.769499</ele>
        <time>2026-09-03T16:31:05.047Z</time>
      </trkpt>
      <trkpt lat="53.204729" lon="6.532930">
        <ele>-1.702010</ele>
        <time>2026-09-03T16:31:10.036Z</time>
      </trkpt>
      <trkpt lat="53.204788" lon="6.533044">
        <ele>-1.645949</ele>
        <time>2026-09-03T16:31:13.037Z</time>
      </trkpt>
      <trkpt lat="53.204785" lon="6.533195">
        <ele>-1.589731</ele>
        <time>2026-09-03T16:31:16.036Z</time>
      </trkpt>
      <trkpt lat="53.204713" lon="6.533302">
        <ele>-1.529848</ele>
        <time>2026-09-03T16:31:19.049Z</time>
      </trkpt>
      <trkpt lat="53.204639" lon="6.533402">
        <ele>-1.470704</ele>
        <time>2026-09-03T16:31:22.035Z</time>
      </trkpt>
      <trkpt lat="53.204557" lon="6.533551">
        <ele>-1.540621</ele>
        <time>2026-09-03T16:31:26.038Z</time>
      </trkpt>
      <trkpt lat="53.204481" lon="6.533692">
        <ele>-1.694884</ele>
        <time>2026-09-03T16:31:29.033Z</time>
      </trkpt>
      <trkpt lat="53.204397" lon="6.533841">
        <ele>-1.861292</ele>
        <time>2026-09-03T16:31:32.042Z</time>
      </trkpt>
      <trkpt lat="53.204312" lon="6.533978">
        <ele>-2.021708</ele>
        <time>2026-09-03T16:31:35.042Z</time>
      </trkpt>
      <trkpt lat="53.204238" lon="6.534065">
        <ele>-2.144596</ele>
        <time>2026-09-03T16:31:37.041Z</time>
      </trkpt>
      <trkpt lat="53.204157" lon="6.534142">
        <ele>-2.271154</ele>
        <time>2026-09-03T16:31:39.041Z</time>
      </trkpt>
      <trkpt lat="53.204049" lon="6.534245">
        <ele>-2.440032</ele>
        <time>2026-09-03T16:31:42.032Z</time>
      </trkpt>
      <trkpt lat="53.203927" lon="6.534325">
        <ele>-2.618000</ele>
        <time>2026-09-03T16:31:45.040Z</time>
      </trkpt>
      <trkpt lat="53.203799" lon="6.534375">
        <ele>-2.796489</ele>
        <time>2026-09-03T16:31:48.041Z</time>
      </trkpt>
      <trkpt lat="53.203680" lon="6.534423">
        <ele>-2.962713</ele>
        <time>2026-09-03T16:31:51.041Z</time>
      </trkpt>
      <trkpt lat="53.203573" lon="6.534482">
        <ele>-3.115714</ele>
        <time>2026-09-03T16:31:54.040Z</time>
      </trkpt>
      <trkpt lat="53.203480" lon="6.534509">
        <ele>-3.243882</ele>
        <time>2026-09-03T16:31:56.048Z</time>
      </trkpt>
      <trkpt lat="53.203378" lon="6.534553">
        <ele>-3.386923</ele>
        <time>2026-09-03T16:31:58.036Z</time>
      </trkpt>
      <trkpt lat="53.203281" lon="6.534596">
        <ele>-3.523191</ele>
        <time>2026-09-03T16:32:00.037Z</time>
      </trkpt>
      <trkpt lat="53.203154" lon="6.534640">
        <ele>-3.699303</ele>
        <time>2026-09-03T16:32:03.048Z</time>
      </trkpt>
      <trkpt lat="53.203065" lon="6.534674">
        <ele>-3.823268</ele>
        <time>2026-09-03T16:32:05.036Z</time>
      </trkpt>
      <trkpt lat="53.202937" lon="6.534733">
        <ele>-3.729363</ele>
        <time>2026-09-03T16:32:08.040Z</time>
      </trkpt>
      <trkpt lat="53.202829" lon="6.534773">
        <ele>-3.537535</ele>
        <time>2026-09-03T16:32:10.034Z</time>
      </trkpt>
      <trkpt lat="53.202714" lon="6.534841">
        <ele>-3.325983</ele>
        <time>2026-09-03T16:32:13.035Z</time>
      </trkpt>
      <trkpt lat="53.202602" lon="6.534871">
        <ele>-3.129289</ele>
        <time>2026-09-03T16:32:16.040Z</time>
      </trkpt>
      <trkpt lat="53.202497" lon="6.534911">
        <ele>-2.942536</ele>
        <time>2026-09-03T16:32:19.035Z</time>
      </trkpt>
      <trkpt lat="53.202369" lon="6.534964">
        <ele>-2.713855</ele>
        <time>2026-09-03T16:32:22.038Z</time>
      </trkpt>
      <trkpt lat="53.202244" lon="6.535017">
        <ele>-2.490221</ele>
        <time>2026-09-03T16:32:25.040Z</time>
      </trkpt>
      <trkpt lat="53.202123" lon="6.535082">
        <ele>-2.269809</ele>
        <time>2026-09-03T16:32:28.047Z</time>
      </trkpt>
      <trkpt lat="53.202021" lon="6.535124">
        <ele>-2.087637</ele>
        <time>2026-09-03T16:32:31.035Z</time>
      </trkpt>
      <trkpt lat="53.201972" lon="6.534886">
        <ele>-1.826238</ele>
        <time>2026-09-03T16:33:23.035Z</time>
      </trkpt>
      <trkpt lat="53.201960" lon="6.534702">
        <ele>-1.633992</ele>
        <time>2026-09-03T16:33:28.048Z</time>
      </trkpt>
      <trkpt lat="53.201951" lon="6.534526">
        <ele>-1.450520</ele>
        <time>2026-09-03T16:33:32.036Z</time>
      </trkpt>
      <trkpt lat="53.201944" lon="6.534350">
        <ele>-1.267311</ele>
        <time>2026-09-03T16:33:37.032Z</time>
      </trkpt>
      <trkpt lat="53.201937" lon="6.534157">
        <ele>-1.066479</ele>
        <time>2026-09-03T16:33:42.035Z</time>
      </trkpt>
      <trkpt lat="53.201917" lon="6.533982">
        <ele>-0.881432</ele>
        <time>2026-09-03T16:33:46.034Z</time>
      </trkpt>
      <trkpt lat="53.201894" lon="6.533829">
        <ele>-0.773747</ele>
        <time>2026-09-03T16:33:50.037Z</time>
      </trkpt>
      <trkpt lat="53.201792" lon="6.533770">
        <ele>-0.811837</ele>
        <time>2026-09-03T16:33:56.033Z</time>
      </trkpt>
      <trkpt lat="53.201696" lon="6.533794">
        <ele>-0.846088</ele>
        <time>2026-09-03T16:33:59.032Z</time>
      </trkpt>
      <trkpt lat="53.201581" lon="6.533833">
        <ele>-0.887495</ele>
        <time>2026-09-03T16:34:03.047Z</time>
      </trkpt>
      <trkpt lat="53.201494" lon="6.533873">
        <ele>-0.919335</ele>
        <time>2026-09-03T16:34:06.035Z</time>
      </trkpt>
      <trkpt lat="53.201384" lon="6.533920">
        <ele>-0.959400</ele>
        <time>2026-09-03T16:34:10.048Z</time>
      </trkpt>
      <trkpt lat="53.201284" lon="6.533958">
        <ele>-0.995588</ele>
        <time>2026-09-03T16:34:14.035Z</time>
      </trkpt>
      <trkpt lat="53.201181" lon="6.533985">
        <ele>-1.032376</ele>
        <time>2026-09-03T16:34:18.038Z</time>
      </trkpt>
      <trkpt lat="53.201065" lon="6.534021">
        <ele>-1.074008</ele>
        <time>2026-09-03T16:34:22.038Z</time>
      </trkpt>
      <trkpt lat="53.200956" lon="6.534054">
        <ele>-1.113096</ele>
        <time>2026-09-03T16:34:26.035Z</time>
      </trkpt>
      <trkpt lat="53.200863" lon="6.534086">
        <ele>-1.146601</ele>
        <time>2026-09-03T16:34:30.039Z</time>
      </trkpt>
      <trkpt lat="53.200757" lon="6.534113">
        <ele>-1.184436</ele>
        <time>2026-09-03T16:34:35.040Z</time>
      </trkpt>
      <trkpt lat="53.200759" lon="6.534272">
        <ele>-1.218050</ele>
        <time>2026-09-03T16:34:42.040Z</time>
      </trkpt>
      <trkpt lat="53.200782" lon="6.534435">
        <ele>-1.253445</ele>
        <time>2026-09-03T16:34:48.043Z</time>
      </trkpt>
      <trkpt lat="53.200809" lon="6.534578">
        <ele>-1.285135</ele>
        <time>2026-09-03T16:34:53.040Z</time>
      </trkpt>
      <trkpt lat="53.200695" lon="6.534580">
        <ele>-1.325362</ele>
        <time>2026-09-03T16:35:07.041Z</time>
      </trkpt>
      <trkpt lat="53.200605" lon="6.534618">
        <ele>-1.358119</ele>
        <time>2026-09-03T16:35:11.041Z</time>
      </trkpt>
      <trkpt lat="53.200491" lon="6.534650">
        <ele>-1.398919</ele>
        <time>2026-09-03T16:35:15.037Z</time>
      </trkpt>
      <trkpt lat="53.200400" lon="6.534687">
        <ele>-1.490672</ele>
        <time>2026-09-03T16:35:18.037Z</time>
      </trkpt>
      <trkpt lat="53.200310" lon="6.534713">
        <ele>-1.580151</ele>
        <time>2026-09-03T16:35:22.047Z</time>
      </trkpt>
      <trkpt lat="53.200207" lon="6.534736">
        <ele>-1.681952</ele>
        <time>2026-09-03T16:35:27.034Z</time>
      </trkpt>
      <trkpt lat="53.200098" lon="6.534786">
        <ele>-1.792691</ele>
        <time>2026-09-03T16:35:31.050Z</time>
      </trkpt>
      <trkpt lat="53.199986" lon="6.534835">
        <ele>-1.906116</ele>
        <time>2026-09-03T16:35:35.049Z</time>
      </trkpt>
      <trkpt lat="53.199898" lon="6.534880">
        <ele>-1.996278</ele>
        <time>2026-09-03T16:35:39.036Z</time>
      </trkpt>
      <trkpt lat="53.199796" lon="6.534926">
        <ele>-2.099784</ele>
        <time>2026-09-03T16:35:43.033Z</time>
      </trkpt>
      <trkpt lat="53.199689" lon="6.534970">
        <ele>-2.207739</ele>
        <time>2026-09-03T16:35:47.036Z</time>
      </trkpt>
      <trkpt lat="53.199587" lon="6.535014">
        <ele>-2.310944</ele>
        <time>2026-09-03T16:35:51.047Z</time>
      </trkpt>
      <trkpt lat="53.199497" lon="6.535030">
        <ele>-2.399611</ele>
        <time>2026-09-03T16:35:55.041Z</time>
      </trkpt>
      <trkpt lat="53.199407" lon="6.535065">
        <ele>-2.490139</ele>
        <time>2026-09-03T16:35:59.042Z</time>
      </trkpt>
      <trkpt lat="53.199319" lon="6.535115">
        <ele>-2.581204</ele>
        <time>2026-09-03T16:36:05.040Z</time>
      </trkpt>
      <trkpt lat="53.199229" lon="6.535091">
        <ele>-2.670490</ele>
        <time>2026-09-03T16:36:15.035Z</time>
      </trkpt>
      <trkpt lat="53.199219" lon="6.534911">
        <ele>-2.776574</ele>
        <time>2026-09-03T16:36:20.040Z</time>
      </trkpt>
      <trkpt lat="53.199208" lon="6.534746">
        <ele>-2.874000</ele>
        <time>2026-09-03T16:36:24.041Z</time>
      </trkpt>
      <trkpt lat="53.199168" lon="6.534568">
        <ele>-2.985565</ele>
        <time>2026-09-03T16:36:30.037Z</time>
      </trkpt>
      <trkpt lat="53.199150" lon="6.534394">
        <ele>-3.089187</ele>
        <time>2026-09-03T16:36:34.039Z</time>
      </trkpt>
      <trkpt lat="53.199140" lon="6.534237">
        <ele>-3.157246</ele>
        <time>2026-09-03T16:36:38.035Z</time>
      </trkpt>
      <trkpt lat="53.199031" lon="6.534230">
        <ele>-3.138437</ele>
        <time>2026-09-03T16:36:42.036Z</time>
      </trkpt>
      <trkpt lat="53.198941" lon="6.534270">
        <ele>-3.122378</ele>
        <time>2026-09-03T16:36:45.037Z</time>
      </trkpt>
      <trkpt lat="53.198839" lon="6.534309">
        <ele>-3.104335</ele>
        <time>2026-09-03T16:36:49.047Z</time>
      </trkpt>
      <trkpt lat="53.198732" lon="6.534318">
        <ele>-3.085862</ele>
        <time>2026-09-03T16:36:53.036Z</time>
      </trkpt>
      <trkpt lat="53.198638" lon="6.534341">
        <ele>-3.069481</ele>
        <time>2026-09-03T16:36:56.036Z</time>
      </trkpt>
      <trkpt lat="53.198546" lon="6.534374">
        <ele>-3.053256</ele>
        <time>2026-09-03T16:36:59.044Z</time>
      </trkpt>
      <trkpt lat="53.198455" lon="6.534418">
        <ele>-3.036920</ele>
        <time>2026-09-03T16:37:03.035Z</time>
      </trkpt>
      <trkpt lat="53.198357" lon="6.534474">
        <ele>-3.019059</ele>
        <time>2026-09-03T16:37:07.047Z</time>
      </trkpt>
      <trkpt lat="53.198267" lon="6.534443">
        <ele>-3.003214</ele>
        <time>2026-09-03T16:37:12.035Z</time>
      </trkpt>
      <trkpt lat="53.198240" lon="6.534271">
        <ele>-2.984848</ele>
        <time>2026-09-03T16:37:17.039Z</time>
      </trkpt>
      <trkpt lat="53.198221" lon="6.534107">
        <ele>-2.967594</ele>
        <time>2026-09-03T16:37:22.037Z</time>
      </trkpt>
      <trkpt lat="53.198127" lon="6.534099">
        <ele>-2.951365</ele>
        <time>2026-09-03T16:37:27.048Z</time>
      </trkpt>
      <trkpt lat="53.198016" lon="6.534105">
        <ele>-2.932216</ele>
        <time>2026-09-03T16:37:31.034Z</time>
      </trkpt>
      <trkpt lat="53.197900" lon="6.534136">
        <ele>-2.911960</ele>
        <time>2026-09-03T16:37:35.048Z</time>
      </trkpt>
      <trkpt lat="53.197794" lon="6.534164">
        <ele>-2.893455</ele>
        <time>2026-09-03T16:37:39.041Z</time>
      </trkpt>
      <trkpt lat="53.197704" lon="6.534185">
        <ele>-2.877786</ele>
        <time>2026-09-03T16:37:42.033Z</time>
      </trkpt>
      <trkpt lat="53.197588" lon="6.534224">
        <ele>-2.857382</ele>
        <time>2026-09-03T16:37:46.038Z</time>
      </trkpt>
      <trkpt lat="53.197473" lon="6.534259">
        <ele>-2.708662</ele>
        <time>2026-09-03T16:37:50.038Z</time>
      </trkpt>
      <trkpt lat="53.197360" lon="6.534318">
        <ele>-2.494774</ele>
        <time>2026-09-03T16:37:54.035Z</time>
      </trkpt>
      <trkpt lat="53.197246" lon="6.534356">
        <ele>-2.284765</ele>
        <time>2026-09-03T16:37:59.038Z</time>
      </trkpt>
      <trkpt lat="53.197148" lon="6.534367">
        <ele>-2.107327</ele>
        <time>2026-09-03T16:38:03.049Z</time>
      </trkpt>
      <trkpt lat="53.197055" lon="6.534396">
        <ele>-1.936416</ele>
        <time>2026-09-03T16:38:07.048Z</time>
      </trkpt>
      <trkpt lat="53.196952" lon="6.534442">
        <ele>-1.743800</ele>
        <time>2026-09-03T16:38:12.040Z</time>
      </trkpt>
      <trkpt lat="53.196876" lon="6.534359">
        <ele>-1.579732</ele>
        <time>2026-09-03T16:38:19.040Z</time>
      </trkpt>
      <trkpt lat="53.196863" lon="6.534208">
        <ele>-1.414638</ele>
        <time>2026-09-03T16:38:25.040Z</time>
      </trkpt>
      <trkpt lat="53.196790" lon="6.534114">
        <ele>-1.248085</ele>
        <time>2026-09-03T16:38:40.034Z</time>
      </trkpt>
      <trkpt lat="53.196668" lon="6.534150">
        <ele>-1.024273</ele>
        <time>2026-09-03T16:39:07.049Z</time>
      </trkpt>
      <trkpt lat="53.196680" lon="6.534305">
        <ele>-0.855133</ele>
        <time>2026-09-03T16:39:24.047Z</time>
      </trkpt>
      <trkpt lat="53.196772" lon="6.534312">
        <ele>-0.688762</ele>
        <time>2026-09-03T16:39:34.047Z</time>
      </trkpt>
      <trkpt lat="53.196868" lon="6.534274">
        <ele>-0.510527</ele>
        <time>2026-09-03T16:39:46.036Z</time>
      </trkpt>
      <trkpt lat="53.196892" lon="6.534429">
        <ele>-0.337270</ele>
        <time>2026-09-03T16:39:54.048Z</time>
      </trkpt>
      <trkpt lat="53.196982" lon="6.534461">
        <ele>-0.171037</ele>
        <time>2026-09-03T16:40:02.048Z</time>
      </trkpt>
      <trkpt lat="53.197125" lon="6.534394">
        <ele>0.097277</ele>
        <time>2026-09-03T16:40:20.034Z</time>
      </trkpt>
      <trkpt lat="53.197189" lon="6.534541">
        <ele>0.293938</ele>
        <time>2026-09-03T16:40:26.033Z</time>
      </trkpt>
      <trkpt lat="53.197210" lon="6.534710">
        <ele>0.406418</ele>
        <time>2026-09-03T16:40:30.035Z</time>
      </trkpt>
      <trkpt lat="53.197235" lon="6.534868">
        <ele>0.423489</ele>
        <time>2026-09-03T16:40:34.041Z</time>
      </trkpt>
      <trkpt lat="53.197270" lon="6.535047">
        <ele>0.443160</ele>
        <time>2026-09-03T16:40:39.036Z</time>
      </trkpt>
      <trkpt lat="53.197314" lon="6.535210">
        <ele>0.461837</ele>
        <time>2026-09-03T16:40:43.035Z</time>
      </trkpt>
      <trkpt lat="53.197206" lon="6.535257">
        <ele>0.481300</ele>
        <time>2026-09-03T16:41:08.035Z</time>
      </trkpt>
      <trkpt lat="53.197099" lon="6.535286">
        <ele>0.500204</ele>
        <time>2026-09-03T16:41:13.035Z</time>
      </trkpt>
      <trkpt lat="53.197197" lon="6.535253">
        <ele>0.517638</ele>
        <time>2026-09-03T16:41:30.038Z</time>
      </trkpt>
      <trkpt lat="53.197288" lon="6.535221">
        <ele>0.533855</ele>
        <time>2026-09-03T16:41:34.037Z</time>
      </trkpt>
      <trkpt lat="53.197346" lon="6.535349">
        <ele>0.550621</ele>
        <time>2026-09-03T16:41:40.036Z</time>
      </trkpt>
      <trkpt lat="53.197401" lon="6.535521">
        <ele>0.570989</ele>
        <time>2026-09-03T16:41:45.048Z</time>
      </trkpt>
      <trkpt lat="53.197436" lon="6.535680">
        <ele>0.588685</ele>
        <time>2026-09-03T16:41:49.048Z</time>
      </trkpt>
      <trkpt lat="53.197479" lon="6.535828">
        <ele>0.605869</ele>
        <time>2026-09-03T16:41:53.041Z</time>
      </trkpt>
      <trkpt lat="53.197513" lon="6.535988">
        <ele>0.623604</ele>
        <time>2026-09-03T16:41:57.041Z</time>
      </trkpt>
      <trkpt lat="53.197550" lon="6.536131">
        <ele>0.639876</ele>
        <time>2026-09-03T16:42:01.034Z</time>
      </trkpt>
      <trkpt lat="53.197581" lon="6.536277">
        <ele>0.656058</ele>
        <time>2026-09-03T16:42:05.034Z</time>
      </trkpt>
      <trkpt lat="53.197627" lon="6.536445">
        <ele>0.675355</ele>
        <time>2026-09-03T16:42:10.034Z</time>
      </trkpt>
      <trkpt lat="53.197628" lon="6.536602">
        <ele>0.691757</ele>
        <time>2026-09-03T16:42:15.033Z</time>
      </trkpt>
      <trkpt lat="53.197562" lon="6.536745">
        <ele>0.710615</ele>
        <time>2026-09-03T16:42:22.039Z</time>
      </trkpt>
      <trkpt lat="53.197465" lon="6.536726">
        <ele>0.739278</ele>
        <time>2026-09-03T16:42:25.041Z</time>
      </trkpt>
      <trkpt lat="53.197373" lon="6.536755">
        <ele>0.767847</ele>
        <time>2026-09-03T16:42:28.040Z</time>
      </trkpt>
      <trkpt lat="53.197267" lon="6.536742">
        <ele>0.800278</ele>
        <time>2026-09-03T16:42:32.038Z</time>
      </trkpt>
      <trkpt lat="53.197146" lon="6.536754">
        <ele>0.837265</ele>
        <time>2026-09-03T16:42:36.039Z</time>
      </trkpt>
      <trkpt lat="53.197035" lon="6.536786">
        <ele>0.871637</ele>
        <time>2026-09-03T16:42:40.034Z</time>
      </trkpt>
      <trkpt lat="53.196943" lon="6.536777">
        <ele>0.899758</ele>
        <time>2026-09-03T16:42:44.035Z</time>
      </trkpt>
      <trkpt lat="53.196864" lon="6.536672">
        <ele>0.930572</ele>
        <time>2026-09-03T16:42:47.034Z</time>
      </trkpt>
      <trkpt lat="53.196753" lon="6.536559">
        <ele>0.970244</ele>
        <time>2026-09-03T16:42:50.035Z</time>
      </trkpt>
      <trkpt lat="53.196640" lon="6.536461">
        <ele>1.009101</ele>
        <time>2026-09-03T16:42:53.040Z</time>
      </trkpt>
      <trkpt lat="53.196529" lon="6.536446">
        <ele>1.043082</ele>
        <time>2026-09-03T16:42:56.040Z</time>
      </trkpt>
      <trkpt lat="53.196409" lon="6.536502">
        <ele>1.081102</ele>
        <time>2026-09-03T16:42:59.048Z</time>
      </trkpt>
      <trkpt lat="53.196297" lon="6.536464">
        <ele>1.115977</ele>
        <time>2026-09-03T16:43:02.040Z</time>
      </trkpt>
      <trkpt lat="53.196200" lon="6.536366">
        <ele>1.150574</ele>
        <time>2026-09-03T16:43:05.041Z</time>
      </trkpt>
      <trkpt lat="53.196168" lon="6.536188">
        <ele>1.184546</ele>
        <time>2026-09-03T16:43:08.040Z</time>
      </trkpt>
      <trkpt lat="53.196165" lon="6.535985">
        <ele>1.221666</ele>
        <time>2026-09-03T16:43:11.040Z</time>
      </trkpt>
      <trkpt lat="53.196184" lon="6.535779">
        <ele>1.259767</ele>
        <time>2026-09-03T16:43:14.042Z</time>
      </trkpt>
      <trkpt lat="53.196178" lon="6.535578">
        <ele>1.299200</ele>
        <time>2026-09-03T16:43:17.040Z</time>
      </trkpt>
      <trkpt lat="53.196171" lon="6.535356">
        <ele>1.342858</ele>
        <time>2026-09-03T16:43:20.040Z</time>
      </trkpt>
      <trkpt lat="53.196172" lon="6.535150">
        <ele>1.383314</ele>
        <time>2026-09-03T16:43:23.047Z</time>
      </trkpt>
      <trkpt lat="53.196180" lon="6.534944">
        <ele>1.423855</ele>
        <time>2026-09-03T16:43:26.036Z</time>
      </trkpt>
      <trkpt lat="53.196195" lon="6.534787">
        <ele>1.455077</ele>
        <time>2026-09-03T16:43:28.036Z</time>
      </trkpt>
      <trkpt lat="53.196196" lon="6.534567">
        <ele>1.498283</ele>
        <time>2026-09-03T16:43:31.034Z</time>
      </trkpt>
      <trkpt lat="53.196187" lon="6.534360">
        <ele>1.539041</ele>
        <time>2026-09-03T16:43:34.034Z</time>
      </trkpt>
      <trkpt lat="53.196182" lon="6.534169">
        <ele>1.576587</ele>
        <time>2026-09-03T16:43:37.036Z</time>
      </trkpt>
      <trkpt lat="53.196189" lon="6.533954">
        <ele>1.618872</ele>
        <time>2026-09-03T16:43:41.040Z</time>
      </trkpt>
      <trkpt lat="53.196199" lon="6.533748">
        <ele>1.659459</ele>
        <time>2026-09-03T16:43:44.041Z</time>
      </trkpt>
      <trkpt lat="53.196204" lon="6.533527">
        <ele>1.702891</ele>
        <time>2026-09-03T16:43:47.041Z</time>
      </trkpt>
      <trkpt lat="53.196206" lon="6.533374">
        <ele>1.732945</ele>
        <time>2026-09-03T16:43:49.041Z</time>
      </trkpt>
      <trkpt lat="53.196211" lon="6.533170">
        <ele>1.773041</ele>
        <time>2026-09-03T16:43:52.035Z</time>
      </trkpt>
      <trkpt lat="53.196209" lon="6.532970">
        <ele>1.812324</ele>
        <time>2026-09-03T16:43:55.043Z</time>
      </trkpt>
      <trkpt lat="53.196217" lon="6.532771">
        <ele>1.851697</ele>
        <time>2026-09-03T16:43:58.040Z</time>
      </trkpt>
      <trkpt lat="53.196223" lon="6.532571">
        <ele>1.899902</ele>
        <time>2026-09-03T16:44:01.036Z</time>
      </trkpt>
      <trkpt lat="53.196225" lon="6.532362">
        <ele>1.950220</ele>
        <time>2026-09-03T16:44:04.039Z</time>
      </trkpt>
      <trkpt lat="53.196220" lon="6.532148">
        <ele>2.001775</ele>
        <time>2026-09-03T16:44:07.040Z</time>
      </trkpt>
      <trkpt lat="53.196223" lon="6.531995">
        <ele>2.038625</ele>
        <time>2026-09-03T16:44:09.040Z</time>
      </trkpt>
      <trkpt lat="53.196235" lon="6.531843">
        <ele>2.075532</ele>
        <time>2026-09-03T16:44:11.040Z</time>
      </trkpt>
      <trkpt lat="53.196245" lon="6.531619">
        <ele>2.129604</ele>
        <time>2026-09-03T16:44:14.034Z</time>
      </trkpt>
      <trkpt lat="53.196248" lon="6.531415">
        <ele>2.178727</ele>
        <time>2026-09-03T16:44:17.040Z</time>
      </trkpt>
      <trkpt lat="53.196256" lon="6.531218">
        <ele>2.226259</ele>
        <time>2026-09-03T16:44:20.036Z</time>
      </trkpt>
      <trkpt lat="53.196257" lon="6.531022">
        <ele>2.273443</ele>
        <time>2026-09-03T16:44:23.038Z</time>
      </trkpt>
      <trkpt lat="53.196261" lon="6.530827">
        <ele>2.320412</ele>
        <time>2026-09-03T16:44:26.048Z</time>
      </trkpt>
      <trkpt lat="53.196272" lon="6.530624">
        <ele>2.369478</ele>
        <time>2026-09-03T16:44:29.037Z</time>
      </trkpt>
      <trkpt lat="53.196286" lon="6.530407">
        <ele>2.422018</ele>
        <time>2026-09-03T16:44:32.036Z</time>
      </trkpt>
      <trkpt lat="53.196298" lon="6.530193">
        <ele>2.473758</ele>
        <time>2026-09-03T16:44:35.037Z</time>
      </trkpt>
      <trkpt lat="53.196313" lon="6.530001">
        <ele>2.520369</ele>
        <time>2026-09-03T16:44:38.047Z</time>
      </trkpt>
      <trkpt lat="53.196330" lon="6.529793">
        <ele>2.570903</ele>
        <time>2026-09-03T16:44:41.040Z</time>
      </trkpt>
      <trkpt lat="53.196353" lon="6.529581">
        <ele>2.510548</ele>
        <time>2026-09-03T16:44:44.037Z</time>
      </trkpt>
      <trkpt lat="53.196376" lon="6.529381">
        <ele>2.448286</ele>
        <time>2026-09-03T16:44:47.041Z</time>
      </trkpt>
      <trkpt lat="53.196400" lon="6.529185">
        <ele>2.387126</ele>
        <time>2026-09-03T16:44:50.037Z</time>
      </trkpt>
      <trkpt lat="53.196423" lon="6.528971">
        <ele>2.320656</ele>
        <time>2026-09-03T16:44:53.035Z</time>
      </trkpt>
      <trkpt lat="53.196439" lon="6.528822">
        <ele>2.274377</ele>
        <time>2026-09-03T16:44:55.035Z</time>
      </trkpt>
      <trkpt lat="53.196462" lon="6.528676">
        <ele>2.228224</ele>
        <time>2026-09-03T16:44:57.036Z</time>
      </trkpt>
      <trkpt lat="53.196484" lon="6.528530">
        <ele>2.182198</ele>
        <time>2026-09-03T16:44:59.050Z</time>
      </trkpt>
      <trkpt lat="53.196502" lon="6.528378">
        <ele>2.134829</ele>
        <time>2026-09-03T16:45:01.036Z</time>
      </trkpt>
      <trkpt lat="53.196525" lon="6.528229">
        <ele>2.087788</ele>
        <time>2026-09-03T16:45:03.048Z</time>
      </trkpt>
      <trkpt lat="53.196547" lon="6.528069">
        <ele>2.037600</ele>
        <time>2026-09-03T16:45:05.048Z</time>
      </trkpt>
      <trkpt lat="53.196575" lon="6.527911">
        <ele>1.987227</ele>
        <time>2026-09-03T16:45:07.049Z</time>
      </trkpt>
      <trkpt lat="53.196618" lon="6.527705">
        <ele>1.920534</ele>
        <time>2026-09-03T16:45:10.047Z</time>
      </trkpt>
      <trkpt lat="53.196656" lon="6.527495">
        <ele>1.853467</ele>
        <time>2026-09-03T16:45:13.040Z</time>
      </trkpt>
      <trkpt lat="53.196697" lon="6.527280">
        <ele>1.784487</ele>
        <time>2026-09-03T16:45:16.034Z</time>
      </trkpt>
      <trkpt lat="53.196719" lon="6.527074">
        <ele>1.720515</ele>
        <time>2026-09-03T16:45:19.037Z</time>
      </trkpt>
      <trkpt lat="53.196650" lon="6.526894">
        <ele>1.655359</ele>
        <time>2026-09-03T16:45:22.035Z</time>
      </trkpt>
      <trkpt lat="53.196651" lon="6.526679">
        <ele>1.635854</ele>
        <time>2026-09-03T16:45:25.033Z</time>
      </trkpt>
      <trkpt lat="53.196688" lon="6.526473">
        <ele>1.616344</ele>
        <time>2026-09-03T16:45:28.034Z</time>
      </trkpt>
      <trkpt lat="53.196735" lon="6.526262">
        <ele>1.595921</ele>
        <time>2026-09-03T16:45:31.035Z</time>
      </trkpt>
      <trkpt lat="53.196757" lon="6.526109">
        <ele>1.581647</ele>
        <time>2026-09-03T16:45:33.047Z</time>
      </trkpt>
      <trkpt lat="53.196784" lon="6.525955">
        <ele>1.567090</ele>
        <time>2026-09-03T16:45:35.038Z</time>
      </trkpt>
      <trkpt lat="53.196809" lon="6.525800">
        <ele>1.552528</ele>
        <time>2026-09-03T16:45:37.042Z</time>
      </trkpt>
      <trkpt lat="53.196838" lon="6.525654">
        <ele>1.538574</ele>
        <time>2026-09-03T16:45:39.047Z</time>
      </trkpt>
      <trkpt lat="53.196868" lon="6.525505">
        <ele>1.524314</ele>
        <time>2026-09-03T16:45:41.034Z</time>
      </trkpt>
      <trkpt lat="53.196896" lon="6.525354">
        <ele>1.509974</ele>
        <time>2026-09-03T16:45:43.035Z</time>
      </trkpt>
      <trkpt lat="53.196922" lon="6.525203">
        <ele>1.495721</ele>
        <time>2026-09-03T16:45:45.054Z</time>
      </trkpt>
      <trkpt lat="53.196958" lon="6.525056">
        <ele>1.481314</ele>
        <time>2026-09-03T16:45:47.041Z</time>
      </trkpt>
      <trkpt lat="53.196990" lon="6.524902">
        <ele>1.466527</ele>
        <time>2026-09-03T16:45:49.050Z</time>
      </trkpt>
      <trkpt lat="53.197024" lon="6.524751">
        <ele>1.451893</ele>
        <time>2026-09-03T16:45:51.038Z</time>
      </trkpt>
      <trkpt lat="53.197052" lon="6.524592">
        <ele>1.436858</ele>
        <time>2026-09-03T16:45:53.047Z</time>
      </trkpt>
      <trkpt lat="53.197087" lon="6.524448">
        <ele>1.422761</ele>
        <time>2026-09-03T16:45:55.035Z</time>
      </trkpt>
      <trkpt lat="53.197126" lon="6.524310">
        <ele>1.408918</ele>
        <time>2026-09-03T16:45:57.041Z</time>
      </trkpt>
      <trkpt lat="53.197160" lon="6.524170">
        <ele>1.395214</ele>
        <time>2026-09-03T16:45:59.047Z</time>
      </trkpt>
      <trkpt lat="53.197186" lon="6.524020">
        <ele>1.384517</ele>
        <time>2026-09-03T16:46:01.047Z</time>
      </trkpt>
      <trkpt lat="53.197239" lon="6.523809">
        <ele>1.399588</ele>
        <time>2026-09-03T16:46:04.038Z</time>
      </trkpt>
      <trkpt lat="53.197271" lon="6.523668">
        <ele>1.409519</ele>
        <time>2026-09-03T16:46:06.040Z</time>
      </trkpt>
      <trkpt lat="53.197308" lon="6.523526">
        <ele>1.419719</ele>
        <time>2026-09-03T16:46:08.036Z</time>
      </trkpt>
      <trkpt lat="53.197351" lon="6.523309">
        <ele>1.434774</ele>
        <time>2026-09-03T16:46:11.038Z</time>
      </trkpt>
      <trkpt lat="53.197389" lon="6.523170">
        <ele>1.444838</ele>
        <time>2026-09-03T16:46:13.047Z</time>
      </trkpt>
      <trkpt lat="53.197421" lon="6.523028">
        <ele>1.454831</ele>
        <time>2026-09-03T16:46:15.047Z</time>
      </trkpt>
      <trkpt lat="53.197476" lon="6.522826">
        <ele>1.469446</ele>
        <time>2026-09-03T16:46:18.036Z</time>
      </trkpt>
      <trkpt lat="53.197531" lon="6.522614">
        <ele>1.484663</ele>
        <time>2026-09-03T16:46:21.035Z</time>
      </trkpt>
      <trkpt lat="53.197576" lon="6.522421">
        <ele>1.498304</ele>
        <time>2026-09-03T16:46:24.036Z</time>
      </trkpt>
      <trkpt lat="53.197671" lon="6.522045">
        <ele>1.525183</ele>
        <time>2026-09-03T16:46:57.035Z</time>
      </trkpt>
      <trkpt lat="53.197711" lon="6.521887">
        <ele>1.536481</ele>
        <time>2026-09-03T16:47:00.042Z</time>
      </trkpt>
      <trkpt lat="53.197750" lon="6.521713">
        <ele>1.548718</ele>
        <time>2026-09-03T16:47:03.034Z</time>
      </trkpt>
      <trkpt lat="53.197791" lon="6.521545">
        <ele>1.560667</ele>
        <time>2026-09-03T16:47:06.043Z</time>
      </trkpt>
      <trkpt lat="53.197827" lon="6.521402">
        <ele>1.570883</ele>
        <time>2026-09-03T16:47:09.035Z</time>
      </trkpt>
      <trkpt lat="53.197878" lon="6.521216">
        <ele>1.568344</ele>
        <time>2026-09-03T16:47:13.034Z</time>
      </trkpt>
      <trkpt lat="53.197919" lon="6.521052">
        <ele>1.527035</ele>
        <time>2026-09-03T16:47:16.047Z</time>
      </trkpt>
      <trkpt lat="53.197966" lon="6.520889">
        <ele>1.484984</ele>
        <time>2026-09-03T16:47:19.043Z</time>
      </trkpt>
      <trkpt lat="53.198010" lon="6.520704">
        <ele>1.438714</ele>
        <time>2026-09-03T16:47:22.042Z</time>
      </trkpt>
      <trkpt lat="53.198056" lon="6.520514">
        <ele>1.391077</ele>
        <time>2026-09-03T16:47:25.031Z</time>
      </trkpt>
      <trkpt lat="53.198087" lon="6.520316">
        <ele>1.343505</ele>
        <time>2026-09-03T16:47:28.035Z</time>
      </trkpt>
      <trkpt lat="53.198096" lon="6.520111">
        <ele>1.295725</ele>
        <time>2026-09-03T16:47:31.032Z</time>
      </trkpt>
      <trkpt lat="53.198116" lon="6.519909">
        <ele>1.248132</ele>
        <time>2026-09-03T16:47:34.036Z</time>
      </trkpt>
      <trkpt lat="53.198146" lon="6.519728">
        <ele>1.204477</ele>
        <time>2026-09-03T16:47:37.036Z</time>
      </trkpt>
      <trkpt lat="53.198176" lon="6.519524">
        <ele>1.155648</ele>
        <time>2026-09-03T16:47:40.035Z</time>
      </trkpt>
      <trkpt lat="53.198206" lon="6.519314">
        <ele>1.105464</ele>
        <time>2026-09-03T16:47:43.043Z</time>
      </trkpt>
      <trkpt lat="53.198285" lon="6.519186">
        <ele>1.062744</ele>
        <time>2026-09-03T16:47:46.039Z</time>
      </trkpt>
      <trkpt lat="53.198383" lon="6.519238">
        <ele>1.022841</ele>
        <time>2026-09-03T16:47:49.036Z</time>
      </trkpt>
      <trkpt lat="53.198474" lon="6.519136">
        <ele>0.980308</ele>
        <time>2026-09-03T16:47:52.043Z</time>
      </trkpt>
      <trkpt lat="53.198521" lon="6.518943">
        <ele>0.931880</ele>
        <time>2026-09-03T16:47:55.045Z</time>
      </trkpt>
      <trkpt lat="53.198568" lon="6.518743">
        <ele>0.883493</ele>
        <time>2026-09-03T16:47:58.034Z</time>
      </trkpt>
      <trkpt lat="53.198606" lon="6.518607">
        <ele>0.906237</ele>
        <time>2026-09-03T16:48:00.043Z</time>
      </trkpt>
      <trkpt lat="53.198644" lon="6.518468">
        <ele>0.929395</ele>
        <time>2026-09-03T16:48:02.031Z</time>
      </trkpt>
      <trkpt lat="53.198694" lon="6.518281">
        <ele>0.960432</ele>
        <time>2026-09-03T16:48:05.035Z</time>
      </trkpt>
      <trkpt lat="53.198742" lon="6.518078">
        <ele>0.993510</ele>
        <time>2026-09-03T16:48:08.035Z</time>
      </trkpt>
      <trkpt lat="53.198776" lon="6.517938">
        <ele>1.016406</ele>
        <time>2026-09-03T16:48:10.034Z</time>
      </trkpt>
      <trkpt lat="53.198824" lon="6.517746">
        <ele>1.047939</ele>
        <time>2026-09-03T16:48:13.043Z</time>
      </trkpt>
      <trkpt lat="53.198864" lon="6.517565">
        <ele>1.077179</ele>
        <time>2026-09-03T16:48:16.035Z</time>
      </trkpt>
      <trkpt lat="53.198904" lon="6.517363">
        <ele>1.109424</ele>
        <time>2026-09-03T16:48:19.035Z</time>
      </trkpt>
      <trkpt lat="53.198947" lon="6.517169">
        <ele>1.140775</ele>
        <time>2026-09-03T16:48:22.044Z</time>
      </trkpt>
      <trkpt lat="53.198977" lon="6.517022">
        <ele>1.164313</ele>
        <time>2026-09-03T16:48:24.044Z</time>
      </trkpt>
      <trkpt lat="53.199021" lon="6.516812">
        <ele>1.198031</ele>
        <time>2026-09-03T16:48:27.036Z</time>
      </trkpt>
      <trkpt lat="53.199056" lon="6.516671">
        <ele>1.221164</ele>
        <time>2026-09-03T16:48:29.036Z</time>
      </trkpt>
      <trkpt lat="53.199090" lon="6.516516">
        <ele>1.246181</ele>
        <time>2026-09-03T16:48:31.043Z</time>
      </trkpt>
      <trkpt lat="53.199127" lon="6.516361">
        <ele>1.271470</ele>
        <time>2026-09-03T16:48:33.035Z</time>
      </trkpt>
      <trkpt lat="53.199167" lon="6.516204">
        <ele>1.297328</ele>
        <time>2026-09-03T16:48:35.043Z</time>
      </trkpt>
      <trkpt lat="53.199221" lon="6.516016">
        <ele>1.328928</ele>
        <time>2026-09-03T16:48:38.043Z</time>
      </trkpt>
      <trkpt lat="53.199271" lon="6.515834">
        <ele>1.402416</ele>
        <time>2026-09-03T16:48:41.034Z</time>
      </trkpt>
      <trkpt lat="53.199329" lon="6.515654">
        <ele>1.496077</ele>
        <time>2026-09-03T16:48:44.043Z</time>
      </trkpt>
      <trkpt lat="53.199402" lon="6.515541">
        <ele>1.572234</ele>
        <time>2026-09-03T16:48:47.044Z</time>
      </trkpt>
      <trkpt lat="53.199399" lon="6.515725">
        <ele>1.656583</ele>
        <time>2026-09-03T16:48:51.033Z</time>
      </trkpt>
      <trkpt lat="53.199348" lon="6.515886">
        <ele>1.740041</ele>
        <time>2026-09-03T16:48:54.031Z</time>
      </trkpt>
      <trkpt lat="53.199298" lon="6.516055">
        <ele>1.826415</ele>
        <time>2026-09-03T16:48:57.045Z</time>
      </trkpt>
      <trkpt lat="53.199260" lon="6.516208">
        <ele>1.902315</ele>
        <time>2026-09-03T16:49:00.046Z</time>
      </trkpt>
      <trkpt lat="53.199170" lon="6.516290">
        <ele>1.980750</ele>
        <time>2026-09-03T16:49:04.036Z</time>
      </trkpt>
      <trkpt lat="53.199080" lon="6.516195">
        <ele>2.062207</ele>
        <time>2026-09-03T16:49:07.044Z</time>
      </trkpt>
      <trkpt lat="53.198973" lon="6.516103">
        <ele>2.154279</ele>
        <time>2026-09-03T16:49:10.043Z</time>
      </trkpt>
      <trkpt lat="53.198888" lon="6.516047">
        <ele>2.224184</ele>
        <time>2026-09-03T16:49:12.044Z</time>
      </trkpt>
      <trkpt lat="53.198790" lon="6.515975">
        <ele>2.306091</ele>
        <time>2026-09-03T16:49:14.047Z</time>
      </trkpt>
      <trkpt lat="53.198688" lon="6.515899">
        <ele>2.391539</ele>
        <time>2026-09-03T16:49:16.044Z</time>
      </trkpt>
      <trkpt lat="53.198557" lon="6.515846">
        <ele>2.494652</ele>
        <time>2026-09-03T16:49:18.039Z</time>
      </trkpt>
      <trkpt lat="53.198443" lon="6.515727">
        <ele>2.597507</ele>
        <time>2026-09-03T16:49:21.037Z</time>
      </trkpt>
      <trkpt lat="53.198401" lon="6.515591">
        <ele>2.667624</ele>
        <time>2026-09-03T16:49:23.032Z</time>
      </trkpt>
      <trkpt lat="53.198324" lon="6.515507">
        <ele>2.715816</ele>
        <time>2026-09-03T16:49:25.036Z</time>
      </trkpt>
      <trkpt lat="53.198229" lon="6.515389">
        <ele>2.723085</ele>
        <time>2026-09-03T16:49:28.036Z</time>
      </trkpt>
      <trkpt lat="53.198143" lon="6.515276">
        <ele>2.729803</ele>
        <time>2026-09-03T16:49:31.037Z</time>
      </trkpt>
      <trkpt lat="53.198064" lon="6.515137">
        <ele>2.736849</ele>
        <time>2026-09-03T16:49:34.037Z</time>
      </trkpt>
      <trkpt lat="53.197994" lon="6.514997">
        <ele>2.743555</ele>
        <time>2026-09-03T16:49:37.036Z</time>
      </trkpt>
      <trkpt lat="53.197923" lon="6.514855">
        <ele>2.750356</ele>
        <time>2026-09-03T16:49:40.037Z</time>
      </trkpt>
      <trkpt lat="53.197862" lon="6.514690">
        <ele>2.757486</ele>
        <time>2026-09-03T16:49:43.036Z</time>
      </trkpt>
      <trkpt lat="53.197835" lon="6.514514">
        <ele>2.764167</ele>
        <time>2026-09-03T16:49:46.036Z</time>
      </trkpt>
      <trkpt lat="53.197754" lon="6.514447">
        <ele>2.769716</ele>
        <time>2026-09-03T16:49:49.035Z</time>
      </trkpt>
      <trkpt lat="53.197659" lon="6.514517">
        <ele>2.776091</ele>
        <time>2026-09-03T16:49:53.036Z</time>
      </trkpt>
      <trkpt lat="53.197685" lon="6.514667">
        <ele>2.781833</ele>
        <time>2026-09-03T16:49:56.043Z</time>
      </trkpt>
      <trkpt lat="53.197723" lon="6.514820">
        <ele>2.787924</ele>
        <time>2026-09-03T16:49:59.037Z</time>
      </trkpt>
      <trkpt lat="53.197691" lon="6.514993">
        <ele>2.794582</ele>
        <time>2026-09-03T16:50:02.043Z</time>
      </trkpt>
      <trkpt lat="53.197597" lon="6.515124">
        <ele>2.802099</ele>
        <time>2026-09-03T16:50:05.036Z</time>
      </trkpt>
      <trkpt lat="53.197492" lon="6.515257">
        <ele>2.810189</ele>
        <time>2026-09-03T16:50:08.033Z</time>
      </trkpt>
      <trkpt lat="53.197401" lon="6.515380">
        <ele>2.817377</ele>
        <time>2026-09-03T16:50:11.038Z</time>
      </trkpt>
      <trkpt lat="53.197304" lon="6.515502">
        <ele>2.819900</ele>
        <time>2026-09-03T16:50:14.037Z</time>
      </trkpt>
      <trkpt lat="53.197200" lon="6.515638">
        <ele>2.754091</ele>
        <time>2026-09-03T16:50:17.037Z</time>
      </trkpt>
      <trkpt lat="53.197128" lon="6.515733">
        <ele>2.708374</ele>
        <time>2026-09-03T16:50:19.039Z</time>
      </trkpt>
      <trkpt lat="53.197024" lon="6.515873">
        <ele>2.641822</ele>
        <time>2026-09-03T16:50:22.036Z</time>
      </trkpt>
      <trkpt lat="53.196923" lon="6.516014">
        <ele>2.576235</ele>
        <time>2026-09-03T16:50:25.037Z</time>
      </trkpt>
      <trkpt lat="53.196823" lon="6.516154">
        <ele>2.511222</ele>
        <time>2026-09-03T16:50:28.036Z</time>
      </trkpt>
      <trkpt lat="53.196713" lon="6.516278">
        <ele>2.445103</ele>
        <time>2026-09-03T16:50:31.036Z</time>
      </trkpt>
      <trkpt lat="53.196633" lon="6.516371">
        <ele>2.396541</ele>
        <time>2026-09-03T16:50:33.038Z</time>
      </trkpt>
      <trkpt lat="53.196520" lon="6.516470">
        <ele>2.332971</ele>
        <time>2026-09-03T16:50:36.051Z</time>
      </trkpt>
      <trkpt lat="53.196404" lon="6.516538">
        <ele>2.271728</ele>
        <time>2026-09-03T16:50:39.043Z</time>
      </trkpt>
      <trkpt lat="53.196280" lon="6.516596">
        <ele>2.207581</ele>
        <time>2026-09-03T16:50:42.038Z</time>
      </trkpt>
      <trkpt lat="53.196192" lon="6.516629">
        <ele>2.162653</ele>
        <time>2026-09-03T16:50:44.037Z</time>
      </trkpt>
      <trkpt lat="53.196059" lon="6.516658">
        <ele>2.095839</ele>
        <time>2026-09-03T16:50:47.038Z</time>
      </trkpt>
      <trkpt lat="53.195931" lon="6.516679">
        <ele>2.031771</ele>
        <time>2026-09-03T16:50:50.040Z</time>
      </trkpt>
      <trkpt lat="53.195814" lon="6.516690">
        <ele>1.973397</ele>
        <time>2026-09-03T16:50:53.036Z</time>
      </trkpt>
      <trkpt lat="53.195712" lon="6.516752">
        <ele>1.923265</ele>
        <time>2026-09-03T16:50:56.036Z</time>
      </trkpt>
      <trkpt lat="53.195637" lon="6.516912">
        <ele>1.889161</ele>
        <time>2026-09-03T16:50:59.037Z</time>
      </trkpt>
      <trkpt lat="53.195552" lon="6.517083">
        <ele>1.851861</ele>
        <time>2026-09-03T16:51:02.037Z</time>
      </trkpt>
      <trkpt lat="53.195488" lon="6.517200">
        <ele>1.825264</ele>
        <time>2026-09-03T16:51:04.035Z</time>
      </trkpt>
      <trkpt lat="53.195422" lon="6.517328">
        <ele>1.796914</ele>
        <time>2026-09-03T16:51:06.052Z</time>
      </trkpt>
      <trkpt lat="53.195350" lon="6.517458">
        <ele>1.767194</ele>
        <time>2026-09-03T16:51:08.039Z</time>
      </trkpt>
      <trkpt lat="53.195278" lon="6.517570">
        <ele>1.739616</ele>
        <time>2026-09-03T16:51:10.036Z</time>
      </trkpt>
      <trkpt lat="53.195203" lon="6.517679">
        <ele>1.711750</ele>
        <time>2026-09-03T16:51:12.037Z</time>
      </trkpt>
      <trkpt lat="53.195122" lon="6.517779">
        <ele>1.683520</ele>
        <time>2026-09-03T16:51:14.036Z</time>
      </trkpt>
      <trkpt lat="53.195037" lon="6.517870">
        <ele>1.655224</ele>
        <time>2026-09-03T16:51:16.038Z</time>
      </trkpt>
      <trkpt lat="53.194946" lon="6.517948">
        <ele>1.626559</ele>
        <time>2026-09-03T16:51:18.051Z</time>
      </trkpt>
      <trkpt lat="53.194856" lon="6.518031">
        <ele>1.597747</ele>
        <time>2026-09-03T16:51:20.035Z</time>
      </trkpt>
      <trkpt lat="53.194769" lon="6.518093">
        <ele>1.571239</ele>
        <time>2026-09-03T16:51:22.036Z</time>
      </trkpt>
      <trkpt lat="53.194648" lon="6.518177">
        <ele>1.534518</ele>
        <time>2026-09-03T16:51:25.036Z</time>
      </trkpt>
      <trkpt lat="53.194566" lon="6.518243">
        <ele>1.509009</ele>
        <time>2026-09-03T16:51:27.033Z</time>
      </trkpt>
      <trkpt lat="53.194486" lon="6.518311">
        <ele>1.483853</ele>
        <time>2026-09-03T16:51:29.043Z</time>
      </trkpt>
      <trkpt lat="53.194396" lon="6.518380">
        <ele>1.456101</ele>
        <time>2026-09-03T16:51:31.032Z</time>
      </trkpt>
      <trkpt lat="53.194311" lon="6.518458">
        <ele>1.428921</ele>
        <time>2026-09-03T16:51:33.035Z</time>
      </trkpt>
      <trkpt lat="53.194225" lon="6.518521">
        <ele>1.403344</ele>
        <time>2026-09-03T16:51:35.039Z</time>
      </trkpt>
      <trkpt lat="53.194130" lon="6.518588">
        <ele>1.375429</ele>
        <time>2026-09-03T16:51:37.038Z</time>
      </trkpt>
      <trkpt lat="53.194042" lon="6.518658">
        <ele>1.349044</ele>
        <time>2026-09-03T16:51:39.041Z</time>
      </trkpt>
      <trkpt lat="53.193946" lon="6.518732">
        <ele>1.320422</ele>
        <time>2026-09-03T16:51:41.037Z</time>
      </trkpt>
      <trkpt lat="53.193854" lon="6.518795">
        <ele>1.293506</ele>
        <time>2026-09-03T16:51:43.035Z</time>
      </trkpt>
      <trkpt lat="53.193768" lon="6.518875">
        <ele>1.266858</ele>
        <time>2026-09-03T16:51:45.043Z</time>
      </trkpt>
      <trkpt lat="53.193682" lon="6.518952">
        <ele>1.240443</ele>
        <time>2026-09-03T16:51:47.037Z</time>
      </trkpt>
      <trkpt lat="53.193589" lon="6.519013">
        <ele>1.213397</ele>
        <time>2026-09-03T16:51:49.043Z</time>
      </trkpt>
      <trkpt lat="53.193509" lon="6.519086">
        <ele>1.188718</ele>
        <time>2026-09-03T16:51:51.044Z</time>
      </trkpt>
      <trkpt lat="53.193416" lon="6.519157">
        <ele>1.161038</ele>
        <time>2026-09-03T16:51:53.044Z</time>
      </trkpt>
      <trkpt lat="53.193326" lon="6.519215">
        <ele>1.134925</ele>
        <time>2026-09-03T16:51:55.034Z</time>
      </trkpt>
      <trkpt lat="53.193239" lon="6.519275">
        <ele>1.109446</ele>
        <time>2026-09-03T16:51:57.035Z</time>
      </trkpt>
      <trkpt lat="53.193155" lon="6.519342">
        <ele>1.084247</ele>
        <time>2026-09-03T16:51:59.038Z</time>
      </trkpt>
      <trkpt lat="53.193074" lon="6.519410">
        <ele>1.059706</ele>
        <time>2026-09-03T16:52:01.043Z</time>
      </trkpt>
      <trkpt lat="53.192960" lon="6.519498">
        <ele>1.025709</ele>
        <time>2026-09-03T16:52:04.036Z</time>
      </trkpt>
      <trkpt lat="53.192837" lon="6.519608">
        <ele>0.987939</ele>
        <time>2026-09-03T16:52:07.035Z</time>
      </trkpt>
      <trkpt lat="53.192715" lon="6.519705">
        <ele>0.951362</ele>
        <time>2026-09-03T16:52:10.040Z</time>
      </trkpt>
      <trkpt lat="53.192626" lon="6.519766">
        <ele>0.937131</ele>
        <time>2026-09-03T16:52:12.039Z</time>
      </trkpt>
      <trkpt lat="53.192544" lon="6.519838">
        <ele>0.936384</ele>
        <time>2026-09-03T16:52:14.039Z</time>
      </trkpt>
      <trkpt lat="53.192461" lon="6.519915">
        <ele>0.935619</ele>
        <time>2026-09-03T16:52:16.041Z</time>
      </trkpt>
      <trkpt lat="53.192379" lon="6.520005">
        <ele>0.934828</ele>
        <time>2026-09-03T16:52:18.037Z</time>
      </trkpt>
      <trkpt lat="53.192304" lon="6.520100">
        <ele>0.934069</ele>
        <time>2026-09-03T16:52:20.049Z</time>
      </trkpt>
      <trkpt lat="53.192206" lon="6.520243">
        <ele>0.933020</ele>
        <time>2026-09-03T16:52:23.043Z</time>
      </trkpt>
      <trkpt lat="53.192125" lon="6.520363">
        <ele>0.932148</ele>
        <time>2026-09-03T16:52:26.041Z</time>
      </trkpt>
      <trkpt lat="53.192033" lon="6.520364">
        <ele>0.931406</ele>
        <time>2026-09-03T16:52:30.040Z</time>
      </trkpt>
      <trkpt lat="53.192015" lon="6.520202">
        <ele>0.930611</ele>
        <time>2026-09-03T16:52:33.052Z</time>
      </trkpt>
      <trkpt lat="53.191988" lon="6.520018">
        <ele>0.929696</ele>
        <time>2026-09-03T16:52:37.043Z</time>
      </trkpt>
      <trkpt lat="53.191965" lon="6.519847">
        <ele>0.928850</ele>
        <time>2026-09-03T16:52:41.037Z</time>
      </trkpt>
      <trkpt lat="53.191882" lon="6.519775">
        <ele>0.928096</ele>
        <time>2026-09-03T16:52:45.036Z</time>
      </trkpt>
      <trkpt lat="53.191801" lon="6.519921">
        <ele>0.927136</ele>
        <time>2026-09-03T16:52:48.036Z</time>
      </trkpt>
      <trkpt lat="53.191705" lon="6.520074">
        <ele>0.926066</ele>
        <time>2026-09-03T16:52:51.040Z</time>
      </trkpt>
      <trkpt lat="53.191639" lon="6.520181">
        <ele>0.925324</ele>
        <time>2026-09-03T16:52:53.037Z</time>
      </trkpt>
      <trkpt lat="53.191571" lon="6.520291">
        <ele>0.924561</ele>
        <time>2026-09-03T16:52:55.052Z</time>
      </trkpt>
      <trkpt lat="53.191477" lon="6.520444">
        <ele>0.923503</ele>
        <time>2026-09-03T16:52:58.039Z</time>
      </trkpt>
      <trkpt lat="53.191385" lon="6.520579">
        <ele>0.919602</ele>
        <time>2026-09-03T16:53:01.052Z</time>
      </trkpt>
      <trkpt lat="53.191286" lon="6.520721">
        <ele>0.912203</ele>
        <time>2026-09-03T16:53:04.053Z</time>
      </trkpt>
      <trkpt lat="53.191180" lon="6.520851">
        <ele>0.904747</ele>
        <time>2026-09-03T16:53:07.035Z</time>
      </trkpt>
      <trkpt lat="53.191066" lon="6.520979">
        <ele>0.896959</ele>
        <time>2026-09-03T16:53:10.043Z</time>
      </trkpt>
      <trkpt lat="53.190988" lon="6.521060">
        <ele>0.891752</ele>
        <time>2026-09-03T16:53:12.037Z</time>
      </trkpt>
      <trkpt lat="53.190884" lon="6.521177">
        <ele>0.884643</ele>
        <time>2026-09-03T16:53:15.043Z</time>
      </trkpt>
      <trkpt lat="53.190782" lon="6.521281">
        <ele>0.877867</ele>
        <time>2026-09-03T16:53:18.037Z</time>
      </trkpt>
      <trkpt lat="53.190678" lon="6.521400">
        <ele>0.870720</ele>
        <time>2026-09-03T16:53:21.036Z</time>
      </trkpt>
      <trkpt lat="53.190595" lon="6.521480">
        <ele>0.865287</ele>
        <time>2026-09-03T16:53:23.038Z</time>
      </trkpt>
      <trkpt lat="53.190483" lon="6.521586">
        <ele>0.857989</ele>
        <time>2026-09-03T16:53:26.036Z</time>
      </trkpt>
      <trkpt lat="53.190377" lon="6.521706">
        <ele>0.850729</ele>
        <time>2026-09-03T16:53:29.044Z</time>
      </trkpt>
      <trkpt lat="53.190301" lon="6.521787">
        <ele>0.845618</ele>
        <time>2026-09-03T16:53:31.038Z</time>
      </trkpt>
      <trkpt lat="53.190202" lon="6.521877">
        <ele>0.839227</ele>
        <time>2026-09-03T16:53:34.043Z</time>
      </trkpt>
      <trkpt lat="53.190091" lon="6.521991">
        <ele>0.831840</ele>
        <time>2026-09-03T16:53:37.037Z</time>
      </trkpt>
      <trkpt lat="53.189980" lon="6.522103">
        <ele>0.824488</ele>
        <time>2026-09-03T16:53:40.040Z</time>
      </trkpt>
      <trkpt lat="53.189902" lon="6.522184">
        <ele>0.825426</ele>
        <time>2026-09-03T16:53:42.052Z</time>
      </trkpt>
      <trkpt lat="53.189823" lon="6.522268">
        <ele>0.838589</ele>
        <time>2026-09-03T16:53:44.037Z</time>
      </trkpt>
      <trkpt lat="53.189746" lon="6.522350">
        <ele>0.851425</ele>
        <time>2026-09-03T16:53:46.038Z</time>
      </trkpt>
      <trkpt lat="53.189667" lon="6.522428">
        <ele>0.864323</ele>
        <time>2026-09-03T16:53:48.036Z</time>
      </trkpt>
      <trkpt lat="53.189587" lon="6.522509">
        <ele>0.877473</ele>
        <time>2026-09-03T16:53:50.068Z</time>
      </trkpt>
      <trkpt lat="53.189479" lon="6.522630">
        <ele>0.895752</ele>
        <time>2026-09-03T16:53:53.035Z</time>
      </trkpt>
      <trkpt lat="53.189371" lon="6.522745">
        <ele>0.913755</ele>
        <time>2026-09-03T16:53:56.033Z</time>
      </trkpt>
      <trkpt lat="53.189265" lon="6.522856">
        <ele>0.931340</ele>
        <time>2026-09-03T16:53:59.030Z</time>
      </trkpt>
      <trkpt lat="53.189153" lon="6.522972">
        <ele>0.949864</ele>
        <time>2026-09-03T16:54:02.034Z</time>
      </trkpt>
      <trkpt lat="53.189050" lon="6.523089">
        <ele>0.967373</ele>
        <time>2026-09-03T16:54:05.033Z</time>
      </trkpt>
      <trkpt lat="53.188956" lon="6.523193">
        <ele>0.983221</ele>
        <time>2026-09-03T16:54:08.035Z</time>
      </trkpt>
      <trkpt lat="53.188860" lon="6.523295">
        <ele>0.999214</ele>
        <time>2026-09-03T16:54:11.036Z</time>
      </trkpt>
      <trkpt lat="53.188757" lon="6.523405">
        <ele>1.016398</ele>
        <time>2026-09-03T16:54:14.033Z</time>
      </trkpt>
      <trkpt lat="53.188651" lon="6.523519">
        <ele>1.034119</ele>
        <time>2026-09-03T16:54:17.032Z</time>
      </trkpt>
      <trkpt lat="53.188549" lon="6.523637">
        <ele>1.051559</ele>
        <time>2026-09-03T16:54:20.043Z</time>
      </trkpt>
      <trkpt lat="53.188451" lon="6.523774">
        <ele>1.069524</ele>
        <time>2026-09-03T16:54:23.032Z</time>
      </trkpt>
      <trkpt lat="53.188356" lon="6.523909">
        <ele>1.075941</ele>
        <time>2026-09-03T16:54:26.033Z</time>
      </trkpt>
      <trkpt lat="53.188268" lon="6.524042">
        <ele>1.078628</ele>
        <time>2026-09-03T16:54:29.033Z</time>
      </trkpt>
      <trkpt lat="53.188185" lon="6.524174">
        <ele>1.081224</ele>
        <time>2026-09-03T16:54:32.043Z</time>
      </trkpt>
      <trkpt lat="53.188107" lon="6.524275">
        <ele>1.083459</ele>
        <time>2026-09-03T16:54:35.043Z</time>
      </trkpt>
      <trkpt lat="53.188017" lon="6.524367">
        <ele>1.085848</ele>
        <time>2026-09-03T16:54:38.043Z</time>
      </trkpt>
      <trkpt lat="53.187920" lon="6.524448">
        <ele>1.088303</ele>
        <time>2026-09-03T16:54:41.043Z</time>
      </trkpt>
      <trkpt lat="53.187834" lon="6.524516">
        <ele>1.090458</ele>
        <time>2026-09-03T16:54:44.043Z</time>
      </trkpt>
      <trkpt lat="53.187734" lon="6.524593">
        <ele>1.092951</ele>
        <time>2026-09-03T16:54:48.043Z</time>
      </trkpt>
      <trkpt lat="53.187631" lon="6.524663">
        <ele>1.095469</ele>
        <time>2026-09-03T16:54:52.036Z</time>
      </trkpt>
      <trkpt lat="53.187535" lon="6.524736">
        <ele>1.097857</ele>
        <time>2026-09-03T16:54:56.036Z</time>
      </trkpt>
      <trkpt lat="53.187434" lon="6.524784">
        <ele>1.100234</ele>
        <time>2026-09-03T16:55:00.036Z</time>
      </trkpt>
      <trkpt lat="53.187346" lon="6.524859">
        <ele>1.102471</ele>
        <time>2026-09-03T16:55:04.035Z</time>
      </trkpt>
      <trkpt lat="53.187256" lon="6.524925">
        <ele>1.104697</ele>
        <time>2026-09-03T16:55:08.037Z</time>
      </trkpt>
      <trkpt lat="53.187178" lon="6.525005">
        <ele>1.106769</ele>
        <time>2026-09-03T16:55:12.035Z</time>
      </trkpt>
      <trkpt lat="53.187090" lon="6.525108">
        <ele>1.109202</ele>
        <time>2026-09-03T16:55:17.038Z</time>
      </trkpt>
      <trkpt lat="53.187009" lon="6.525188">
        <ele>1.111333</ele>
        <time>2026-09-03T16:55:22.051Z</time>
      </trkpt>
      <trkpt lat="53.186932" lon="6.525264">
        <ele>1.113358</ele>
        <time>2026-09-03T16:55:26.035Z</time>
      </trkpt>
      <trkpt lat="53.186856" lon="6.525371">
        <ele>1.135011</ele>
        <time>2026-09-03T16:55:30.037Z</time>
      </trkpt>
      <trkpt lat="53.186772" lon="6.525467">
        <ele>1.178514</ele>
        <time>2026-09-03T16:55:34.038Z</time>
      </trkpt>
      <trkpt lat="53.186681" lon="6.525558">
        <ele>1.223845</ele>
        <time>2026-09-03T16:55:38.043Z</time>
      </trkpt>
      <trkpt lat="53.186586" lon="6.525656">
        <ele>1.271568</ele>
        <time>2026-09-03T16:55:42.032Z</time>
      </trkpt>
      <trkpt lat="53.186486" lon="6.525763">
        <ele>1.322326</ele>
        <time>2026-09-03T16:55:46.031Z</time>
      </trkpt>
      <trkpt lat="53.186408" lon="6.525837">
        <ele>1.360665</ele>
        <time>2026-09-03T16:55:49.043Z</time>
      </trkpt>
      <trkpt lat="53.186312" lon="6.525934">
        <ele>1.408619</ele>
        <time>2026-09-03T16:55:53.035Z</time>
      </trkpt>
      <trkpt lat="53.186231" lon="6.526011">
        <ele>1.448451</ele>
        <time>2026-09-03T16:55:56.045Z</time>
      </trkpt>
      <trkpt lat="53.186153" lon="6.526095">
        <ele>1.488118</ele>
        <time>2026-09-03T16:55:59.043Z</time>
      </trkpt>
      <trkpt lat="53.186069" lon="6.526180">
        <ele>1.530094</ele>
        <time>2026-09-03T16:56:02.043Z</time>
      </trkpt>
      <trkpt lat="53.185983" lon="6.526271">
        <ele>1.573606</ele>
        <time>2026-09-03T16:56:05.034Z</time>
      </trkpt>
      <trkpt lat="53.185895" lon="6.526363">
        <ele>1.617978</ele>
        <time>2026-09-03T16:56:08.033Z</time>
      </trkpt>
      <trkpt lat="53.185807" lon="6.526456">
        <ele>1.662486</ele>
        <time>2026-09-03T16:56:11.045Z</time>
      </trkpt>
      <trkpt lat="53.185721" lon="6.526543">
        <ele>1.705459</ele>
        <time>2026-09-03T16:56:14.034Z</time>
      </trkpt>
      <trkpt lat="53.185622" lon="6.526646">
        <ele>1.755309</ele>
        <time>2026-09-03T16:56:18.043Z</time>
      </trkpt>
      <trkpt lat="53.185542" lon="6.526733">
        <ele>1.796111</ele>
        <time>2026-09-03T16:56:21.033Z</time>
      </trkpt>
      <trkpt lat="53.185457" lon="6.526827">
        <ele>1.839682</ele>
        <time>2026-09-03T16:56:24.036Z</time>
      </trkpt>
      <trkpt lat="53.185367" lon="6.526921">
        <ele>1.881611</ele>
        <time>2026-09-03T16:56:27.043Z</time>
      </trkpt>
      <trkpt lat="53.185278" lon="6.527002">
        <ele>1.849097</ele>
        <time>2026-09-03T16:56:30.037Z</time>
      </trkpt>
      <trkpt lat="53.185190" lon="6.527091">
        <ele>1.816095</ele>
        <time>2026-09-03T16:56:33.043Z</time>
      </trkpt>
      <trkpt lat="53.185101" lon="6.527178">
        <ele>1.783014</ele>
        <time>2026-09-03T16:56:36.033Z</time>
      </trkpt>
      <trkpt lat="53.185011" lon="6.527272">
        <ele>1.748962</ele>
        <time>2026-09-03T16:56:39.043Z</time>
      </trkpt>
      <trkpt lat="53.184923" lon="6.527353">
        <ele>1.716730</ele>
        <time>2026-09-03T16:56:42.045Z</time>
      </trkpt>
      <trkpt lat="53.184839" lon="6.527417">
        <ele>1.687114</ele>
        <time>2026-09-03T16:56:45.033Z</time>
      </trkpt>
      <trkpt lat="53.184738" lon="6.527515">
        <ele>1.649643</ele>
        <time>2026-09-03T16:56:49.043Z</time>
      </trkpt>
      <trkpt lat="53.184648" lon="6.527599">
        <ele>1.616571</ele>
        <time>2026-09-03T16:56:54.043Z</time>
      </trkpt>
      <trkpt lat="53.184552" lon="6.527679">
        <ele>1.582156</ele>
        <time>2026-09-03T16:56:59.043Z</time>
      </trkpt>
      <trkpt lat="53.184472" lon="6.527583">
        <ele>1.550553</ele>
        <time>2026-09-03T16:57:07.043Z</time>
      </trkpt>
      <trkpt lat="53.184422" lon="6.527423">
        <ele>1.515872</ele>
        <time>2026-09-03T16:57:12.043Z</time>
      </trkpt>
      <trkpt lat="53.184371" lon="6.527288">
        <ele>1.485201</ele>
        <time>2026-09-03T16:57:16.036Z</time>
      </trkpt>
      <trkpt lat="53.184331" lon="6.527152">
        <ele>1.456084</ele>
        <time>2026-09-03T16:57:22.044Z</time>
      </trkpt>
      <trkpt lat="53.184354" lon="6.526993">
        <ele>1.424648</ele>
        <time>2026-09-03T16:57:29.035Z</time>
      </trkpt>
      <trkpt lat="53.184372" lon="6.526828">
        <ele>1.392416</ele>
        <time>2026-09-03T16:57:35.035Z</time>
      </trkpt>
      <trkpt lat="53.184382" lon="6.526659">
        <ele>1.359778</ele>
        <time>2026-09-03T16:57:41.036Z</time>
      </trkpt>
      <trkpt lat="53.184420" lon="6.526497">
        <ele>1.326342</ele>
        <time>2026-09-03T16:57:47.051Z</time>
      </trkpt>
      <trkpt lat="53.184413" lon="6.526333">
        <ele>1.301308</ele>
        <time>2026-09-03T16:57:53.039Z</time>
      </trkpt>
      <trkpt lat="53.184388" lon="6.526161">
        <ele>1.286750</ele>
        <time>2026-09-03T16:57:59.043Z</time>
      </trkpt>
      <trkpt lat="53.184321" lon="6.526039">
        <ele>1.273138</ele>
        <time>2026-09-03T16:58:05.043Z</time>
      </trkpt>
      <trkpt lat="53.184243" lon="6.525946">
        <ele>1.259980</ele>
        <time>2026-09-03T16:58:11.043Z</time>
      </trkpt>
      <trkpt lat="53.184152" lon="6.525860">
        <ele>1.245625</ele>
        <time>2026-09-03T16:58:17.043Z</time>
      </trkpt>
      <trkpt lat="53.184070" lon="6.525787">
        <ele>1.232868</ele>
        <time>2026-09-03T16:58:22.037Z</time>
      </trkpt>
      <trkpt lat="53.184013" lon="6.525654">
        <ele>1.219418</ele>
        <time>2026-09-03T16:58:28.036Z</time>
      </trkpt>
      <trkpt lat="53.184004" lon="6.525495">
        <ele>1.206281</ele>
        <time>2026-09-03T16:58:34.051Z</time>
      </trkpt>
      <trkpt lat="53.183991" lon="6.525336">
        <ele>1.193081</ele>
        <time>2026-09-03T16:58:40.051Z</time>
      </trkpt>
      <trkpt lat="53.184005" lon="6.525179">
        <ele>1.180025</ele>
        <time>2026-09-03T16:58:46.036Z</time>
      </trkpt>
      <trkpt lat="53.184037" lon="6.525007">
        <ele>1.165211</ele>
        <time>2026-09-03T16:58:52.035Z</time>
      </trkpt>
      <trkpt lat="53.184063" lon="6.524837">
        <ele>1.150780</ele>
        <time>2026-09-03T16:58:58.043Z</time>
      </trkpt>
      <trkpt lat="53.184109" lon="6.524686">
        <ele>1.136846</ele>
        <time>2026-09-03T16:59:04.048Z</time>
      </trkpt>
      <trkpt lat="53.184169" lon="6.524560">
        <ele>1.123608</ele>
        <time>2026-09-03T16:59:13.039Z</time>
      </trkpt>
      <trkpt lat="53.184239" lon="6.524456">
        <ele>1.110744</ele>
        <time>2026-09-03T16:59:18.051Z</time>
      </trkpt>
      <trkpt lat="53.184332" lon="6.524384">
        <ele>1.096671</ele>
        <time>2026-09-03T16:59:25.039Z</time>
      </trkpt>
      <trkpt lat="53.184407" lon="6.524299">
        <ele>1.084227</ele>
        <time>2026-09-03T16:59:31.039Z</time>
      </trkpt>
      <trkpt lat="53.184473" lon="6.524181">
        <ele>1.070950</ele>
        <time>2026-09-03T16:59:37.039Z</time>
      </trkpt>
      <trkpt lat="53.184541" lon="6.524054">
        <ele>1.062291</ele>
        <time>2026-09-03T16:59:43.040Z</time>
      </trkpt>
      <trkpt lat="53.184599" lon="6.523901">
        <ele>1.080734</ele>
        <time>2026-09-03T16:59:49.040Z</time>
      </trkpt>
      <trkpt lat="53.184638" lon="6.523757">
        <ele>1.096831</ele>
        <time>2026-09-03T16:59:55.036Z</time>
      </trkpt>
      <trkpt lat="53.184676" lon="6.523606">
        <ele>1.113514</ele>
        <time>2026-09-03T17:00:02.038Z</time>
      </trkpt>
      <trkpt lat="53.184665" lon="6.523448">
        <ele>1.129717</ele>
        <time>2026-09-03T17:00:09.038Z</time>
      </trkpt>
      <trkpt lat="53.184671" lon="6.523292">
        <ele>1.145641</ele>
        <time>2026-09-03T17:00:15.052Z</time>
      </trkpt>
      <trkpt lat="53.184656" lon="6.523123">
        <ele>1.163044</ele>
        <time>2026-09-03T17:00:22.036Z</time>
      </trkpt>
      <trkpt lat="53.184621" lon="6.522978">
        <ele>1.178968</ele>
        <time>2026-09-03T17:00:28.036Z</time>
      </trkpt>
      <trkpt lat="53.184582" lon="6.522837">
        <ele>1.194788</ele>
        <time>2026-09-03T17:00:35.033Z</time>
      </trkpt>
      <trkpt lat="53.184495" lon="6.522783">
        <ele>1.210567</ele>
        <time>2026-09-03T17:01:33.056Z</time>
      </trkpt>
      <trkpt lat="53.184477" lon="6.522939">
        <ele>1.226750</ele>
        <time>2026-09-03T17:01:59.035Z</time>
      </trkpt>
      <trkpt lat="53.184516" lon="6.522796">
        <ele>1.242755</ele>
        <time>2026-09-03T17:02:29.036Z</time>
      </trkpt>
      <trkpt lat="53.184589" lon="6.522892">
        <ele>1.258554</ele>
        <time>2026-09-03T17:02:41.036Z</time>
      </trkpt>
      <trkpt lat="53.184650" lon="6.523060">
        <ele>1.278564</ele>
        <time>2026-09-03T17:03:51.037Z</time>
      </trkpt>
      <trkpt lat="53.184678" lon="6.523214">
        <ele>1.294958</ele>
        <time>2026-09-03T17:03:58.045Z</time>
      </trkpt>
      <trkpt lat="53.184673" lon="6.523375">
        <ele>1.311380</ele>
        <time>2026-09-03T17:04:05.042Z</time>
      </trkpt>
      <trkpt lat="53.184680" lon="6.523532">
        <ele>1.327417</ele>
        <time>2026-09-03T17:04:12.042Z</time>
      </trkpt>
      <trkpt lat="53.184670" lon="6.523699">
        <ele>1.344514</ele>
        <time>2026-09-03T17:04:18.036Z</time>
      </trkpt>
      <trkpt lat="53.184626" lon="6.523836">
        <ele>1.360347</ele>
        <time>2026-09-03T17:04:24.036Z</time>
      </trkpt>
      <trkpt lat="53.184584" lon="6.523986">
        <ele>1.381801</ele>
        <time>2026-09-03T17:04:31.038Z</time>
      </trkpt>
      <trkpt lat="53.184519" lon="6.524111">
        <ele>1.405038</ele>
        <time>2026-09-03T17:04:38.036Z</time>
      </trkpt>
      <trkpt lat="53.184445" lon="6.524224">
        <ele>1.428540</ele>
        <time>2026-09-03T17:04:44.050Z</time>
      </trkpt>
      <trkpt lat="53.184378" lon="6.524337">
        <ele>1.450860</ele>
        <time>2026-09-03T17:04:50.042Z</time>
      </trkpt>
      <trkpt lat="53.184296" lon="6.524420">
        <ele>1.473331</ele>
        <time>2026-09-03T17:04:56.034Z</time>
      </trkpt>
      <trkpt lat="53.184218" lon="6.524498">
        <ele>1.494637</ele>
        <time>2026-09-03T17:05:02.043Z</time>
      </trkpt>
      <trkpt lat="53.184155" lon="6.524608">
        <ele>1.516002</ele>
        <time>2026-09-03T17:05:07.051Z</time>
      </trkpt>
      <trkpt lat="53.184090" lon="6.524721">
        <ele>1.537995</ele>
        <time>2026-09-03T17:05:12.038Z</time>
      </trkpt>
      <trkpt lat="53.184056" lon="6.524867">
        <ele>1.559988</ele>
        <time>2026-09-03T17:05:18.042Z</time>
      </trkpt>
      <trkpt lat="53.184035" lon="6.525030">
        <ele>1.583397</ele>
        <time>2026-09-03T17:05:24.036Z</time>
      </trkpt>
      <trkpt lat="53.184010" lon="6.525192">
        <ele>1.606885</ele>
        <time>2026-09-03T17:05:30.039Z</time>
      </trkpt>
      <trkpt lat="53.184003" lon="6.525362">
        <ele>1.630811</ele>
        <time>2026-09-03T17:05:37.050Z</time>
      </trkpt>
      <trkpt lat="53.184011" lon="6.525533">
        <ele>1.654894</ele>
        <time>2026-09-03T17:05:44.050Z</time>
      </trkpt>
      <trkpt lat="53.184030" lon="6.525692">
        <ele>1.677658</ele>
        <time>2026-09-03T17:05:51.050Z</time>
      </trkpt>
      <trkpt lat="53.184097" lon="6.525819">
        <ele>1.701415</ele>
        <time>2026-09-03T17:05:58.036Z</time>
      </trkpt>
      <trkpt lat="53.184178" lon="6.525889">
        <ele>1.722788</ele>
        <time>2026-09-03T17:06:04.036Z</time>
      </trkpt>
      <trkpt lat="53.184271" lon="6.525972">
        <ele>1.747499</ele>
        <time>2026-09-03T17:06:10.036Z</time>
      </trkpt>
      <trkpt lat="53.184348" lon="6.526059">
        <ele>1.769287</ele>
        <time>2026-09-03T17:06:16.035Z</time>
      </trkpt>
      <trkpt lat="53.184404" lon="6.526185">
        <ele>1.790962</ele>
        <time>2026-09-03T17:06:22.050Z</time>
      </trkpt>
      <trkpt lat="53.184426" lon="6.526345">
        <ele>1.812323</ele>
        <time>2026-09-03T17:06:29.042Z</time>
      </trkpt>
      <trkpt lat="53.184432" lon="6.526503">
        <ele>1.832924</ele>
        <time>2026-09-03T17:06:35.043Z</time>
      </trkpt>
      <trkpt lat="53.184393" lon="6.526641">
        <ele>1.852779</ele>
        <time>2026-09-03T17:06:41.035Z</time>
      </trkpt>
      <trkpt lat="53.184376" lon="6.526793">
        <ele>1.872899</ele>
        <time>2026-09-03T17:06:47.037Z</time>
      </trkpt>
      <trkpt lat="53.184369" lon="6.526943">
        <ele>1.892477</ele>
        <time>2026-09-03T17:06:52.035Z</time>
      </trkpt>
      <trkpt lat="53.184350" lon="6.527093">
        <ele>1.912427</ele>
        <time>2026-09-03T17:06:58.038Z</time>
      </trkpt>
      <trkpt lat="53.184361" lon="6.527250">
        <ele>1.932996</ele>
        <time>2026-09-03T17:07:05.035Z</time>
      </trkpt>
      <trkpt lat="53.184418" lon="6.527405">
        <ele>1.956661</ele>
        <time>2026-09-03T17:07:13.041Z</time>
      </trkpt>
      <trkpt lat="53.184472" lon="6.527561">
        <ele>1.980103</ele>
        <time>2026-09-03T17:07:18.031Z</time>
      </trkpt>
      <trkpt lat="53.184500" lon="6.527721">
        <ele>2.001793</ele>
        <time>2026-09-03T17:07:24.043Z</time>
      </trkpt>
      <trkpt lat="53.184443" lon="6.527865">
        <ele>2.024250</ele>
        <time>2026-09-03T17:07:30.034Z</time>
      </trkpt>
      <trkpt lat="53.184350" lon="6.527959">
        <ele>2.047860</ele>
        <time>2026-09-03T17:07:35.034Z</time>
      </trkpt>
      <trkpt lat="53.184272" lon="6.528058">
        <ele>2.069141</ele>
        <time>2026-09-03T17:07:39.036Z</time>
      </trkpt>
      <trkpt lat="53.184177" lon="6.528154">
        <ele>2.093257</ele>
        <time>2026-09-03T17:07:43.036Z</time>
      </trkpt>
      <trkpt lat="53.184092" lon="6.528236">
        <ele>2.114577</ele>
        <time>2026-09-03T17:07:47.037Z</time>
      </trkpt>
      <trkpt lat="53.184000" lon="6.528330">
        <ele>2.138002</ele>
        <time>2026-09-03T17:07:51.036Z</time>
      </trkpt>
      <trkpt lat="53.183907" lon="6.528426">
        <ele>2.161749</ele>
        <time>2026-09-03T17:07:55.034Z</time>
      </trkpt>
      <trkpt lat="53.183819" lon="6.528519">
        <ele>2.174071</ele>
        <time>2026-09-03T17:07:59.037Z</time>
      </trkpt>
      <trkpt lat="53.183729" lon="6.528607">
        <ele>2.164644</ele>
        <time>2026-09-03T17:08:03.037Z</time>
      </trkpt>
      <trkpt lat="53.183585" lon="6.528759">
        <ele>2.149245</ele>
        <time>2026-09-03T17:08:21.039Z</time>
      </trkpt>
      <trkpt lat="53.183492" lon="6.528859">
        <ele>2.139246</ele>
        <time>2026-09-03T17:08:25.040Z</time>
      </trkpt>
      <trkpt lat="53.183396" lon="6.528962">
        <ele>2.128931</ele>
        <time>2026-09-03T17:08:29.039Z</time>
      </trkpt>
      <trkpt lat="53.183321" lon="6.529044">
        <ele>2.120828</ele>
        <time>2026-09-03T17:08:32.039Z</time>
      </trkpt>
      <trkpt lat="53.183220" lon="6.529144">
        <ele>2.110214</ele>
        <time>2026-09-03T17:08:36.049Z</time>
      </trkpt>
      <trkpt lat="53.183117" lon="6.529249">
        <ele>2.099306</ele>
        <time>2026-09-03T17:08:40.036Z</time>
      </trkpt>
      <trkpt lat="53.183041" lon="6.529329">
        <ele>2.091185</ele>
        <time>2026-09-03T17:08:43.038Z</time>
      </trkpt>
      <trkpt lat="53.182965" lon="6.529416">
        <ele>2.082856</ele>
        <time>2026-09-03T17:08:46.037Z</time>
      </trkpt>
      <trkpt lat="53.182885" lon="6.529492">
        <ele>2.074536</ele>
        <time>2026-09-03T17:08:49.038Z</time>
      </trkpt>
      <trkpt lat="53.182806" lon="6.529573">
        <ele>2.066156</ele>
        <time>2026-09-03T17:08:52.043Z</time>
      </trkpt>
      <trkpt lat="53.182712" lon="6.529673">
        <ele>2.056081</ele>
        <time>2026-09-03T17:08:56.050Z</time>
      </trkpt>
      <trkpt lat="53.182632" lon="6.529758">
        <ele>2.047510</ele>
        <time>2026-09-03T17:09:00.035Z</time>
      </trkpt>
      <trkpt lat="53.182538" lon="6.529850">
        <ele>2.037661</ele>
        <time>2026-09-03T17:09:04.039Z</time>
      </trkpt>
      <trkpt lat="53.182440" lon="6.529954">
        <ele>2.027165</ele>
        <time>2026-09-03T17:09:08.035Z</time>
      </trkpt>
      <trkpt lat="53.182359" lon="6.530036">
        <ele>2.018603</ele>
        <time>2026-09-03T17:09:11.039Z</time>
      </trkpt>
      <trkpt lat="53.182279" lon="6.530120">
        <ele>2.014319</ele>
        <time>2026-09-03T17:09:14.041Z</time>
      </trkpt>
      <trkpt lat="53.182186" lon="6.530221">
        <ele>2.013819</ele>
        <time>2026-09-03T17:09:18.037Z</time>
      </trkpt>
      <trkpt lat="53.182107" lon="6.530299">
        <ele>2.013406</ele>
        <time>2026-09-03T17:09:21.051Z</time>
      </trkpt>
      <trkpt lat="53.182026" lon="6.530381">
        <ele>2.012979</ele>
        <time>2026-09-03T17:09:24.042Z</time>
      </trkpt>
      <trkpt lat="53.181943" lon="6.530464">
        <ele>2.012543</ele>
        <time>2026-09-03T17:09:27.042Z</time>
      </trkpt>
      <trkpt lat="53.181850" lon="6.530572">
        <ele>2.012032</ele>
        <time>2026-09-03T17:09:31.042Z</time>
      </trkpt>
      <trkpt lat="53.181750" lon="6.530678">
        <ele>2.011499</ele>
        <time>2026-09-03T17:09:35.043Z</time>
      </trkpt>
      <trkpt lat="53.181669" lon="6.530764">
        <ele>2.011066</ele>
        <time>2026-09-03T17:09:38.043Z</time>
      </trkpt>
      <trkpt lat="53.181585" lon="6.530848">
        <ele>2.010625</ele>
        <time>2026-09-03T17:09:41.045Z</time>
      </trkpt>
      <trkpt lat="53.181500" lon="6.530930">
        <ele>2.010182</ele>
        <time>2026-09-03T17:09:44.044Z</time>
      </trkpt>
      <trkpt lat="53.181419" lon="6.531017">
        <ele>2.009748</ele>
        <time>2026-09-03T17:09:47.035Z</time>
      </trkpt>
      <trkpt lat="53.181333" lon="6.531101">
        <ele>2.009299</ele>
        <time>2026-09-03T17:09:50.042Z</time>
      </trkpt>
      <trkpt lat="53.181249" lon="6.531189">
        <ele>2.008852</ele>
        <time>2026-09-03T17:09:53.042Z</time>
      </trkpt>
      <trkpt lat="53.181164" lon="6.531282">
        <ele>2.008394</ele>
        <time>2026-09-03T17:09:56.043Z</time>
      </trkpt>
      <trkpt lat="53.181081" lon="6.531366">
        <ele>2.007957</ele>
        <time>2026-09-03T17:09:59.043Z</time>
      </trkpt>
      <trkpt lat="53.180997" lon="6.531444">
        <ele>2.007524</ele>
        <time>2026-09-03T17:10:02.042Z</time>
      </trkpt>
      <trkpt lat="53.180914" lon="6.531534">
        <ele>2.007078</ele>
        <time>2026-09-03T17:10:05.042Z</time>
      </trkpt>
      <trkpt lat="53.180830" lon="6.531624">
        <ele>2.006628</ele>
        <time>2026-09-03T17:10:08.039Z</time>
      </trkpt>
      <trkpt lat="53.180746" lon="6.531710">
        <ele>2.014711</ele>
        <time>2026-09-03T17:10:11.037Z</time>
      </trkpt>
      <trkpt lat="53.180663" lon="6.531795">
        <ele>2.028977</ele>
        <time>2026-09-03T17:10:14.050Z</time>
      </trkpt>
      <trkpt lat="53.180579" lon="6.531880">
        <ele>2.043368</ele>
        <time>2026-09-03T17:10:17.039Z</time>
      </trkpt>
      <trkpt lat="53.180502" lon="6.531962">
        <ele>2.056750</ele>
        <time>2026-09-03T17:10:20.035Z</time>
      </trkpt>
      <trkpt lat="53.180417" lon="6.532050">
        <ele>2.071403</ele>
        <time>2026-09-03T17:10:23.050Z</time>
      </trkpt>
      <trkpt lat="53.180335" lon="6.532142">
        <ele>2.085879</ele>
        <time>2026-09-03T17:10:26.037Z</time>
      </trkpt>
      <trkpt lat="53.180250" lon="6.532237">
        <ele>2.100865</ele>
        <time>2026-09-03T17:10:29.042Z</time>
      </trkpt>
      <trkpt lat="53.180169" lon="6.532321">
        <ele>2.114836</ele>
        <time>2026-09-03T17:10:32.040Z</time>
      </trkpt>
      <trkpt lat="53.180091" lon="6.532403">
        <ele>2.128341</ele>
        <time>2026-09-03T17:10:35.043Z</time>
      </trkpt>
      <trkpt lat="53.180008" lon="6.532485">
        <ele>2.142471</ele>
        <time>2026-09-03T17:10:38.045Z</time>
      </trkpt>
      <trkpt lat="53.179923" lon="6.532577">
        <ele>2.157313</ele>
        <time>2026-09-03T17:10:41.037Z</time>
      </trkpt>
      <trkpt lat="53.179838" lon="6.532664">
        <ele>2.171921</ele>
        <time>2026-09-03T17:10:44.038Z</time>
      </trkpt>
      <trkpt lat="53.179755" lon="6.532750">
        <ele>2.186233</ele>
        <time>2026-09-03T17:10:47.038Z</time>
      </trkpt>
      <trkpt lat="53.179674" lon="6.532838">
        <ele>2.200392</ele>
        <time>2026-09-03T17:10:50.042Z</time>
      </trkpt>
      <trkpt lat="53.179589" lon="6.532926">
        <ele>2.215046</ele>
        <time>2026-09-03T17:10:53.043Z</time>
      </trkpt>
      <trkpt lat="53.179510" lon="6.533018">
        <ele>2.229159</ele>
        <time>2026-09-03T17:10:56.043Z</time>
      </trkpt>
      <trkpt lat="53.179430" lon="6.533100">
        <ele>2.242913</ele>
        <time>2026-09-03T17:10:59.039Z</time>
      </trkpt>
      <trkpt lat="53.179350" lon="6.533190">
        <ele>2.257047</ele>
        <time>2026-09-03T17:11:02.039Z</time>
      </trkpt>
      <trkpt lat="53.179258" lon="6.533288">
        <ele>2.270622</ele>
        <time>2026-09-03T17:11:05.038Z</time>
      </trkpt>
      <trkpt lat="53.179162" lon="6.533377">
        <ele>2.274234</ele>
        <time>2026-09-03T17:11:08.034Z</time>
      </trkpt>
      <trkpt lat="53.179073" lon="6.533456">
        <ele>2.277549</ele>
        <time>2026-09-03T17:11:11.044Z</time>
      </trkpt>
      <trkpt lat="53.178984" lon="6.533554">
        <ele>2.281056</ele>
        <time>2026-09-03T17:11:14.039Z</time>
      </trkpt>
      <trkpt lat="53.178891" lon="6.533655">
        <ele>2.284705</ele>
        <time>2026-09-03T17:11:17.044Z</time>
      </trkpt>
      <trkpt lat="53.178791" lon="6.533751">
        <ele>2.288499</ele>
        <time>2026-09-03T17:11:20.047Z</time>
      </trkpt>
      <trkpt lat="53.178688" lon="6.533853">
        <ele>2.292438</ele>
        <time>2026-09-03T17:11:23.040Z</time>
      </trkpt>
      <trkpt lat="53.178587" lon="6.533953">
        <ele>2.296301</ele>
        <time>2026-09-03T17:11:26.038Z</time>
      </trkpt>
      <trkpt lat="53.178487" lon="6.534060">
        <ele>2.300207</ele>
        <time>2026-09-03T17:11:29.045Z</time>
      </trkpt>
      <trkpt lat="53.178386" lon="6.534154">
        <ele>2.304011</ele>
        <time>2026-09-03T17:11:32.040Z</time>
      </trkpt>
      <trkpt lat="53.178290" lon="6.534250">
        <ele>2.307691</ele>
        <time>2026-09-03T17:11:35.039Z</time>
      </trkpt>
      <trkpt lat="53.178192" lon="6.534353">
        <ele>2.311500</ele>
        <time>2026-09-03T17:11:38.036Z</time>
      </trkpt>
      <trkpt lat="53.178089" lon="6.534455">
        <ele>2.315439</ele>
        <time>2026-09-03T17:11:41.050Z</time>
      </trkpt>
      <trkpt lat="53.177985" lon="6.534549">
        <ele>2.319329</ele>
        <time>2026-09-03T17:11:44.037Z</time>
      </trkpt>
      <trkpt lat="53.177885" lon="6.534656">
        <ele>2.323236</ele>
        <time>2026-09-03T17:11:47.051Z</time>
      </trkpt>
      <trkpt lat="53.177785" lon="6.534748">
        <ele>2.326991</ele>
        <time>2026-09-03T17:11:50.039Z</time>
      </trkpt>
      <trkpt lat="53.177702" lon="6.534813">
        <ele>2.322688</ele>
        <time>2026-09-03T17:11:53.037Z</time>
      </trkpt>
      <trkpt lat="53.177596" lon="6.534870">
        <ele>2.297593</ele>
        <time>2026-09-03T17:11:59.042Z</time>
      </trkpt>
      <trkpt lat="53.177559" lon="6.535039">
        <ele>2.273294</ele>
        <time>2026-09-03T17:12:04.036Z</time>
      </trkpt>
      <trkpt lat="53.177589" lon="6.535190">
        <ele>2.251811</ele>
        <time>2026-09-03T17:12:08.047Z</time>
      </trkpt>
      <trkpt lat="53.177608" lon="6.535383">
        <ele>2.225397</ele>
        <time>2026-09-03T17:12:12.043Z</time>
      </trkpt>
      <trkpt lat="53.177623" lon="6.535553">
        <ele>2.202191</ele>
        <time>2026-09-03T17:12:15.042Z</time>
      </trkpt>
      <trkpt lat="53.177640" lon="6.535710">
        <ele>2.180645</ele>
        <time>2026-09-03T17:12:18.042Z</time>
      </trkpt>
      <trkpt lat="53.177657" lon="6.535891">
        <ele>2.155902</ele>
        <time>2026-09-03T17:12:21.042Z</time>
      </trkpt>
      <trkpt lat="53.177670" lon="6.536091">
        <ele>2.128734</ele>
        <time>2026-09-03T17:12:24.035Z</time>
      </trkpt>
      <trkpt lat="53.177686" lon="6.536268">
        <ele>2.104560</ele>
        <time>2026-09-03T17:12:27.043Z</time>
      </trkpt>
      <trkpt lat="53.177691" lon="6.536442">
        <ele>2.081034</ele>
        <time>2026-09-03T17:12:30.037Z</time>
      </trkpt>
      <trkpt lat="53.177694" lon="6.536623">
        <ele>2.056581</ele>
        <time>2026-09-03T17:12:33.039Z</time>
      </trkpt>
      <trkpt lat="53.177709" lon="6.536809">
        <ele>2.031235</ele>
        <time>2026-09-03T17:12:36.037Z</time>
      </trkpt>
      <trkpt lat="53.177722" lon="6.537008">
        <ele>2.004201</ele>
        <time>2026-09-03T17:12:39.039Z</time>
      </trkpt>
      <trkpt lat="53.177740" lon="6.537224">
        <ele>1.974750</ele>
        <time>2026-09-03T17:12:42.038Z</time>
      </trkpt>
      <trkpt lat="53.177756" lon="6.537422">
        <ele>1.947768</ele>
        <time>2026-09-03T17:12:45.042Z</time>
      </trkpt>
      <trkpt lat="53.177770" lon="6.537601">
        <ele>1.924126</ele>
        <time>2026-09-03T17:12:48.043Z</time>
      </trkpt>
      <trkpt lat="53.177781" lon="6.537793">
        <ele>1.946971</ele>
        <time>2026-09-03T17:12:51.043Z</time>
      </trkpt>
      <trkpt lat="53.177794" lon="6.537998">
        <ele>1.971388</ele>
        <time>2026-09-03T17:12:54.051Z</time>
      </trkpt>
      <trkpt lat="53.177807" lon="6.538194">
        <ele>1.994745</ele>
        <time>2026-09-03T17:12:57.044Z</time>
      </trkpt>
      <trkpt lat="53.177826" lon="6.538397">
        <ele>2.019081</ele>
        <time>2026-09-03T17:13:00.043Z</time>
      </trkpt>
      <trkpt lat="53.177839" lon="6.538598">
        <ele>2.043027</ele>
        <time>2026-09-03T17:13:03.036Z</time>
      </trkpt>
      <trkpt lat="53.177848" lon="6.538784">
        <ele>2.065130</ele>
        <time>2026-09-03T17:13:06.037Z</time>
      </trkpt>
      <trkpt lat="53.177857" lon="6.538984">
        <ele>2.088885</ele>
        <time>2026-09-03T17:13:09.031Z</time>
      </trkpt>
      <trkpt lat="53.177879" lon="6.539184">
        <ele>2.112970</ele>
        <time>2026-09-03T17:13:12.035Z</time>
      </trkpt>
      <trkpt lat="53.177899" lon="6.539392">
        <ele>2.137922</ele>
        <time>2026-09-03T17:13:15.051Z</time>
      </trkpt>
      <trkpt lat="53.177913" lon="6.539608">
        <ele>2.163656</ele>
        <time>2026-09-03T17:13:18.035Z</time>
      </trkpt>
      <trkpt lat="53.177929" lon="6.539819">
        <ele>2.188847</ele>
        <time>2026-09-03T17:13:21.036Z</time>
      </trkpt>
      <trkpt lat="53.177946" lon="6.540023">
        <ele>2.213242</ele>
        <time>2026-09-03T17:13:24.042Z</time>
      </trkpt>
      <trkpt lat="53.177954" lon="6.540220">
        <ele>2.236630</ele>
        <time>2026-09-03T17:13:27.039Z</time>
      </trkpt>
      <trkpt lat="53.177976" lon="6.540414">
        <ele>2.260016</ele>
        <time>2026-09-03T17:13:30.044Z</time>
      </trkpt>
      <trkpt lat="53.177986" lon="6.540597">
        <ele>2.280854</ele>
        <time>2026-09-03T17:13:33.045Z</time>
      </trkpt>
      <trkpt lat="53.178006" lon="6.540803">
        <ele>2.296528</ele>
        <time>2026-09-03T17:13:36.041Z</time>
      </trkpt>
      <trkpt lat="53.178020" lon="6.541003">
        <ele>2.311653</ele>
        <time>2026-09-03T17:13:39.038Z</time>
      </trkpt>
      <trkpt lat="53.178034" lon="6.541180">
        <ele>2.325063</ele>
        <time>2026-09-03T17:13:42.043Z</time>
      </trkpt>
      <trkpt lat="53.178051" lon="6.541341">
        <ele>2.337342</ele>
        <time>2026-09-03T17:13:45.037Z</time>
      </trkpt>
      <trkpt lat="53.178129" lon="6.541425">
        <ele>2.348977</ele>
        <time>2026-09-03T17:13:48.042Z</time>
      </trkpt>
      <trkpt lat="53.178228" lon="6.541429">
        <ele>2.361387</ele>
        <time>2026-09-03T17:13:51.038Z</time>
      </trkpt>
      <trkpt lat="53.178341" lon="6.541417">
        <ele>2.375578</ele>
        <time>2026-09-03T17:13:54.050Z</time>
      </trkpt>
      <trkpt lat="53.178454" lon="6.541437">
        <ele>2.389819</ele>
        <time>2026-09-03T17:13:57.040Z</time>
      </trkpt>
      <trkpt lat="53.178559" lon="6.541441">
        <ele>2.402981</ele>
        <time>2026-09-03T17:14:00.039Z</time>
      </trkpt>
      <trkpt lat="53.178661" lon="6.541496">
        <ele>2.416415</ele>
        <time>2026-09-03T17:14:04.044Z</time>
      </trkpt>
      <trkpt lat="53.178766" lon="6.541469">
        <ele>2.429730</ele>
        <time>2026-09-03T17:14:17.035Z</time>
      </trkpt>
      <trkpt lat="53.178774" lon="6.541309">
        <ele>2.441789</ele>
        <time>2026-09-03T17:14:20.036Z</time>
      </trkpt>
      <trkpt lat="53.178772" lon="6.541129">
        <ele>2.455311</ele>
        <time>2026-09-03T17:14:23.038Z</time>
      </trkpt>
      <trkpt lat="53.178760" lon="6.540955">
        <ele>2.468467</ele>
        <time>2026-09-03T17:14:26.043Z</time>
      </trkpt>
      <trkpt lat="53.178746" lon="6.540784">
        <ele>2.481430</ele>
        <time>2026-09-03T17:14:29.043Z</time>
      </trkpt>
      <trkpt lat="53.178728" lon="6.540607">
        <ele>2.494914</ele>
        <time>2026-09-03T17:14:32.036Z</time>
      </trkpt>
      <trkpt lat="53.178812" lon="6.540484">
        <ele>2.496029</ele>
        <time>2026-09-03T17:14:36.042Z</time>
      </trkpt>
      <trkpt lat="53.178914" lon="6.540467">
        <ele>2.469989</ele>
        <time>2026-09-03T17:14:40.043Z</time>
      </trkpt>
      <trkpt lat="53.179020" lon="6.540393">
        <ele>2.440800</ele>
        <time>2026-09-03T17:14:44.042Z</time>
      </trkpt>
      <trkpt lat="53.179110" lon="6.540310">
        <ele>2.414678</ele>
        <time>2026-09-03T17:14:47.038Z</time>
      </trkpt>
      <trkpt lat="53.179181" lon="6.540214">
        <ele>2.391464</ele>
        <time>2026-09-03T17:14:53.042Z</time>
      </trkpt>
      <trkpt lat="53.179265" lon="6.540158">
        <ele>2.368485</ele>
        <time>2026-09-03T17:14:57.042Z</time>
      </trkpt>
      <trkpt lat="53.179350" lon="6.540109">
        <ele>2.345640</ele>
        <time>2026-09-03T17:15:00.038Z</time>
      </trkpt>
      <trkpt lat="53.179439" lon="6.540068">
        <ele>2.322186</ele>
        <time>2026-09-03T17:15:03.042Z</time>
      </trkpt>
      <trkpt lat="53.179530" lon="6.540020">
        <ele>2.297942</ele>
        <time>2026-09-03T17:15:06.040Z</time>
      </trkpt>
      <trkpt lat="53.179619" lon="6.539948">
        <ele>2.272816</ele>
        <time>2026-09-03T17:15:09.038Z</time>
      </trkpt>
      <trkpt lat="53.179719" lon="6.539828">
        <ele>2.241526</ele>
        <time>2026-09-03T17:15:12.033Z</time>
      </trkpt>
      <trkpt lat="53.179817" lon="6.539693">
        <ele>2.209244</ele>
        <time>2026-09-03T17:15:15.045Z</time>
      </trkpt>
      <trkpt lat="53.179929" lon="6.539691">
        <ele>2.180791</ele>
        <time>2026-09-03T17:15:18.044Z</time>
      </trkpt>
      <trkpt lat="53.180045" lon="6.539668">
        <ele>2.151116</ele>
        <time>2026-09-03T17:15:21.046Z</time>
      </trkpt>
      <trkpt lat="53.180152" lon="6.539561">
        <ele>2.119428</ele>
        <time>2026-09-03T17:15:24.042Z</time>
      </trkpt>
      <trkpt lat="53.180247" lon="6.539498">
        <ele>2.093459</ele>
        <time>2026-09-03T17:15:27.039Z</time>
      </trkpt>
      <trkpt lat="53.180330" lon="6.539594">
        <ele>2.067805</ele>
        <time>2026-09-03T17:15:30.044Z</time>
      </trkpt>
      <trkpt lat="53.180439" lon="6.539563">
        <ele>2.047739</ele>
        <time>2026-09-03T17:15:33.035Z</time>
      </trkpt>
      <trkpt lat="53.180554" lon="6.539494">
        <ele>2.047676</ele>
        <time>2026-09-03T17:15:36.043Z</time>
      </trkpt>
      <trkpt lat="53.180674" lon="6.539427">
        <ele>2.047611</ele>
        <time>2026-09-03T17:15:39.038Z</time>
      </trkpt>
      <trkpt lat="53.180790" lon="6.539366">
        <ele>2.047548</ele>
        <time>2026-09-03T17:15:42.035Z</time>
      </trkpt>
      <trkpt lat="53.180889" lon="6.539289">
        <ele>2.047492</ele>
        <time>2026-09-03T17:15:45.035Z</time>
      </trkpt>
      <trkpt lat="53.180907" lon="6.539141">
        <ele>2.047445</ele>
        <time>2026-09-03T17:15:48.037Z</time>
      </trkpt>
      <trkpt lat="53.180975" lon="6.539260">
        <ele>2.047395</ele>
        <time>2026-09-03T17:15:55.038Z</time>
      </trkpt>
      <trkpt lat="53.181017" lon="6.539401">
        <ele>2.047346</ele>
        <time>2026-09-03T17:15:58.039Z</time>
      </trkpt>
      <trkpt lat="53.181104" lon="6.539482">
        <ele>2.047295</ele>
        <time>2026-09-03T17:16:02.038Z</time>
      </trkpt>
      <trkpt lat="53.181202" lon="6.539383">
        <ele>2.047236</ele>
        <time>2026-09-03T17:16:06.038Z</time>
      </trkpt>
      <trkpt lat="53.181289" lon="6.539307">
        <ele>2.047185</ele>
        <time>2026-09-03T17:16:09.052Z</time>
      </trkpt>
      <trkpt lat="53.181354" lon="6.539175">
        <ele>2.047132</ele>
        <time>2026-09-03T17:16:13.045Z</time>
      </trkpt>
      <trkpt lat="53.181433" lon="6.539091">
        <ele>2.047084</ele>
        <time>2026-09-03T17:16:16.042Z</time>
      </trkpt>
      <trkpt lat="53.181526" lon="6.539021">
        <ele>2.047032</ele>
        <time>2026-09-03T17:16:19.037Z</time>
      </trkpt>
      <trkpt lat="53.181611" lon="6.538896">
        <ele>2.046973</ele>
        <time>2026-09-03T17:16:22.039Z</time>
      </trkpt>
      <trkpt lat="53.181715" lon="6.538801">
        <ele>2.046912</ele>
        <time>2026-09-03T17:16:25.038Z</time>
      </trkpt>
      <trkpt lat="53.181815" lon="6.538666">
        <ele>2.046846</ele>
        <time>2026-09-03T17:16:28.039Z</time>
      </trkpt>
      <trkpt lat="53.181856" lon="6.538497">
        <ele>2.025976</ele>
        <time>2026-09-03T17:16:31.040Z</time>
      </trkpt>
      <trkpt lat="53.181907" lon="6.538342">
        <ele>1.996988</ele>
        <time>2026-09-03T17:16:34.039Z</time>
      </trkpt>
      <trkpt lat="53.181988" lon="6.538199">
        <ele>1.964730</ele>
        <time>2026-09-03T17:16:37.038Z</time>
      </trkpt>
      <trkpt lat="53.182077" lon="6.538075">
        <ele>1.933013</ele>
        <time>2026-09-03T17:16:40.036Z</time>
      </trkpt>
      <trkpt lat="53.182165" lon="6.537952">
        <ele>1.901610</ele>
        <time>2026-09-03T17:16:43.038Z</time>
      </trkpt>
      <trkpt lat="53.182256" lon="6.537849">
        <ele>1.871530</ele>
        <time>2026-09-03T17:16:46.036Z</time>
      </trkpt>
      <trkpt lat="53.182324" lon="6.537735">
        <ele>1.845161</ele>
        <time>2026-09-03T17:16:49.050Z</time>
      </trkpt>
      <trkpt lat="53.182396" lon="6.537565">
        <ele>1.811035</ele>
        <time>2026-09-03T17:16:52.038Z</time>
      </trkpt>
      <trkpt lat="53.182450" lon="6.537374">
        <ele>1.776413</ele>
        <time>2026-09-03T17:16:55.035Z</time>
      </trkpt>
      <trkpt lat="53.182498" lon="6.537198">
        <ele>1.744713</ele>
        <time>2026-09-03T17:16:58.037Z</time>
      </trkpt>
      <trkpt lat="53.182565" lon="6.537024">
        <ele>1.710807</ele>
        <time>2026-09-03T17:17:01.039Z</time>
      </trkpt>
      <trkpt lat="53.182652" lon="6.536865">
        <ele>1.675511</ele>
        <time>2026-09-03T17:17:04.036Z</time>
      </trkpt>
      <trkpt lat="53.182758" lon="6.536740">
        <ele>1.640004</ele>
        <time>2026-09-03T17:17:07.036Z</time>
      </trkpt>
      <trkpt lat="53.182844" lon="6.536595">
        <ele>1.606560</ele>
        <time>2026-09-03T17:17:10.037Z</time>
      </trkpt>
      <trkpt lat="53.182904" lon="6.536409">
        <ele>1.571931</ele>
        <time>2026-09-03T17:17:13.036Z</time>
      </trkpt>
      <trkpt lat="53.182946" lon="6.536197">
        <ele>1.547794</ele>
        <time>2026-09-03T17:17:16.050Z</time>
      </trkpt>
      <trkpt lat="53.182965" lon="6.535993">
        <ele>1.535624</ele>
        <time>2026-09-03T17:17:19.036Z</time>
      </trkpt>
      <trkpt lat="53.183000" lon="6.535792">
        <ele>1.523286</ele>
        <time>2026-09-03T17:17:22.042Z</time>
      </trkpt>
      <trkpt lat="53.183089" lon="6.535636">
        <ele>1.510589</ele>
        <time>2026-09-03T17:17:25.042Z</time>
      </trkpt>
      <trkpt lat="53.183190" lon="6.535516">
        <ele>1.498393</ele>
        <time>2026-09-03T17:17:28.043Z</time>
      </trkpt>
      <trkpt lat="53.183294" lon="6.535393">
        <ele>1.485854</ele>
        <time>2026-09-03T17:17:31.034Z</time>
      </trkpt>
      <trkpt lat="53.183347" lon="6.535217">
        <ele>1.474243</ele>
        <time>2026-09-03T17:17:34.043Z</time>
      </trkpt>
      <trkpt lat="53.183383" lon="6.535052">
        <ele>1.463893</ele>
        <time>2026-09-03T17:17:37.037Z</time>
      </trkpt>
      <trkpt lat="53.183439" lon="6.534930">
        <ele>1.454834</ele>
        <time>2026-09-03T17:17:40.038Z</time>
      </trkpt>
      <trkpt lat="53.183539" lon="6.534812">
        <ele>1.442786</ele>
        <time>2026-09-03T17:17:44.042Z</time>
      </trkpt>
      <trkpt lat="53.183635" lon="6.534727">
        <ele>1.432096</ele>
        <time>2026-09-03T17:17:48.050Z</time>
      </trkpt>
      <trkpt lat="53.183702" lon="6.534841">
        <ele>1.422684</ele>
        <time>2026-09-03T17:17:52.038Z</time>
      </trkpt>
      <trkpt lat="53.183795" lon="6.534854">
        <ele>1.413504</ele>
        <time>2026-09-03T17:17:56.036Z</time>
      </trkpt>
      <trkpt lat="53.183869" lon="6.534731">
        <ele>1.403230</ele>
        <time>2026-09-03T17:17:59.037Z</time>
      </trkpt>
      <trkpt lat="53.183944" lon="6.534619">
        <ele>1.393330</ele>
        <time>2026-09-03T17:18:03.043Z</time>
      </trkpt>
      <trkpt lat="53.184040" lon="6.534731">
        <ele>1.381808</ele>
        <time>2026-09-03T17:18:07.040Z</time>
      </trkpt>
      <trkpt lat="53.184077" lon="6.534923">
        <ele>1.360359</ele>
        <time>2026-09-03T17:18:10.038Z</time>
      </trkpt>
      <trkpt lat="53.184102" lon="6.535114">
        <ele>1.334973</ele>
        <time>2026-09-03T17:18:13.038Z</time>
      </trkpt>
      <trkpt lat="53.184129" lon="6.535299">
        <ele>1.310249</ele>
        <time>2026-09-03T17:18:16.050Z</time>
      </trkpt>
      <trkpt lat="53.184166" lon="6.535489">
        <ele>1.284308</ele>
        <time>2026-09-03T17:18:19.037Z</time>
      </trkpt>
      <trkpt lat="53.184200" lon="6.535694">
        <ele>1.256688</ele>
        <time>2026-09-03T17:18:22.039Z</time>
      </trkpt>
      <trkpt lat="53.184238" lon="6.535896">
        <ele>1.229197</ele>
        <time>2026-09-03T17:18:25.043Z</time>
      </trkpt>
      <trkpt lat="53.184271" lon="6.536088">
        <ele>1.203261</ele>
        <time>2026-09-03T17:18:28.045Z</time>
      </trkpt>
      <trkpt lat="53.184305" lon="6.536269">
        <ele>1.178631</ele>
        <time>2026-09-03T17:18:31.035Z</time>
      </trkpt>
      <trkpt lat="53.184343" lon="6.536455">
        <ele>1.153114</ele>
        <time>2026-09-03T17:18:34.042Z</time>
      </trkpt>
      <trkpt lat="53.184380" lon="6.536652">
        <ele>1.126307</ele>
        <time>2026-09-03T17:18:37.042Z</time>
      </trkpt>
      <trkpt lat="53.184414" lon="6.536851">
        <ele>1.099437</ele>
        <time>2026-09-03T17:18:40.050Z</time>
      </trkpt>
      <trkpt lat="53.184445" lon="6.537035">
        <ele>1.074619</ele>
        <time>2026-09-03T17:18:43.039Z</time>
      </trkpt>
      <trkpt lat="53.184481" lon="6.537227">
        <ele>1.048496</ele>
        <time>2026-09-03T17:18:46.036Z</time>
      </trkpt>
      <trkpt lat="53.184518" lon="6.537426">
        <ele>1.021442</ele>
        <time>2026-09-03T17:18:49.050Z</time>
      </trkpt>
      <trkpt lat="53.184551" lon="6.537616">
        <ele>0.995755</ele>
        <time>2026-09-03T17:18:52.036Z</time>
      </trkpt>
      <trkpt lat="53.184585" lon="6.537794">
        <ele>0.937483</ele>
        <time>2026-09-03T17:18:55.050Z</time>
      </trkpt>
      <trkpt lat="53.184611" lon="6.537975">
        <ele>0.863881</ele>
        <time>2026-09-03T17:18:58.036Z</time>
      </trkpt>
      <trkpt lat="53.184645" lon="6.538169">
        <ele>0.783953</ele>
        <time>2026-09-03T17:19:01.036Z</time>
      </trkpt>
      <trkpt lat="53.184601" lon="6.538329">
        <ele>0.714339</ele>
        <time>2026-09-03T17:19:04.036Z</time>
      </trkpt>
      <trkpt lat="53.184516" lon="6.538470">
        <ele>0.635250</ele>
        <time>2026-09-03T17:19:07.050Z</time>
      </trkpt>
      <trkpt lat="53.184432" lon="6.538628">
        <ele>0.551726</ele>
        <time>2026-09-03T17:19:10.037Z</time>
      </trkpt>
      <trkpt lat="53.184345" lon="6.538767">
        <ele>0.472244</ele>
        <time>2026-09-03T17:19:13.038Z</time>
      </trkpt>
      <trkpt lat="53.184316" lon="6.538930">
        <ele>0.405007</ele>
        <time>2026-09-03T17:19:16.034Z</time>
      </trkpt>
      <trkpt lat="53.184351" lon="6.539109">
        <ele>0.330550</ele>
        <time>2026-09-03T17:19:19.039Z</time>
      </trkpt>
      <trkpt lat="53.184387" lon="6.539315">
        <ele>0.245696</ele>
        <time>2026-09-03T17:19:22.037Z</time>
      </trkpt>
      <trkpt lat="53.184420" lon="6.539481">
        <ele>0.176536</ele>
        <time>2026-09-03T17:19:24.039Z</time>
      </trkpt>
      <trkpt lat="53.184453" lon="6.539683">
        <ele>0.093742</ele>
        <time>2026-09-03T17:19:27.036Z</time>
      </trkpt>
      <trkpt lat="53.184490" lon="6.539881">
        <ele>0.011726</ele>
        <time>2026-09-03T17:19:30.039Z</time>
      </trkpt>
      <trkpt lat="53.184519" lon="6.540076">
        <ele>-0.067723</ele>
        <time>2026-09-03T17:19:33.037Z</time>
      </trkpt>
      <trkpt lat="53.184556" lon="6.540288">
        <ele>-0.155039</ele>
        <time>2026-09-03T17:19:36.039Z</time>
      </trkpt>
      <trkpt lat="53.184582" lon="6.540434">
        <ele>-0.183252</ele>
        <time>2026-09-03T17:19:38.038Z</time>
      </trkpt>
      <trkpt lat="53.184611" lon="6.540583">
        <ele>-0.124790</ele>
        <time>2026-09-03T17:19:40.037Z</time>
      </trkpt>
      <trkpt lat="53.184645" lon="6.540795">
        <ele>-0.042892</ele>
        <time>2026-09-03T17:19:43.039Z</time>
      </trkpt>
      <trkpt lat="53.184677" lon="6.540994">
        <ele>0.033998</ele>
        <time>2026-09-03T17:19:46.038Z</time>
      </trkpt>
      <trkpt lat="53.184711" lon="6.541185">
        <ele>0.108353</ele>
        <time>2026-09-03T17:19:49.050Z</time>
      </trkpt>
      <trkpt lat="53.184748" lon="6.541395">
        <ele>0.190037</ele>
        <time>2026-09-03T17:19:52.034Z</time>
      </trkpt>
      <trkpt lat="53.184782" lon="6.541605">
        <ele>0.271214</ele>
        <time>2026-09-03T17:19:55.036Z</time>
      </trkpt>
      <trkpt lat="53.184814" lon="6.541795">
        <ele>0.344864</ele>
        <time>2026-09-03T17:19:58.036Z</time>
      </trkpt>
      <trkpt lat="53.184841" lon="6.541978">
        <ele>0.415195</ele>
        <time>2026-09-03T17:20:01.035Z</time>
      </trkpt>
      <trkpt lat="53.184874" lon="6.542177">
        <ele>0.492248</ele>
        <time>2026-09-03T17:20:04.035Z</time>
      </trkpt>
      <trkpt lat="53.184912" lon="6.542386">
        <ele>0.573752</ele>
        <time>2026-09-03T17:20:07.034Z</time>
      </trkpt>
      <trkpt lat="53.184948" lon="6.542579">
        <ele>0.649183</ele>
        <time>2026-09-03T17:20:10.042Z</time>
      </trkpt>
      <trkpt lat="53.184915" lon="6.542733">
        <ele>0.710216</ele>
        <time>2026-09-03T17:20:19.042Z</time>
      </trkpt>
      <trkpt lat="53.184923" lon="6.542887">
        <ele>0.767900</ele>
        <time>2026-09-03T17:20:23.037Z</time>
      </trkpt>
      <trkpt lat="53.184971" lon="6.543038">
        <ele>0.831687</ele>
        <time>2026-09-03T17:20:26.043Z</time>
      </trkpt>
      <trkpt lat="53.185019" lon="6.543191">
        <ele>0.896134</ele>
        <time>2026-09-03T17:20:29.035Z</time>
      </trkpt>
      <trkpt lat="53.185075" lon="6.543328">
        <ele>0.912610</ele>
        <time>2026-09-03T17:20:33.042Z</time>
      </trkpt>
      <trkpt lat="53.185186" lon="6.543263">
        <ele>0.895248</ele>
        <time>2026-09-03T17:20:38.035Z</time>
      </trkpt>
      <trkpt lat="53.185283" lon="6.543195">
        <ele>0.879719</ele>
        <time>2026-09-03T17:20:41.037Z</time>
      </trkpt>
      <trkpt lat="53.185385" lon="6.543143">
        <ele>0.863978</ele>
        <time>2026-09-03T17:20:44.037Z</time>
      </trkpt>
      <trkpt lat="53.185479" lon="6.543107">
        <ele>0.849744</ele>
        <time>2026-09-03T17:20:47.037Z</time>
      </trkpt>
      <trkpt lat="53.185543" lon="6.542994">
        <ele>0.835992</ele>
        <time>2026-09-03T17:20:52.052Z</time>
      </trkpt>
      <trkpt lat="53.185490" lon="6.542835">
        <ele>0.819900</ele>
        <time>2026-09-03T17:21:05.050Z</time>
      </trkpt>
      <trkpt lat="53.185451" lon="6.542663">
        <ele>0.803636</ele>
        <time>2026-09-03T17:21:10.038Z</time>
      </trkpt>
      <trkpt lat="53.185420" lon="6.542487">
        <ele>0.787411</ele>
        <time>2026-09-03T17:21:14.031Z</time>
      </trkpt>
      <trkpt lat="53.185411" lon="6.542315">
        <ele>0.772141</ele>
        <time>2026-09-03T17:21:19.034Z</time>
      </trkpt>
      <trkpt lat="53.185404" lon="6.542131">
        <ele>0.755835</ele>
        <time>2026-09-03T17:21:24.033Z</time>
      </trkpt>
      <trkpt lat="53.185388" lon="6.541976">
        <ele>0.741925</ele>
        <time>2026-09-03T17:21:28.031Z</time>
      </trkpt>
      <trkpt lat="53.185410" lon="6.541804">
        <ele>0.726370</ele>
        <time>2026-09-03T17:21:33.037Z</time>
      </trkpt>
      <trkpt lat="53.185472" lon="6.541684">
        <ele>0.712356</ele>
        <time>2026-09-03T17:21:37.042Z</time>
      </trkpt>
      <trkpt lat="53.185550" lon="6.541588">
        <ele>0.698052</ele>
        <time>2026-09-03T17:21:41.043Z</time>
      </trkpt>
      <trkpt lat="53.185635" lon="6.541506">
        <ele>0.683561</ele>
        <time>2026-09-03T17:21:47.060Z</time>
      </trkpt>
      <trkpt lat="53.185555" lon="6.541582">
        <ele>0.669974</ele>
        <time>2026-09-03T17:22:10.038Z</time>
      </trkpt>
      <trkpt lat="53.185617" lon="6.541703">
        <ele>0.655894</ele>
        <time>2026-09-03T17:22:14.050Z</time>
      </trkpt>
      <trkpt lat="53.185652" lon="6.541878">
        <ele>0.704448</ele>
        <time>2026-09-03T17:22:19.037Z</time>
      </trkpt>
      <trkpt lat="53.185703" lon="6.542004">
        <ele>0.744637</ele>
        <time>2026-09-03T17:22:23.050Z</time>
      </trkpt>
      <trkpt lat="53.185743" lon="6.542165">
        <ele>0.790703</ele>
        <time>2026-09-03T17:22:29.036Z</time>
      </trkpt>
      <trkpt lat="53.185761" lon="6.542331">
        <ele>0.835291</ele>
        <time>2026-09-03T17:22:34.038Z</time>
      </trkpt>
      <trkpt lat="53.185749" lon="6.542480">
        <ele>0.875027</ele>
        <time>2026-09-03T17:22:38.036Z</time>
      </trkpt>
      <trkpt lat="53.185680" lon="6.542589">
        <ele>0.916935</ele>
        <time>2026-09-03T17:22:42.035Z</time>
      </trkpt>
      <trkpt lat="53.185573" lon="6.542636">
        <ele>0.965739</ele>
        <time>2026-09-03T17:22:47.038Z</time>
      </trkpt>
      <trkpt lat="53.185492" lon="6.542711">
        <ele>1.006598</ele>
        <time>2026-09-03T17:22:51.036Z</time>
      </trkpt>
      <trkpt lat="53.185494" lon="6.542863">
        <ele>1.046783</ele>
        <time>2026-09-03T17:22:56.034Z</time>
      </trkpt>
      <trkpt lat="53.185544" lon="6.543001">
        <ele>1.089407</ele>
        <time>2026-09-03T17:23:12.034Z</time>
      </trkpt>
      <trkpt lat="53.185620" lon="6.543103">
        <ele>1.132425</ele>
        <time>2026-09-03T17:23:18.035Z</time>
      </trkpt>
      <trkpt lat="53.185717" lon="6.543124">
        <ele>1.175569</ele>
        <time>2026-09-03T17:23:21.037Z</time>
      </trkpt>
      <trkpt lat="53.185811" lon="6.543163">
        <ele>1.218293</ele>
        <time>2026-09-03T17:23:24.038Z</time>
      </trkpt>
      <trkpt lat="53.185903" lon="6.543226">
        <ele>1.262157</ele>
        <time>2026-09-03T17:23:27.036Z</time>
      </trkpt>
      <trkpt lat="53.185995" lon="6.543306">
        <ele>1.307915</ele>
        <time>2026-09-03T17:23:30.040Z</time>
      </trkpt>
      <trkpt lat="53.186103" lon="6.543390">
        <ele>1.360472</ele>
        <time>2026-09-03T17:23:33.038Z</time>
      </trkpt>
      <trkpt lat="53.186220" lon="6.543475">
        <ele>1.416757</ele>
        <time>2026-09-03T17:23:36.050Z</time>
      </trkpt>
      <trkpt lat="53.186339" lon="6.543560">
        <ele>1.468252</ele>
        <time>2026-09-03T17:23:39.038Z</time>
      </trkpt>
      <trkpt lat="53.186452" lon="6.543648">
        <ele>1.510760</ele>
        <time>2026-09-03T17:23:42.050Z</time>
      </trkpt>
      <trkpt lat="53.186558" lon="6.543735">
        <ele>1.551029</ele>
        <time>2026-09-03T17:23:45.036Z</time>
      </trkpt>
      <trkpt lat="53.186652" lon="6.543810">
        <ele>1.586547</ele>
        <time>2026-09-03T17:23:48.052Z</time>
      </trkpt>
      <trkpt lat="53.186738" lon="6.543875">
        <ele>1.618730</ele>
        <time>2026-09-03T17:23:51.038Z</time>
      </trkpt>
      <trkpt lat="53.186828" lon="6.543943">
        <ele>1.652408</ele>
        <time>2026-09-03T17:23:54.037Z</time>
      </trkpt>
      <trkpt lat="53.186921" lon="6.544024">
        <ele>1.688169</ele>
        <time>2026-09-03T17:23:57.037Z</time>
      </trkpt>
      <trkpt lat="53.187006" lon="6.544093">
        <ele>1.720391</ele>
        <time>2026-09-03T17:24:00.034Z</time>
      </trkpt>
      <trkpt lat="53.187117" lon="6.544175">
        <ele>1.761771</ele>
        <time>2026-09-03T17:24:04.051Z</time>
      </trkpt>
      <trkpt lat="53.187216" lon="6.544256">
        <ele>1.799357</ele>
        <time>2026-09-03T17:24:07.033Z</time>
      </trkpt>
      <trkpt lat="53.187317" lon="6.544329">
        <ele>1.836878</ele>
        <time>2026-09-03T17:24:10.035Z</time>
      </trkpt>
      <trkpt lat="53.187427" lon="6.544415">
        <ele>1.878287</ele>
        <time>2026-09-03T17:24:13.035Z</time>
      </trkpt>
      <trkpt lat="53.187536" lon="6.544491">
        <ele>1.918557</ele>
        <time>2026-09-03T17:24:16.037Z</time>
      </trkpt>
      <trkpt lat="53.187631" lon="6.544559">
        <ele>1.953795</ele>
        <time>2026-09-03T17:24:19.038Z</time>
      </trkpt>
      <trkpt lat="53.187721" lon="6.544629">
        <ele>1.987643</ele>
        <time>2026-09-03T17:24:22.036Z</time>
      </trkpt>
      <trkpt lat="53.187806" lon="6.544709">
        <ele>2.020909</ele>
        <time>2026-09-03T17:24:25.050Z</time>
      </trkpt>
      <trkpt lat="53.187897" lon="6.544801">
        <ele>2.057178</ele>
        <time>2026-09-03T17:24:28.039Z</time>
      </trkpt>
      <trkpt lat="53.187985" lon="6.544903">
        <ele>1.997092</ele>
        <time>2026-09-03T17:24:31.040Z</time>
      </trkpt>
      <trkpt lat="53.188062" lon="6.544986">
        <ele>1.932072</ele>
        <time>2026-09-03T17:24:34.050Z</time>
      </trkpt>
      <trkpt lat="53.188145" lon="6.544893">
        <ele>1.861160</ele>
        <time>2026-09-03T17:24:40.036Z</time>
      </trkpt>
      <trkpt lat="53.188240" lon="6.544813">
        <ele>1.785681</ele>
        <time>2026-09-03T17:24:44.035Z</time>
      </trkpt>
      <trkpt lat="53.188349" lon="6.544834">
        <ele>1.707851</ele>
        <time>2026-09-03T17:24:47.035Z</time>
      </trkpt>
      <trkpt lat="53.188464" lon="6.544890">
        <ele>1.622877</ele>
        <time>2026-09-03T17:24:50.050Z</time>
      </trkpt>
      <trkpt lat="53.188585" lon="6.544941">
        <ele>1.534354</ele>
        <time>2026-09-03T17:24:53.043Z</time>
      </trkpt>
      <trkpt lat="53.188707" lon="6.544981">
        <ele>1.446162</ele>
        <time>2026-09-03T17:24:56.043Z</time>
      </trkpt>
      <trkpt lat="53.188828" lon="6.545019">
        <ele>1.358827</ele>
        <time>2026-09-03T17:24:59.042Z</time>
      </trkpt>
      <trkpt lat="53.188957" lon="6.545051">
        <ele>1.266319</ele>
        <time>2026-09-03T17:25:02.041Z</time>
      </trkpt>
      <trkpt lat="53.189046" lon="6.545081">
        <ele>1.201914</ele>
        <time>2026-09-03T17:25:04.034Z</time>
      </trkpt>
      <trkpt lat="53.189142" lon="6.545099">
        <ele>1.133391</ele>
        <time>2026-09-03T17:25:06.035Z</time>
      </trkpt>
      <trkpt lat="53.189271" lon="6.545134">
        <ele>1.040686</ele>
        <time>2026-09-03T17:25:09.039Z</time>
      </trkpt>
      <trkpt lat="53.189396" lon="6.545155">
        <ele>0.951572</ele>
        <time>2026-09-03T17:25:12.037Z</time>
      </trkpt>
      <trkpt lat="53.189510" lon="6.545124">
        <ele>0.869643</ele>
        <time>2026-09-03T17:25:15.038Z</time>
      </trkpt>
      <trkpt lat="53.189612" lon="6.545034">
        <ele>0.787803</ele>
        <time>2026-09-03T17:25:18.037Z</time>
      </trkpt>
      <trkpt lat="53.189718" lon="6.544939">
        <ele>0.768897</ele>
        <time>2026-09-03T17:25:21.036Z</time>
      </trkpt>
      <trkpt lat="53.189814" lon="6.544852">
        <ele>0.752654</ele>
        <time>2026-09-03T17:25:24.038Z</time>
      </trkpt>
      <trkpt lat="53.189911" lon="6.544851">
        <ele>0.738231</ele>
        <time>2026-09-03T17:25:27.037Z</time>
      </trkpt>
      <trkpt lat="53.190000" lon="6.544922">
        <ele>0.723563</ele>
        <time>2026-09-03T17:25:31.036Z</time>
      </trkpt>
      <trkpt lat="53.190023" lon="6.545074">
        <ele>0.709596</ele>
        <time>2026-09-03T17:25:35.039Z</time>
      </trkpt>
      <trkpt lat="53.189996" lon="6.545232">
        <ele>0.694959</ele>
        <time>2026-09-03T17:25:38.050Z</time>
      </trkpt>
      <trkpt lat="53.190018" lon="6.545404">
        <ele>0.679290</ele>
        <time>2026-09-03T17:25:41.037Z</time>
      </trkpt>
      <trkpt lat="53.190049" lon="6.545546">
        <ele>0.665825</ele>
        <time>2026-09-03T17:25:44.036Z</time>
      </trkpt>
      <trkpt lat="53.190023" lon="6.545692">
        <ele>0.652256</ele>
        <time>2026-09-03T17:25:47.038Z</time>
      </trkpt>
      <trkpt lat="53.190052" lon="6.545873">
        <ele>0.635564</ele>
        <time>2026-09-03T17:25:50.042Z</time>
      </trkpt>
      <trkpt lat="53.190099" lon="6.546043">
        <ele>0.618883</ele>
        <time>2026-09-03T17:25:53.042Z</time>
      </trkpt>
      <trkpt lat="53.190158" lon="6.546219">
        <ele>0.600916</ele>
        <time>2026-09-03T17:25:56.037Z</time>
      </trkpt>
      <trkpt lat="53.190225" lon="6.546396">
        <ele>0.582264</ele>
        <time>2026-09-03T17:25:59.043Z</time>
      </trkpt>
      <trkpt lat="53.190279" lon="6.546580">
        <ele>0.564010</ele>
        <time>2026-09-03T17:26:02.038Z</time>
      </trkpt>
      <trkpt lat="53.190334" lon="6.546752">
        <ele>0.546641</ele>
        <time>2026-09-03T17:26:05.043Z</time>
      </trkpt>
      <trkpt lat="53.190386" lon="6.546909">
        <ele>0.530659</ele>
        <time>2026-09-03T17:26:08.042Z</time>
      </trkpt>
      <trkpt lat="53.190441" lon="6.547078">
        <ele>0.516375</ele>
        <time>2026-09-03T17:26:11.042Z</time>
      </trkpt>
      <trkpt lat="53.190502" lon="6.547257">
        <ele>0.507452</ele>
        <time>2026-09-03T17:26:14.043Z</time>
      </trkpt>
      <trkpt lat="53.190561" lon="6.547436">
        <ele>0.498600</ele>
        <time>2026-09-03T17:26:17.039Z</time>
      </trkpt>
      <trkpt lat="53.190607" lon="6.547583">
        <ele>0.491414</ele>
        <time>2026-09-03T17:26:19.042Z</time>
      </trkpt>
      <trkpt lat="53.190671" lon="6.547771">
        <ele>0.482045</ele>
        <time>2026-09-03T17:26:22.043Z</time>
      </trkpt>
      <trkpt lat="53.190725" lon="6.547942">
        <ele>0.473670</ele>
        <time>2026-09-03T17:26:25.042Z</time>
      </trkpt>
      <trkpt lat="53.190777" lon="6.548116">
        <ele>0.465244</ele>
        <time>2026-09-03T17:26:28.034Z</time>
      </trkpt>
      <trkpt lat="53.190831" lon="6.548297">
        <ele>0.456483</ele>
        <time>2026-09-03T17:26:31.042Z</time>
      </trkpt>
      <trkpt lat="53.190888" lon="6.548487">
        <ele>0.447276</ele>
        <time>2026-09-03T17:26:34.042Z</time>
      </trkpt>
      <trkpt lat="53.190943" lon="6.548634">
        <ele>0.439767</ele>
        <time>2026-09-03T17:26:46.034Z</time>
      </trkpt>
      <trkpt lat="53.191033" lon="6.548671">
        <ele>0.433064</ele>
        <time>2026-09-03T17:26:50.034Z</time>
      </trkpt>
      <trkpt lat="53.191123" lon="6.548599">
        <ele>0.425846</ele>
        <time>2026-09-03T17:26:53.036Z</time>
      </trkpt>
      <trkpt lat="53.191233" lon="6.548531">
        <ele>0.417363</ele>
        <time>2026-09-03T17:26:56.042Z</time>
      </trkpt>
      <trkpt lat="53.191343" lon="6.548464">
        <ele>0.408895</ele>
        <time>2026-09-03T17:26:59.036Z</time>
      </trkpt>
      <trkpt lat="53.191449" lon="6.548375">
        <ele>0.400314</ele>
        <time>2026-09-03T17:27:02.050Z</time>
      </trkpt>
      <trkpt lat="53.191550" lon="6.548236">
        <ele>0.390847</ele>
        <time>2026-09-03T17:27:05.041Z</time>
      </trkpt>
      <trkpt lat="53.191632" lon="6.548167">
        <ele>0.442869</ele>
        <time>2026-09-03T17:27:07.041Z</time>
      </trkpt>
      <trkpt lat="53.191750" lon="6.548074">
        <ele>0.548926</ele>
        <time>2026-09-03T17:27:10.042Z</time>
      </trkpt>
      <trkpt lat="53.191834" lon="6.548019">
        <ele>0.622260</ele>
        <time>2026-09-03T17:27:12.042Z</time>
      </trkpt>
      <trkpt lat="53.191960" lon="6.547975">
        <ele>0.726881</ele>
        <time>2026-09-03T17:27:15.042Z</time>
      </trkpt>
      <trkpt lat="53.192087" lon="6.547984">
        <ele>0.830190</ele>
        <time>2026-09-03T17:27:18.042Z</time>
      </trkpt>
      <trkpt lat="53.192204" lon="6.548042">
        <ele>0.929385</ele>
        <time>2026-09-03T17:27:21.043Z</time>
      </trkpt>
      <trkpt lat="53.192322" lon="6.548116">
        <ele>1.031833</ele>
        <time>2026-09-03T17:27:24.036Z</time>
      </trkpt>
      <trkpt lat="53.192438" lon="6.548198">
        <ele>1.134216</ele>
        <time>2026-09-03T17:27:27.042Z</time>
      </trkpt>
      <trkpt lat="53.192554" lon="6.548297">
        <ele>1.240102</ele>
        <time>2026-09-03T17:27:30.040Z</time>
      </trkpt>
      <trkpt lat="53.192674" lon="6.548382">
        <ele>1.346048</ele>
        <time>2026-09-03T17:27:33.033Z</time>
      </trkpt>
      <trkpt lat="53.192790" lon="6.548463">
        <ele>1.448242</ele>
        <time>2026-09-03T17:27:36.039Z</time>
      </trkpt>
      <trkpt lat="53.192903" lon="6.548549">
        <ele>1.549177</ele>
        <time>2026-09-03T17:27:39.040Z</time>
      </trkpt>
      <trkpt lat="53.193013" lon="6.548648">
        <ele>1.650745</ele>
        <time>2026-09-03T17:27:42.036Z</time>
      </trkpt>
      <trkpt lat="53.193129" lon="6.548761">
        <ele>1.759903</ele>
        <time>2026-09-03T17:27:45.034Z</time>
      </trkpt>
      <trkpt lat="53.193185" lon="6.548927">
        <ele>1.849344</ele>
        <time>2026-09-03T17:27:48.035Z</time>
      </trkpt>
      <trkpt lat="53.193157" lon="6.549123">
        <ele>1.772139</ele>
        <time>2026-09-03T17:27:51.037Z</time>
      </trkpt>
      <trkpt lat="53.193110" lon="6.549323">
        <ele>1.689823</ele>
        <time>2026-09-03T17:27:54.035Z</time>
      </trkpt>
      <trkpt lat="53.193053" lon="6.549531">
        <ele>1.602184</ele>
        <time>2026-09-03T17:27:57.037Z</time>
      </trkpt>
      <trkpt lat="53.193021" lon="6.549746">
        <ele>1.517300</ele>
        <time>2026-09-03T17:28:00.037Z</time>
      </trkpt>
      <trkpt lat="53.192984" lon="6.549945">
        <ele>1.437464</ele>
        <time>2026-09-03T17:28:03.050Z</time>
      </trkpt>
      <trkpt lat="53.192944" lon="6.550137">
        <ele>1.359576</ele>
        <time>2026-09-03T17:28:06.038Z</time>
      </trkpt>
      <trkpt lat="53.192906" lon="6.550326">
        <ele>1.283189</ele>
        <time>2026-09-03T17:28:09.050Z</time>
      </trkpt>
      <trkpt lat="53.192870" lon="6.550494">
        <ele>1.214824</ele>
        <time>2026-09-03T17:28:12.035Z</time>
      </trkpt>
      <trkpt lat="53.192807" lon="6.550802">
        <ele>1.090122</ele>
        <time>2026-09-03T17:28:43.046Z</time>
      </trkpt>
      <trkpt lat="53.192780" lon="6.550989">
        <ele>1.016419</ele>
        <time>2026-09-03T17:28:47.030Z</time>
      </trkpt>
      <trkpt lat="53.192750" lon="6.551148">
        <ele>0.952546</ele>
        <time>2026-09-03T17:28:50.045Z</time>
      </trkpt>
      <trkpt lat="53.192714" lon="6.551299">
        <ele>0.890276</ele>
        <time>2026-09-03T17:28:53.037Z</time>
      </trkpt>
      <trkpt lat="53.192688" lon="6.551475">
        <ele>0.820819</ele>
        <time>2026-09-03T17:28:57.045Z</time>
      </trkpt>
      <trkpt lat="53.192605" lon="6.551572">
        <ele>0.756019</ele>
        <time>2026-09-03T17:29:01.038Z</time>
      </trkpt>
      <trkpt lat="53.192488" lon="6.551624">
        <ele>0.699995</ele>
        <time>2026-09-03T17:29:05.037Z</time>
      </trkpt>
      <trkpt lat="53.192396" lon="6.551639">
        <ele>0.698623</ele>
        <time>2026-09-03T17:29:08.037Z</time>
      </trkpt>
      <trkpt lat="53.192288" lon="6.551651">
        <ele>0.697016</ele>
        <time>2026-09-03T17:29:12.045Z</time>
      </trkpt>
      <trkpt lat="53.192183" lon="6.551661">
        <ele>0.695455</ele>
        <time>2026-09-03T17:29:16.039Z</time>
      </trkpt>
      <trkpt lat="53.192093" lon="6.551652">
        <ele>0.694117</ele>
        <time>2026-09-03T17:29:19.043Z</time>
      </trkpt>
      <trkpt lat="53.191992" lon="6.551600">
        <ele>0.692548</ele>
        <time>2026-09-03T17:29:23.040Z</time>
      </trkpt>
      <trkpt lat="53.191915" lon="6.551700">
        <ele>0.691100</ele>
        <time>2026-09-03T17:29:27.042Z</time>
      </trkpt>
      <trkpt lat="53.191904" lon="6.551865">
        <ele>0.689624</ele>
        <time>2026-09-03T17:29:30.040Z</time>
      </trkpt>
      <trkpt lat="53.191925" lon="6.552018">
        <ele>0.688228</ele>
        <time>2026-09-03T17:29:33.040Z</time>
      </trkpt>
      <trkpt lat="53.191978" lon="6.552164">
        <ele>0.686710</ele>
        <time>2026-09-03T17:29:36.040Z</time>
      </trkpt>
      <trkpt lat="53.192087" lon="6.552242">
        <ele>0.684950</ele>
        <time>2026-09-03T17:29:39.039Z</time>
      </trkpt>
      <trkpt lat="53.192183" lon="6.552298">
        <ele>0.683441</ele>
        <time>2026-09-03T17:29:42.039Z</time>
      </trkpt>
      <trkpt lat="53.192291" lon="6.552368">
        <ele>0.681721</ele>
        <time>2026-09-03T17:29:45.040Z</time>
      </trkpt>
      <trkpt lat="53.192396" lon="6.552434">
        <ele>0.680056</ele>
        <time>2026-09-03T17:29:48.040Z</time>
      </trkpt>
      <trkpt lat="53.192501" lon="6.552476">
        <ele>0.678453</ele>
        <time>2026-09-03T17:29:51.039Z</time>
      </trkpt>
      <trkpt lat="53.192591" lon="6.552499">
        <ele>0.677102</ele>
        <time>2026-09-03T17:29:55.054Z</time>
      </trkpt>
      <trkpt lat="53.192689" lon="6.552526">
        <ele>0.675628</ele>
        <time>2026-09-03T17:29:59.040Z</time>
      </trkpt>
      <trkpt lat="53.192775" lon="6.552576">
        <ele>0.674276</ele>
        <time>2026-09-03T17:30:03.038Z</time>
      </trkpt>
      <trkpt lat="53.192866" lon="6.552496">
        <ele>0.670812</ele>
        <time>2026-09-03T17:30:09.041Z</time>
      </trkpt>
      <trkpt lat="53.192898" lon="6.552344">
        <ele>0.666756</ele>
        <time>2026-09-03T17:30:12.039Z</time>
      </trkpt>
      <trkpt lat="53.192937" lon="6.552187">
        <ele>0.662477</ele>
        <time>2026-09-03T17:30:15.041Z</time>
      </trkpt>
      <trkpt lat="53.192965" lon="6.552008">
        <ele>0.657819</ele>
        <time>2026-09-03T17:30:18.040Z</time>
      </trkpt>
      <trkpt lat="53.192997" lon="6.551830">
        <ele>0.653141</ele>
        <time>2026-09-03T17:30:21.039Z</time>
      </trkpt>
      <trkpt lat="53.193059" lon="6.551705">
        <ele>0.649055</ele>
        <time>2026-09-03T17:30:27.039Z</time>
      </trkpt>
      <trkpt lat="53.193149" lon="6.551743">
        <ele>0.645154</ele>
        <time>2026-09-03T17:30:31.054Z</time>
      </trkpt>
      <trkpt lat="53.193249" lon="6.551803">
        <ele>0.640689</ele>
        <time>2026-09-03T17:30:34.053Z</time>
      </trkpt>
      <trkpt lat="53.193355" lon="6.551868">
        <ele>0.635944</ele>
        <time>2026-09-03T17:30:37.040Z</time>
      </trkpt>
      <trkpt lat="53.193463" lon="6.551927">
        <ele>0.631168</ele>
        <time>2026-09-03T17:30:40.039Z</time>
      </trkpt>
      <trkpt lat="53.193571" lon="6.551984">
        <ele>0.626409</ele>
        <time>2026-09-03T17:30:43.041Z</time>
      </trkpt>
      <trkpt lat="53.193687" lon="6.552037">
        <ele>0.621355</ele>
        <time>2026-09-03T17:30:46.042Z</time>
      </trkpt>
      <trkpt lat="53.193803" lon="6.552115">
        <ele>0.616100</ele>
        <time>2026-09-03T17:30:49.039Z</time>
      </trkpt>
      <trkpt lat="53.193913" lon="6.552164">
        <ele>0.611316</ele>
        <time>2026-09-03T17:30:52.040Z</time>
      </trkpt>
      <trkpt lat="53.194014" lon="6.552217">
        <ele>0.606867</ele>
        <time>2026-09-03T17:30:55.039Z</time>
      </trkpt>
      <trkpt lat="53.194108" lon="6.552281">
        <ele>0.602601</ele>
        <time>2026-09-03T17:30:58.036Z</time>
      </trkpt>
      <trkpt lat="53.194209" lon="6.552299">
        <ele>0.598333</ele>
        <time>2026-09-03T17:31:02.039Z</time>
      </trkpt>
      <trkpt lat="53.194263" lon="6.552157">
        <ele>0.535090</ele>
        <time>2026-09-03T17:31:05.039Z</time>
      </trkpt>
      <trkpt lat="53.194360" lon="6.552117">
        <ele>0.470883</ele>
        <time>2026-09-03T17:31:09.038Z</time>
      </trkpt>
      <trkpt lat="53.194446" lon="6.552174">
        <ele>0.411422</ele>
        <time>2026-09-03T17:31:13.040Z</time>
      </trkpt>
      <trkpt lat="53.194480" lon="6.552322">
        <ele>0.350398</ele>
        <time>2026-09-03T17:31:18.040Z</time>
      </trkpt>
      <trkpt lat="53.194438" lon="6.552491">
        <ele>0.279959</ele>
        <time>2026-09-03T17:31:21.040Z</time>
      </trkpt>
      <trkpt lat="53.194393" lon="6.552686">
        <ele>0.199510</ele>
        <time>2026-09-03T17:31:24.039Z</time>
      </trkpt>
      <trkpt lat="53.194362" lon="6.552858">
        <ele>0.130361</ele>
        <time>2026-09-03T17:31:27.038Z</time>
      </trkpt>
      <trkpt lat="53.194324" lon="6.553041">
        <ele>0.055796</ele>
        <time>2026-09-03T17:31:30.039Z</time>
      </trkpt>
      <trkpt lat="53.194289" lon="6.553236">
        <ele>-0.022573</ele>
        <time>2026-09-03T17:31:33.041Z</time>
      </trkpt>
      <trkpt lat="53.194256" lon="6.553408">
        <ele>-0.092104</ele>
        <time>2026-09-03T17:31:36.040Z</time>
      </trkpt>
      <trkpt lat="53.194220" lon="6.553591">
        <ele>-0.166258</ele>
        <time>2026-09-03T17:31:39.041Z</time>
      </trkpt>
      <trkpt lat="53.194180" lon="6.553770">
        <ele>-0.239809</ele>
        <time>2026-09-03T17:31:42.034Z</time>
      </trkpt>
      <trkpt lat="53.194136" lon="6.553953">
        <ele>-0.315724</ele>
        <time>2026-09-03T17:31:45.039Z</time>
      </trkpt>
      <trkpt lat="53.194095" lon="6.554137">
        <ele>-0.391303</ele>
        <time>2026-09-03T17:31:48.038Z</time>
      </trkpt>
      <trkpt lat="53.194060" lon="6.554332">
        <ele>-0.469673</ele>
        <time>2026-09-03T17:31:51.034Z</time>
      </trkpt>
      <trkpt lat="53.194027" lon="6.554525">
        <ele>-0.546943</ele>
        <time>2026-09-03T17:31:54.040Z</time>
      </trkpt>
      <trkpt lat="53.193990" lon="6.554700">
        <ele>-0.465920</ele>
        <time>2026-09-03T17:31:57.039Z</time>
      </trkpt>
      <trkpt lat="53.193944" lon="6.554850">
        <ele>-0.368093</ele>
        <time>2026-09-03T17:32:08.039Z</time>
      </trkpt>
      <trkpt lat="53.194041" lon="6.554941">
        <ele>-0.260270</ele>
        <time>2026-09-03T17:32:14.039Z</time>
      </trkpt>
      <trkpt lat="53.194135" lon="6.554985">
        <ele>-0.165668</ele>
        <time>2026-09-03T17:32:18.038Z</time>
      </trkpt>
      <trkpt lat="53.194213" lon="6.554900">
        <ele>-0.075403</ele>
        <time>2026-09-03T17:32:23.040Z</time>
      </trkpt>
      <trkpt lat="53.194238" lon="6.554740">
        <ele>0.020591</ele>
        <time>2026-09-03T17:32:26.038Z</time>
      </trkpt>
      <trkpt lat="53.194265" lon="6.554561">
        <ele>0.127751</ele>
        <time>2026-09-03T17:32:29.039Z</time>
      </trkpt>
      <trkpt lat="53.194303" lon="6.554371">
        <ele>0.244037</ele>
        <time>2026-09-03T17:32:32.038Z</time>
      </trkpt>
      <trkpt lat="53.194333" lon="6.554187">
        <ele>0.354742</ele>
        <time>2026-09-03T17:32:35.039Z</time>
      </trkpt>
      <trkpt lat="53.194412" lon="6.554112">
        <ele>0.442810</ele>
        <time>2026-09-03T17:32:38.038Z</time>
      </trkpt>
      <trkpt lat="53.194515" lon="6.554172">
        <ele>0.548522</ele>
        <time>2026-09-03T17:32:41.037Z</time>
      </trkpt>
      <trkpt lat="53.194623" lon="6.554233">
        <ele>0.659005</ele>
        <time>2026-09-03T17:32:44.038Z</time>
      </trkpt>
      <trkpt lat="53.194745" lon="6.554317">
        <ele>0.786887</ele>
        <time>2026-09-03T17:32:47.038Z</time>
      </trkpt>
      <trkpt lat="53.194837" lon="6.554369">
        <ele>0.881009</ele>
        <time>2026-09-03T17:32:49.038Z</time>
      </trkpt>
      <trkpt lat="53.194927" lon="6.554429">
        <ele>0.974919</ele>
        <time>2026-09-03T17:32:51.039Z</time>
      </trkpt>
      <trkpt lat="53.195047" lon="6.554517">
        <ele>1.101928</ele>
        <time>2026-09-03T17:32:54.035Z</time>
      </trkpt>
      <trkpt lat="53.195137" lon="6.554571">
        <ele>1.186132</ele>
        <time>2026-09-03T17:32:56.039Z</time>
      </trkpt>
      <trkpt lat="53.195226" lon="6.554612">
        <ele>1.193978</ele>
        <time>2026-09-03T17:32:58.041Z</time>
      </trkpt>
      <trkpt lat="53.195343" lon="6.554671">
        <ele>1.204364</ele>
        <time>2026-09-03T17:33:01.039Z</time>
      </trkpt>
      <trkpt lat="53.195431" lon="6.554707">
        <ele>1.212063</ele>
        <time>2026-09-03T17:33:03.036Z</time>
      </trkpt>
      <trkpt lat="53.195549" lon="6.554765">
        <ele>1.222516</ele>
        <time>2026-09-03T17:33:06.035Z</time>
      </trkpt>
      <trkpt lat="53.195666" lon="6.554821">
        <ele>1.232859</ele>
        <time>2026-09-03T17:33:09.045Z</time>
      </trkpt>
      <trkpt lat="53.195775" lon="6.554796">
        <ele>1.242209</ele>
        <time>2026-09-03T17:33:12.031Z</time>
      </trkpt>
      <trkpt lat="53.195832" lon="6.554656">
        <ele>1.250826</ele>
        <time>2026-09-03T17:33:15.035Z</time>
      </trkpt>
      <trkpt lat="53.195883" lon="6.554487">
        <ele>1.260459</ele>
        <time>2026-09-03T17:33:18.045Z</time>
      </trkpt>
      <trkpt lat="53.195933" lon="6.554287">
        <ele>1.271492</ele>
        <time>2026-09-03T17:33:21.045Z</time>
      </trkpt>
      <trkpt lat="53.195985" lon="6.554083">
        <ele>1.282778</ele>
        <time>2026-09-03T17:33:24.046Z</time>
      </trkpt>
      <trkpt lat="53.196039" lon="6.553886">
        <ele>1.293807</ele>
        <time>2026-09-03T17:33:27.033Z</time>
      </trkpt>
      <trkpt lat="53.196081" lon="6.553731">
        <ele>1.302467</ele>
        <time>2026-09-03T17:33:30.062Z</time>
      </trkpt>
      <trkpt lat="53.196198" lon="6.553767">
        <ele>1.312577</ele>
        <time>2026-09-03T17:33:34.040Z</time>
      </trkpt>
      <trkpt lat="53.196301" lon="6.553848">
        <ele>1.322252</ele>
        <time>2026-09-03T17:33:37.039Z</time>
      </trkpt>
      <trkpt lat="53.196414" lon="6.553930">
        <ele>1.332722</ele>
        <time>2026-09-03T17:33:40.041Z</time>
      </trkpt>
      <trkpt lat="53.196525" lon="6.553999">
        <ele>1.335604</ele>
        <time>2026-09-03T17:33:43.037Z</time>
      </trkpt>
      <trkpt lat="53.196642" lon="6.554068">
        <ele>1.329777</ele>
        <time>2026-09-03T17:33:46.041Z</time>
      </trkpt>
      <trkpt lat="53.196757" lon="6.554144">
        <ele>1.323969</ele>
        <time>2026-09-03T17:33:49.041Z</time>
      </trkpt>
      <trkpt lat="53.196861" lon="6.554202">
        <ele>1.318820</ele>
        <time>2026-09-03T17:33:52.039Z</time>
      </trkpt>
      <trkpt lat="53.196949" lon="6.554271">
        <ele>1.314254</ele>
        <time>2026-09-03T17:33:55.040Z</time>
      </trkpt>
      <trkpt lat="53.197037" lon="6.554331">
        <ele>1.309790</ele>
        <time>2026-09-03T17:33:58.034Z</time>
      </trkpt>
      <trkpt lat="53.197144" lon="6.554303">
        <ele>1.304705</ele>
        <time>2026-09-03T17:34:02.045Z</time>
      </trkpt>
      <trkpt lat="53.197189" lon="6.554132">
        <ele>1.299450</ele>
        <time>2026-09-03T17:34:05.038Z</time>
      </trkpt>
      <trkpt lat="53.197224" lon="6.553949">
        <ele>1.294046</ele>
        <time>2026-09-03T17:34:08.038Z</time>
      </trkpt>
      <trkpt lat="53.197260" lon="6.553762">
        <ele>1.288521</ele>
        <time>2026-09-03T17:34:11.045Z</time>
      </trkpt>
      <trkpt lat="53.197319" lon="6.553613">
        <ele>1.283497</ele>
        <time>2026-09-03T17:34:14.039Z</time>
      </trkpt>
      <trkpt lat="53.197414" lon="6.553606">
        <ele>1.279031</ele>
        <time>2026-09-03T17:34:17.037Z</time>
      </trkpt>
      <trkpt lat="53.197511" lon="6.553703">
        <ele>1.273721</ele>
        <time>2026-09-03T17:34:20.045Z</time>
      </trkpt>
      <trkpt lat="53.197617" lon="6.553790">
        <ele>1.268175</ele>
        <time>2026-09-03T17:34:23.046Z</time>
      </trkpt>
      <trkpt lat="53.197728" lon="6.553880">
        <ele>1.262380</ele>
        <time>2026-09-03T17:34:26.036Z</time>
      </trkpt>
      <trkpt lat="53.197839" lon="6.553968">
        <ele>1.256609</ele>
        <time>2026-09-03T17:34:29.033Z</time>
      </trkpt>
      <trkpt lat="53.197944" lon="6.554041">
        <ele>1.269178</ele>
        <time>2026-09-03T17:34:32.034Z</time>
      </trkpt>
      <trkpt lat="53.198044" lon="6.554108">
        <ele>1.301400</ele>
        <time>2026-09-03T17:34:35.045Z</time>
      </trkpt>
      <trkpt lat="53.198143" lon="6.554164">
        <ele>1.332659</ele>
        <time>2026-09-03T17:34:38.038Z</time>
      </trkpt>
      <trkpt lat="53.198238" lon="6.554137">
        <ele>1.361476</ele>
        <time>2026-09-03T17:34:41.036Z</time>
      </trkpt>
      <trkpt lat="53.198303" lon="6.553999">
        <ele>1.392923</ele>
        <time>2026-09-03T17:34:44.034Z</time>
      </trkpt>
      <trkpt lat="53.198352" lon="6.553811">
        <ele>1.429651</ele>
        <time>2026-09-03T17:34:47.036Z</time>
      </trkpt>
      <trkpt lat="53.198397" lon="6.553626">
        <ele>1.465419</ele>
        <time>2026-09-03T17:34:50.035Z</time>
      </trkpt>
      <trkpt lat="53.198438" lon="6.553447">
        <ele>1.499749</ele>
        <time>2026-09-03T17:34:53.035Z</time>
      </trkpt>
      <trkpt lat="53.198486" lon="6.553301">
        <ele>1.529582</ele>
        <time>2026-09-03T17:34:56.034Z</time>
      </trkpt>
      <trkpt lat="53.198594" lon="6.553271">
        <ele>1.562322</ele>
        <time>2026-09-03T17:35:02.032Z</time>
      </trkpt>
      <trkpt lat="53.198681" lon="6.553378">
        <ele>1.594637</ele>
        <time>2026-09-03T17:35:05.038Z</time>
      </trkpt>
      <trkpt lat="53.198783" lon="6.553517">
        <ele>1.634012</ele>
        <time>2026-09-03T17:35:08.037Z</time>
      </trkpt>
      <trkpt lat="53.198883" lon="6.553639">
        <ele>1.671050</ele>
        <time>2026-09-03T17:35:11.035Z</time>
      </trkpt>
      <trkpt lat="53.198974" lon="6.553758">
        <ele>1.705618</ele>
        <time>2026-09-03T17:35:14.032Z</time>
      </trkpt>
      <trkpt lat="53.199059" lon="6.553868">
        <ele>1.737780</ele>
        <time>2026-09-03T17:35:17.039Z</time>
      </trkpt>
      <trkpt lat="53.199151" lon="6.553998">
        <ele>1.773824</ele>
        <time>2026-09-03T17:35:20.042Z</time>
      </trkpt>
      <trkpt lat="53.199247" lon="6.554133">
        <ele>1.758132</ele>
        <time>2026-09-03T17:35:23.037Z</time>
      </trkpt>
      <trkpt lat="53.199347" lon="6.554260">
        <ele>1.694696</ele>
        <time>2026-09-03T17:35:26.046Z</time>
      </trkpt>
      <trkpt lat="53.199446" lon="6.554392">
        <ele>1.630728</ele>
        <time>2026-09-03T17:35:29.045Z</time>
      </trkpt>
      <trkpt lat="53.199549" lon="6.554514">
        <ele>1.566966</ele>
        <time>2026-09-03T17:35:32.045Z</time>
      </trkpt>
      <trkpt lat="53.199638" lon="6.554646">
        <ele>1.506860</ele>
        <time>2026-09-03T17:35:35.045Z</time>
      </trkpt>
      <trkpt lat="53.199730" lon="6.554776">
        <ele>1.446006</ele>
        <time>2026-09-03T17:35:38.040Z</time>
      </trkpt>
      <trkpt lat="53.199804" lon="6.554901">
        <ele>1.392856</ele>
        <time>2026-09-03T17:35:41.037Z</time>
      </trkpt>
      <trkpt lat="53.199844" lon="6.555036">
        <ele>1.347307</ele>
        <time>2026-09-03T17:35:47.036Z</time>
      </trkpt>
      <trkpt lat="53.199786" lon="6.555189">
        <ele>1.292548</ele>
        <time>2026-09-03T17:35:53.046Z</time>
      </trkpt>
      <trkpt lat="53.199735" lon="6.555332">
        <ele>1.242215</ele>
        <time>2026-09-03T17:35:56.034Z</time>
      </trkpt>
      <trkpt lat="53.199678" lon="6.555503">
        <ele>1.183032</ele>
        <time>2026-09-03T17:35:59.034Z</time>
      </trkpt>
      <trkpt lat="53.199720" lon="6.555690">
        <ele>1.122633</ele>
        <time>2026-09-03T17:36:02.033Z</time>
      </trkpt>
      <trkpt lat="53.199823" lon="6.555822">
        <ele>1.057075</ele>
        <time>2026-09-03T17:36:05.034Z</time>
      </trkpt>
      <trkpt lat="53.199923" lon="6.555957">
        <ele>0.992145</ele>
        <time>2026-09-03T17:36:08.033Z</time>
      </trkpt>
      <trkpt lat="53.199993" lon="6.556055">
        <ele>0.946021</ele>
        <time>2026-09-03T17:36:10.046Z</time>
      </trkpt>
      <trkpt lat="53.200061" lon="6.556160">
        <ele>0.899256</ele>
        <time>2026-09-03T17:36:12.039Z</time>
      </trkpt>
      <trkpt lat="53.200146" lon="6.556312">
        <ele>0.888320</ele>
        <time>2026-09-03T17:36:15.045Z</time>
      </trkpt>
      <trkpt lat="53.200229" lon="6.556437">
        <ele>0.894121</ele>
        <time>2026-09-03T17:36:18.036Z</time>
      </trkpt>
      <trkpt lat="53.200308" lon="6.556570">
        <ele>0.899943</ele>
        <time>2026-09-03T17:36:21.038Z</time>
      </trkpt>
      <trkpt lat="53.200370" lon="6.556702">
        <ele>0.905157</ele>
        <time>2026-09-03T17:36:24.045Z</time>
      </trkpt>
      <trkpt lat="53.200356" lon="6.556881">
        <ele>0.910768</ele>
        <time>2026-09-03T17:36:31.046Z</time>
      </trkpt>
      <trkpt lat="53.200296" lon="6.557007">
        <ele>0.915772</ele>
        <time>2026-09-03T17:36:34.034Z</time>
      </trkpt>
      <trkpt lat="53.200351" lon="6.557130">
        <ele>0.920543</ele>
        <time>2026-09-03T17:36:38.042Z</time>
      </trkpt>
      <trkpt lat="53.200455" lon="6.557237">
        <ele>0.926882</ele>
        <time>2026-09-03T17:36:42.038Z</time>
      </trkpt>
      <trkpt lat="53.200539" lon="6.557318">
        <ele>0.931916</ele>
        <time>2026-09-03T17:36:45.039Z</time>
      </trkpt>
      <trkpt lat="53.200629" lon="6.557395">
        <ele>0.937164</ele>
        <time>2026-09-03T17:36:48.038Z</time>
      </trkpt>
      <trkpt lat="53.200703" lon="6.557509">
        <ele>0.942389</ele>
        <time>2026-09-03T17:36:52.039Z</time>
      </trkpt>
      <trkpt lat="53.200661" lon="6.557648">
        <ele>0.947228</ele>
        <time>2026-09-03T17:36:56.038Z</time>
      </trkpt>
      <trkpt lat="53.200616" lon="6.557805">
        <ele>0.952638</ele>
        <time>2026-09-03T17:37:00.039Z</time>
      </trkpt>
      <trkpt lat="53.200661" lon="6.557942">
        <ele>0.957495</ele>
        <time>2026-09-03T17:37:06.039Z</time>
      </trkpt>
      <trkpt lat="53.200625" lon="6.558119">
        <ele>0.963305</ele>
        <time>2026-09-03T17:37:10.038Z</time>
      </trkpt>
      <trkpt lat="53.200581" lon="6.558269">
        <ele>0.968497</ele>
        <time>2026-09-03T17:37:13.041Z</time>
      </trkpt>
      <trkpt lat="53.200592" lon="6.558423">
        <ele>0.973318</ele>
        <time>2026-09-03T17:37:19.037Z</time>
      </trkpt>
      <trkpt lat="53.200549" lon="6.558581">
        <ele>0.992402</ele>
        <time>2026-09-03T17:37:23.038Z</time>
      </trkpt>
      <trkpt lat="53.200546" lon="6.558746">
        <ele>1.034518</ele>
        <time>2026-09-03T17:37:27.034Z</time>
      </trkpt>
      <trkpt lat="53.200526" lon="6.558908">
        <ele>1.076719</ele>
        <time>2026-09-03T17:37:30.039Z</time>
      </trkpt>
      <trkpt lat="53.200496" lon="6.559081">
        <ele>1.122669</ele>
        <time>2026-09-03T17:37:33.041Z</time>
      </trkpt>
      <trkpt lat="53.200472" lon="6.559236">
        <ele>1.163514</ele>
        <time>2026-09-03T17:37:36.039Z</time>
      </trkpt>
      <trkpt lat="53.200443" lon="6.559378">
        <ele>1.201791</ele>
        <time>2026-09-03T17:37:39.047Z</time>
      </trkpt>
      <trkpt lat="53.200407" lon="6.559523">
        <ele>1.241837</ele>
        <time>2026-09-03T17:37:44.035Z</time>
      </trkpt>
      <trkpt lat="53.200390" lon="6.559683">
        <ele>1.283295</ele>
        <time>2026-09-03T17:37:49.035Z</time>
      </trkpt>
      <trkpt lat="53.200478" lon="6.559812">
        <ele>1.333175</ele>
        <time>2026-09-03T17:37:53.035Z</time>
      </trkpt>
      <trkpt lat="53.200591" lon="6.559844">
        <ele>1.381992</ele>
        <time>2026-09-03T17:37:56.046Z</time>
      </trkpt>
      <trkpt lat="53.200714" lon="6.559870">
        <ele>1.434798</ele>
        <time>2026-09-03T17:37:59.048Z</time>
      </trkpt>
      <trkpt lat="53.200844" lon="6.559887">
        <ele>1.490337</ele>
        <time>2026-09-03T17:38:02.046Z</time>
      </trkpt>
      <trkpt lat="53.200939" lon="6.559896">
        <ele>1.530865</ele>
        <time>2026-09-03T17:38:04.047Z</time>
      </trkpt>
      <trkpt lat="53.201032" lon="6.559905">
        <ele>1.570542</ele>
        <time>2026-09-03T17:38:06.035Z</time>
      </trkpt>
      <trkpt lat="53.201122" lon="6.559898">
        <ele>1.608916</ele>
        <time>2026-09-03T17:38:08.046Z</time>
      </trkpt>
      <trkpt lat="53.201243" lon="6.559897">
        <ele>1.660453</ele>
        <time>2026-09-03T17:38:11.036Z</time>
      </trkpt>
      <trkpt lat="53.201335" lon="6.559895">
        <ele>1.699641</ele>
        <time>2026-09-03T17:38:13.037Z</time>
      </trkpt>
      <trkpt lat="53.201466" lon="6.559878">
        <ele>1.730384</ele>
        <time>2026-09-03T17:38:16.038Z</time>
      </trkpt>
      <trkpt lat="53.201590" lon="6.559873">
        <ele>1.678423</ele>
        <time>2026-09-03T17:38:19.046Z</time>
      </trkpt>
      <trkpt lat="53.201681" lon="6.559860">
        <ele>1.640162</ele>
        <time>2026-09-03T17:38:21.046Z</time>
      </trkpt>
      <trkpt lat="53.201809" lon="6.559802">
        <ele>1.584600</ele>
        <time>2026-09-03T17:38:24.049Z</time>
      </trkpt>
      <trkpt lat="53.201898" lon="6.559764">
        <ele>1.546116</ele>
        <time>2026-09-03T17:38:26.051Z</time>
      </trkpt>
      <trkpt lat="53.201989" lon="6.559729">
        <ele>1.506996</ele>
        <time>2026-09-03T17:38:28.046Z</time>
      </trkpt>
      <trkpt lat="53.202075" lon="6.559682">
        <ele>1.469087</ele>
        <time>2026-09-03T17:38:30.046Z</time>
      </trkpt>
      <trkpt lat="53.202188" lon="6.559615">
        <ele>1.418852</ele>
        <time>2026-09-03T17:38:33.039Z</time>
      </trkpt>
      <trkpt lat="53.202308" lon="6.559542">
        <ele>1.365349</ele>
        <time>2026-09-03T17:38:36.046Z</time>
      </trkpt>
      <trkpt lat="53.202398" lon="6.559510">
        <ele>1.326800</ele>
        <time>2026-09-03T17:38:38.035Z</time>
      </trkpt>
      <trkpt lat="53.202515" lon="6.559461">
        <ele>1.276268</ele>
        <time>2026-09-03T17:38:41.045Z</time>
      </trkpt>
      <trkpt lat="53.202603" lon="6.559416">
        <ele>1.237712</ele>
        <time>2026-09-03T17:38:43.038Z</time>
      </trkpt>
      <trkpt lat="53.202729" lon="6.559351">
        <ele>1.182466</ele>
        <time>2026-09-03T17:38:46.038Z</time>
      </trkpt>
      <trkpt lat="53.202845" lon="6.559271">
        <ele>1.129888</ele>
        <time>2026-09-03T17:38:49.036Z</time>
      </trkpt>
      <trkpt lat="53.202945" lon="6.559199">
        <ele>1.084266</ele>
        <time>2026-09-03T17:38:52.045Z</time>
      </trkpt>
      <trkpt lat="53.203042" lon="6.559163">
        <ele>1.042639</ele>
        <time>2026-09-03T17:38:56.035Z</time>
      </trkpt>
      <trkpt lat="53.202870" lon="6.559247">
        <ele>0.934296</ele>
        <time>2026-09-03T17:50:09.041Z</time>
      </trkpt>
      <trkpt lat="53.202780" lon="6.559292">
        <ele>0.834977</ele>
        <time>2026-09-03T17:50:16.041Z</time>
      </trkpt>
      <trkpt lat="53.202728" lon="6.559156">
        <ele>0.732809</ele>
        <time>2026-09-03T17:50:21.037Z</time>
      </trkpt>
      <trkpt lat="53.202673" lon="6.559003">
        <ele>0.619818</ele>
        <time>2026-09-03T17:50:27.051Z</time>
      </trkpt>
      <trkpt lat="53.202565" lon="6.559033">
        <ele>0.504076</ele>
        <time>2026-09-03T17:50:32.041Z</time>
      </trkpt>
      <trkpt lat="53.202468" lon="6.559041">
        <ele>0.401407</ele>
        <time>2026-09-03T17:50:35.041Z</time>
      </trkpt>
      <trkpt lat="53.202398" lon="6.558898">
        <ele>0.284464</ele>
        <time>2026-09-03T17:50:39.031Z</time>
      </trkpt>
      <trkpt lat="53.202368" lon="6.558741">
        <ele>0.180111</ele>
        <time>2026-09-03T17:50:42.042Z</time>
      </trkpt>
      <trkpt lat="53.202326" lon="6.558558">
        <ele>0.056016</ele>
        <time>2026-09-03T17:50:45.042Z</time>
      </trkpt>
      <trkpt lat="53.202292" lon="6.558361">
        <ele>-0.073805</ele>
        <time>2026-09-03T17:50:48.037Z</time>
      </trkpt>
      <trkpt lat="53.202255" lon="6.558178">
        <ele>-0.196109</ele>
        <time>2026-09-03T17:50:51.038Z</time>
      </trkpt>
      <trkpt lat="53.202214" lon="6.557976">
        <ele>-0.331165</ele>
        <time>2026-09-03T17:50:54.040Z</time>
      </trkpt>
      <trkpt lat="53.202186" lon="6.557829">
        <ele>-0.428843</ele>
        <time>2026-09-03T17:50:56.041Z</time>
      </trkpt>
      <trkpt lat="53.202153" lon="6.557617">
        <ele>-0.567546</ele>
        <time>2026-09-03T17:50:59.037Z</time>
      </trkpt>
      <trkpt lat="53.202116" lon="6.557422">
        <ele>-0.697073</ele>
        <time>2026-09-03T17:51:02.041Z</time>
      </trkpt>
      <trkpt lat="53.202076" lon="6.557220">
        <ele>-0.831794</ele>
        <time>2026-09-03T17:51:05.046Z</time>
      </trkpt>
      <trkpt lat="53.202036" lon="6.557021">
        <ele>-0.912044</ele>
        <time>2026-09-03T17:51:08.040Z</time>
      </trkpt>
      <trkpt lat="53.201981" lon="6.556820">
        <ele>-0.912044</ele>
        <time>2026-09-03T17:51:11.037Z</time>
      </trkpt>
      <trkpt lat="53.201938" lon="6.556624">
        <ele>-0.912044</ele>
        <time>2026-09-03T17:51:14.039Z</time>
      </trkpt>
      <trkpt lat="53.201897" lon="6.556419">
        <ele>-0.912044</ele>
        <time>2026-09-03T17:51:17.038Z</time>
      </trkpt>
      <trkpt lat="53.201867" lon="6.556212">
        <ele>-0.912044</ele>
        <time>2026-09-03T17:51:20.037Z</time>
      </trkpt>
      <trkpt lat="53.201828" lon="6.556005">
        <ele>-0.912044</ele>
        <time>2026-09-03T17:51:23.036Z</time>
      </trkpt>
      <trkpt lat="53.201807" lon="6.555802">
        <ele>-0.912044</ele>
        <time>2026-09-03T17:51:26.036Z</time>
      </trkpt>
      <trkpt lat="53.201739" lon="6.555601">
        <ele>-0.912044</ele>
        <time>2026-09-03T17:51:29.042Z</time>
      </trkpt>
      <trkpt lat="53.201691" lon="6.555464">
        <ele>-0.912044</ele>
        <time>2026-09-03T17:51:31.037Z</time>
      </trkpt>
      <trkpt lat="53.201676" lon="6.555315">
        <ele>-0.912044</ele>
        <time>2026-09-03T17:51:33.036Z</time>
      </trkpt>
      <trkpt lat="53.201633" lon="6.555109">
        <ele>-0.912044</ele>
        <time>2026-09-03T17:51:36.035Z</time>
      </trkpt>
      <trkpt lat="53.201599" lon="6.554945">
        <ele>-0.912044</ele>
        <time>2026-09-03T17:51:39.041Z</time>
      </trkpt>
      <trkpt lat="53.201643" lon="6.554795">
        <ele>-0.912044</ele>
        <time>2026-09-03T17:51:42.039Z</time>
      </trkpt>
      <trkpt lat="53.201731" lon="6.554754">
        <ele>-0.912044</ele>
        <time>2026-09-03T17:51:45.048Z</time>
      </trkpt>
      <trkpt lat="53.201807" lon="6.554637">
        <ele>-0.912044</ele>
        <time>2026-09-03T17:51:49.037Z</time>
      </trkpt>
    </trkseg>
  </trk>
</gpx>